Darstellungsparameter: Aktuell verwendete Einstellungen:
Skalierung der Graphiken ... ?
xyx+y,   Skalierungsfaktor:      Skalierung: Modus: x, Faktor: 1
Darstellungszeitraum ... ?
Vom - - bis: - -   Zeitraum: 22.08.2020 - 05.02.2021
Min/Max/Avg-Anzeige ... ?
Zeige MMA aktuell
Zeige MMA Monat
Zeige MMA alles
Zeige --A aktuell
Zeige --A Monat
Zeige --A alles
Keine MMA-Anzeige
MMA:
Average (ber die Originaldaten)
MMA-Basis: 23.02.2003 - 03.08.2020
Quicknavigation für Darstellung... ?
Tage:      1T, 2T, 3T, 5T -1T -2T -3T -5T +1T +2T +3T +5T
Wochen: 1W, 2W, 3W -1W -2W -3W +1W +2W +3W
Monate: 1M, 3M, 6M -1M -3M -6M +1M +3M +6M
Jahre:    1J, 3J, 5J, 10J -1J -3J -5J -10J +1J +3J +5J +10J
Nutze für die Darstellung ... ?
Originaldaten oder ...
Mittelwerte Minima Maxima auf...
Stundenbasis Tagesbasis Wochenbasis
Monatsbasis Jahresbasis      Datenbasis: Mittelwerte auf Stundenbasis
Darstellen als:
Statistik (Auto) Statistik J:M      Darstellung:
Zur Graphik,    zurück zur Übersicht aller Sensoren.
 
Tabellarische Datenbersicht: ?
 
Sensor: Nr:Datum:Temp:Abs-Feuchte:Windchill:Wind:
Aussen-T/F 1 22-08-2020 00:00:00 21.8 C 16 g/m*3 21.8 C 0 km/h
2 22-08-2020 01:00:00 21.65 C 15.88 g/m*3 21.65 C 0.8 km/h
3 22-08-2020 02:00:00 21.43333 C 15.75 g/m*3 21.43 C 0.93333 km/h
4 22-08-2020 03:00:00 21.28333 C 15.46 g/m*3 21.28 C 1.06667 km/h
5 22-08-2020 04:00:00 20.675 C 15.08 g/m*3 20.68 C 1.2 km/h
6 22-08-2020 05:00:00 20.525 C 15.21 g/m*3 20.53 C 1.86667 km/h
7 22-08-2020 06:00:00 20.94167 C 15.46 g/m*3 20.94 C 6.29167 km/h
8 22-08-2020 07:00:00 21.5 C 15.51 g/m*3 21.5 C 8.725 km/h
9 22-08-2020 08:00:00 21.525 C 15.33 g/m*3 21.53 C 9.00833 km/h
10 22-08-2020 09:00:00 21.70833 C 13.9 g/m*3 21.71 C 10.2 km/h
11 22-08-2020 10:00:00 21.79167 C 12.99 g/m*3 21.79 C 12.76667 km/h
12 22-08-2020 11:00:00 22.35 C 12.31 g/m*3 22.35 C 16.76667 km/h
13 22-08-2020 12:00:00 23.175 C 11.97 g/m*3 23.18 C 18.63333 km/h
14 22-08-2020 13:00:00 24.24167 C 11.78 g/m*3 24.24 C 17.96667 km/h
15 22-08-2020 14:00:00 25.16667 C 11.62 g/m*3 25.17 C 17.025 km/h
16 22-08-2020 15:00:00 25.38333 C 11.15 g/m*3 25.38 C 15.56667 km/h
17 22-08-2020 16:00:00 26.63333 C 10.93 g/m*3 26.63 C 18.9 km/h
18 22-08-2020 17:00:00 26.49167 C 10.8 g/m*3 26.49 C 16.5 km/h
19 22-08-2020 18:00:00 25.15833 C 10.7 g/m*3 25.16 C 16.9 km/h
20 22-08-2020 19:00:00 24.09167 C 10.99 g/m*3 24.09 C 9.01667 km/h
21 22-08-2020 20:00:00 22.5 C 11.53 g/m*3 22.5 C 3.075 km/h
22 22-08-2020 21:00:00 20.53333 C 11.65 g/m*3 20.53 C 0.53333 km/h
23 22-08-2020 22:00:00 19.75833 C 11.88 g/m*3 19.76 C 0 km/h
24 22-08-2020 23:00:00 18.63333 C 11.65 g/m*3 18.63 C 0 km/h
25 23-08-2020 00:00:00 18.81667 C 11.74 g/m*3 18.82 C 0 km/h
Sensor: Nr:Datum:Temp:Abs-Feuchte:Windchill:Wind:
Aussen-T/F 26 23-08-2020 01:00:00 18.90833 C 12.17 g/m*3 18.91 C 0 km/h
27 23-08-2020 02:00:00 18.375 C 12.3 g/m*3 18.38 C 0 km/h
28 23-08-2020 03:00:00 17.71667 C 12.09 g/m*3 17.72 C 0 km/h
29 23-08-2020 04:00:00 17.26667 C 12.08 g/m*3 17.27 C 0 km/h
30 23-08-2020 05:00:00 17.16667 C 11.97 g/m*3 17.17 C 0.4 km/h
31 23-08-2020 06:00:00 16.93333 C 11.82 g/m*3 16.93 C 2.13333 km/h
32 23-08-2020 07:00:00 16.49167 C 11.86 g/m*3 16.49 C 0.93333 km/h
33 23-08-2020 08:00:00 18.025 C 12.46 g/m*3 18.02 C 2.53333 km/h
34 23-08-2020 09:00:00 18.975 C 12.5 g/m*3 18.98 C 3.875 km/h
35 23-08-2020 10:00:00 20.11667 C 11.86 g/m*3 20.12 C 11.29167 km/h
36 23-08-2020 11:00:00 20.38333 C 10.96 g/m*3 20.38 C 15.16667 km/h
37 23-08-2020 12:00:00 20.825 C 10.77 g/m*3 20.83 C 15.43333 km/h
38 23-08-2020 13:00:00 21.175 C 9.96 g/m*3 21.18 C 15.03333 km/h
39 23-08-2020 14:00:00 22.1 C 9.6 g/m*3 22.1 C 15.56667 km/h
40 23-08-2020 15:00:00 22.2 C 9.8 g/m*3 22.2 C 15.83333 km/h
41 23-08-2020 16:00:00 22.34167 C 9.78 g/m*3 22.34 C 13.56667 km/h
42 23-08-2020 17:00:00 21.83333 C 10.03 g/m*3 21.83 C 13.15833 km/h
43 23-08-2020 18:00:00 20.60833 C 10.76 g/m*3 20.61 C 15.7 km/h
44 23-08-2020 19:00:00 18.925 C 11.53 g/m*3 18.93 C 12.36667 km/h
45 23-08-2020 20:00:00 18.26667 C 11.6 g/m*3 18.27 C 10.35833 km/h
46 23-08-2020 21:00:00 17.90833 C 11.51 g/m*3 17.91 C 11.43333 km/h
47 23-08-2020 22:00:00 17.50833 C 11.47 g/m*3 17.51 C 10.20833 km/h
48 23-08-2020 23:00:00 16.91667 C 11.4 g/m*3 16.92 C 7.10833 km/h
49 24-08-2020 00:00:00 16.85833 C 11.33 g/m*3 16.86 C 4.55 km/h
50 24-08-2020 01:00:00 16.425 C 11.36 g/m*3 16.43 C 2.53333 km/h
Sensor: Nr:Datum:Temp:Abs-Feuchte:Windchill:Wind:
Aussen-T/F 51 24-08-2020 02:00:00 16.5 C 11.46 g/m*3 16.5 C 4.40833 km/h
52 24-08-2020 03:00:00 16.41667 C 11.44 g/m*3 16.42 C 0.93333 km/h
53 24-08-2020 04:00:00 16.275 C 11.39 g/m*3 16.27 C 3.74167 km/h
54 24-08-2020 05:00:00 16.03333 C 11.25 g/m*3 16.03 C 2.93333 km/h
55 24-08-2020 06:00:00 15.65833 C 11.19 g/m*3 15.66 C 3.33333 km/h
56 24-08-2020 07:00:00 14.875 C 10.88 g/m*3 14.88 C 3.475 km/h
57 24-08-2020 08:00:00 14.76667 C 10.7 g/m*3 14.77 C 5.08333 km/h
58 24-08-2020 09:00:00 16.325 C 10.9 g/m*3 16.33 C 13.96667 km/h
59 24-08-2020 10:00:00 17.88333 C 11 g/m*3 17.88 C 12.76667 km/h
60 24-08-2020 11:00:00 18.9 C 10.91 g/m*3 18.9 C 13.7 km/h
61 24-08-2020 12:00:00 19.41667 C 11.09 g/m*3 19.42 C 10.48333 km/h
62 24-08-2020 13:00:00 19.71667 C 11.02 g/m*3 19.72 C 12.1 km/h
63 24-08-2020 14:00:00 19.98333 C 11.08 g/m*3 19.98 C 13.43333 km/h
64 24-08-2020 15:00:00 21.05833 C 10.61 g/m*3 21.06 C 14.36667 km/h
65 24-08-2020 16:00:00 21.95 C 10.29 g/m*3 21.95 C 11.96667 km/h
66 24-08-2020 17:00:00 22.70833 C 10.34 g/m*3 22.71 C 14.5 km/h
67 24-08-2020 18:00:00 22.86667 C 10.1 g/m*3 22.87 C 12.23333 km/h
68 24-08-2020 19:00:00 21.06667 C 10.16 g/m*3 21.07 C 6.45 km/h
69 24-08-2020 20:00:00 19.93333 C 10.46 g/m*3 19.93 C 8.45833 km/h
70 24-08-2020 21:00:00 18.23333 C 11.28 g/m*3 18.23 C 0.8 km/h
71 24-08-2020 22:00:00 16.96667 C 11.22 g/m*3 16.97 C 0 km/h
72 24-08-2020 23:00:00 16.80833 C 11.3 g/m*3 16.81 C 1.2 km/h
73 25-08-2020 00:00:00 16.83333 C 11.31 g/m*3 16.83 C 0.26667 km/h
74 25-08-2020 01:00:00 17.025 C 11.4 g/m*3 17.02 C 0 km/h
75 25-08-2020 02:00:00 16.74167 C 11.67 g/m*3 16.74 C 0.93333 km/h
Sensor: Nr:Datum:Temp:Abs-Feuchte:Windchill:Wind:
Aussen-T/F 76 25-08-2020 03:00:00 16.025 C 11.55 g/m*3 16.02 C 0.26667 km/h
77 25-08-2020 04:00:00 14.76667 C 10.82 g/m*3 14.77 C 3.2 km/h
78 25-08-2020 05:00:00 13.60833 C 10.46 g/m*3 13.61 C 0 km/h
79 25-08-2020 06:00:00 12.94167 C 10.3 g/m*3 12.94 C 0 km/h
80 25-08-2020 07:00:00 13.33333 C 10.72 g/m*3 13.33 C 0 km/h
81 25-08-2020 08:00:00 14.70833 C 11.35 g/m*3 14.71 C 0.66667 km/h
82 25-08-2020 09:00:00 15.925 C 11.57 g/m*3 15.93 C 0.13333 km/h
83 25-08-2020 10:00:00 17.125 C 11.92 g/m*3 17.13 C 0.4 km/h
84 25-08-2020 11:00:00 19.61667 C 12.12 g/m*3 19.62 C 4.41667 km/h
85 25-08-2020 12:00:00 21.9 C 11.4 g/m*3 21.9 C 7.51667 km/h
86 25-08-2020 13:00:00 22.65833 C 11.4 g/m*3 22.66 C 7.51667 km/h
87 25-08-2020 14:00:00 22.425 C 11.24 g/m*3 22.43 C 7.93333 km/h
88 25-08-2020 15:00:00 22.35833 C 11.97 g/m*3 22.36 C 0.93333 km/h
89 25-08-2020 16:00:00 21.05833 C 14.38 g/m*3 21.06 C 1.06667 km/h
90 25-08-2020 17:00:00 21.575 C 14.11 g/m*3 21.58 C 1.2 km/h
91 25-08-2020 18:00:00 26.175 C 12.05 g/m*3 26.18 C 6.56667 km/h
92 25-08-2020 19:00:00 25.375 C 12.07 g/m*3 25.38 C 3.74167 km/h
93 25-08-2020 20:00:00 22.625 C 11.37 g/m*3 22.63 C 2.4 km/h
94 25-08-2020 21:00:00 21.3 C 10.81 g/m*3 21.3 C 2.275 km/h
95 25-08-2020 22:00:00 20.83333 C 10.37 g/m*3 20.83 C 3.60833 km/h
96 25-08-2020 23:00:00 20.96667 C 10.56 g/m*3 20.97 C 2.28333 km/h
97 26-08-2020 00:00:00 21.03333 C 11.01 g/m*3 21.03 C 5.49167 km/h
98 26-08-2020 01:00:00 21.40833 C 11.91 g/m*3 21.41 C 8.18333 km/h
99 26-08-2020 02:00:00 22.49167 C 12.54 g/m*3 22.49 C 16.79167 km/h
100 26-08-2020 03:00:00 21.85833 C 12.18 g/m*3 21.86 C 23.325 km/h
Sensor: Nr:Datum:Temp:Abs-Feuchte:Windchill:Wind:
Aussen-T/F 101 26-08-2020 04:00:00 20.59167 C 11.03 g/m*3 20.59 C 21.7 km/h
102 26-08-2020 05:00:00 20.075 C 10.1 g/m*3 20.08 C 22.51667 km/h
103 26-08-2020 06:00:00 19.58333 C 9.74 g/m*3 19.58 C 21.575 km/h
104 26-08-2020 07:00:00 19.225 C 9.61 g/m*3 19.23 C 20.50833 km/h
105 26-08-2020 08:00:00 19.3 C 9.77 g/m*3 19.3 C 19.44167 km/h
106 26-08-2020 09:00:00 19.41667 C 9.99 g/m*3 19.42 C 18.24167 km/h
107 26-08-2020 10:00:00 19.55 C 10.14 g/m*3 19.55 C 17.83333 km/h
108 26-08-2020 11:00:00 19.74167 C 10.11 g/m*3 19.74 C 20.38333 km/h
109 26-08-2020 12:00:00 20.13333 C 10.57 g/m*3 20.13 C 19.70833 km/h
110 26-08-2020 13:00:00 21.025 C 10.87 g/m*3 21.03 C 21.84167 km/h
111 26-08-2020 14:00:00 21.675 C 10.51 g/m*3 21.68 C 21.04167 km/h
112 26-08-2020 15:00:00 22.49167 C 10.38 g/m*3 22.49 C 21.16667 km/h
113 26-08-2020 16:00:00 22.95833 C 10.24 g/m*3 22.96 C 26.95833 km/h
114 26-08-2020 17:00:00 22.70833 C 10.19 g/m*3 22.71 C 20.23333 km/h
115 26-08-2020 18:00:00 22.35 C 10.18 g/m*3 22.35 C 19.43333 km/h
116 26-08-2020 19:00:00 21.525 C 10.35 g/m*3 21.53 C 14.76667 km/h
117 26-08-2020 20:00:00 20.60833 C 10.65 g/m*3 20.61 C 15.96667 km/h
118 26-08-2020 21:00:00 19.93333 C 10.59 g/m*3 19.93 C 13.83333 km/h
119 26-08-2020 22:00:00 19.41667 C 10.58 g/m*3 19.42 C 6.98333 km/h
120 26-08-2020 23:00:00 18.69167 C 10.68 g/m*3 18.69 C 2.4 km/h
121 27-08-2020 00:00:00 18.05833 C 10.7 g/m*3 18.06 C 4.68333 km/h
122 27-08-2020 01:00:00 17.31667 C 10.74 g/m*3 17.32 C 2.4 km/h
123 27-08-2020 02:00:00 16.175 C 10.8 g/m*3 16.18 C 2.4 km/h
124 27-08-2020 03:00:00 15.49167 C 10.59 g/m*3 15.49 C 1.6 km/h
125 27-08-2020 04:00:00 14.05833 C 10.34 g/m*3 14.06 C 1.33333 km/h
Sensor: Nr:Datum:Temp:Abs-Feuchte:Windchill:Wind:
Aussen-T/F 126 27-08-2020 05:00:00 13.23333 C 10.16 g/m*3 13.23 C 0 km/h
127 27-08-2020 06:00:00 12.80833 C 10.11 g/m*3 12.81 C 0.93333 km/h
128 27-08-2020 07:00:00 12.76667 C 10.18 g/m*3 12.77 C 3.74167 km/h
129 27-08-2020 08:00:00 13.69167 C 10.58 g/m*3 13.69 C 4.43333 km/h
130 27-08-2020 09:00:00 15.975 C 11.09 g/m*3 15.98 C 9.56667 km/h
131 27-08-2020 10:00:00 17.20833 C 11.34 g/m*3 17.21 C 6.3 km/h
132 27-08-2020 11:00:00 18.9 C 11.43 g/m*3 18.9 C 6.575 km/h
133 27-08-2020 12:00:00 19.5 C 11.02 g/m*3 19.5 C 5.21667 km/h
134 27-08-2020 13:00:00 20.125 C 10.85 g/m*3 20.13 C 9.275 km/h
135 27-08-2020 14:00:00 21.30833 C 10.65 g/m*3 21.31 C 7.25833 km/h
136 27-08-2020 15:00:00 22.59167 C 10.29 g/m*3 22.59 C 11.15833 km/h
137 27-08-2020 16:00:00 24.475 C 10.24 g/m*3 24.48 C 10.48333 km/h
138 27-08-2020 17:00:00 25.51667 C 9.95 g/m*3 25.52 C 10.9 km/h
139 27-08-2020 18:00:00 25.83333 C 9.65 g/m*3 25.83 C 9.81667 km/h
140 27-08-2020 19:00:00 24.425 C 10.33 g/m*3 24.43 C 4.15 km/h
141 27-08-2020 20:00:00 19.86667 C 10.19 g/m*3 19.87 C 3.6 km/h
142 27-08-2020 21:00:00 17.48333 C 9.89 g/m*3 17.48 C 2.53333 km/h
143 27-08-2020 22:00:00 17.20833 C 10.11 g/m*3 17.21 C 0 km/h
144 27-08-2020 23:00:00 17.40833 C 11.38 g/m*3 17.41 C 1.20833 km/h
145 28-08-2020 00:00:00 16.45 C 11.64 g/m*3 16.45 C 3.73333 km/h
146 28-08-2020 01:00:00 16.65833 C 11.88 g/m*3 16.66 C 1.46667 km/h
147 28-08-2020 02:00:00 16.425 C 12.69 g/m*3 16.43 C 3.75 km/h
148 28-08-2020 03:00:00 15.9 C 12.54 g/m*3 15.9 C 1.73333 km/h
149 28-08-2020 04:00:00 15.725 C 12.62 g/m*3 15.73 C 5.61667 km/h
150 28-08-2020 05:00:00 15.65 C 12.67 g/m*3 15.65 C 3.06667 km/h
Sensor: Nr:Datum:Temp:Abs-Feuchte:Windchill:Wind:
Aussen-T/F 151 28-08-2020 06:00:00 15.525 C 12.58 g/m*3 15.53 C 4.14167 km/h
152 28-08-2020 07:00:00 15.56667 C 12.61 g/m*3 15.57 C 2.66667 km/h
153 28-08-2020 08:00:00 15.99167 C 12.94 g/m*3 15.99 C 1.73333 km/h
154 28-08-2020 09:00:00 16.78333 C 12.74 g/m*3 16.78 C 3.20833 km/h
155 28-08-2020 10:00:00 18.51667 C 12.23 g/m*3 18.52 C 8.875 km/h
156 28-08-2020 11:00:00 19.95833 C 11.92 g/m*3 19.96 C 11.425 km/h
157 28-08-2020 12:00:00 20.63333 C 11.87 g/m*3 20.63 C 8.89167 km/h
158 28-08-2020 13:00:00 20.40833 C 11.52 g/m*3 20.41 C 10.09167 km/h
159 28-08-2020 14:00:00 20.875 C 11.68 g/m*3 20.88 C 5.88333 km/h
160 28-08-2020 15:00:00 21.38333 C 11.71 g/m*3 21.38 C 6.3 km/h
161 28-08-2020 16:00:00 21.73333 C 11.91 g/m*3 21.73 C 9.53333 km/h
162 28-08-2020 17:00:00 22.425 C 11.45 g/m*3 22.43 C 12.5 km/h
163 28-08-2020 18:00:00 21.525 C 10.42 g/m*3 21.53 C 11.14167 km/h
164 28-08-2020 19:00:00 20.36667 C 9.75 g/m*3 20.37 C 5.225 km/h
165 28-08-2020 20:00:00 18.75 C 10.24 g/m*3 18.75 C 9.39167 km/h
166 28-08-2020 21:00:00 14.975 C 10.65 g/m*3 14.98 C 5.78333 km/h
167 28-08-2020 22:00:00 13.625 C 10.32 g/m*3 13.63 C 3.33333 km/h
168 28-08-2020 23:00:00 12.95 C 10.1 g/m*3 12.95 C 1.46667 km/h
169 29-08-2020 00:00:00 12.475 C 9.99 g/m*3 12.48 C 1.46667 km/h
170 29-08-2020 01:00:00 12.425 C 10 g/m*3 12.43 C 2.93333 km/h
171 29-08-2020 02:00:00 12.05 C 9.84 g/m*3 12.05 C 1.86667 km/h
172 29-08-2020 03:00:00 11.71667 C 9.69 g/m*3 11.72 C 1.6 km/h
173 29-08-2020 04:00:00 11.725 C 9.76 g/m*3 11.73 C 2.13333 km/h
174 29-08-2020 05:00:00 11.15833 C 9.42 g/m*3 11.16 C 1.33333 km/h
175 29-08-2020 06:00:00 10.96667 C 9.41 g/m*3 10.97 C 0 km/h
Sensor: Nr:Datum:Temp:Abs-Feuchte:Windchill:Wind:
Aussen-T/F 176 29-08-2020 07:00:00 11.275 C 9.67 g/m*3 11.28 C 1.46667 km/h
177 29-08-2020 08:00:00 12.3 C 10.34 g/m*3 12.3 C 3.88333 km/h
178 29-08-2020 09:00:00 14.73333 C 10.81 g/m*3 14.73 C 10.75 km/h
179 29-08-2020 10:00:00 16.60833 C 10.97 g/m*3 16.61 C 13.56667 km/h
180 29-08-2020 11:00:00 17.73333 C 11.09 g/m*3 17.73 C 15.16667 km/h
181 29-08-2020 12:00:00 18.84167 C 11.07 g/m*3 18.84 C 16.23333 km/h
182 29-08-2020 13:00:00 19.35 C 10.91 g/m*3 19.35 C 14.09167 km/h
183 29-08-2020 14:00:00 20.28333 C 10.69 g/m*3 20.28 C 15.16667 km/h
184 29-08-2020 15:00:00 21.31667 C 10.32 g/m*3 21.32 C 13.16667 km/h
185 29-08-2020 16:00:00 22.5 C 10.37 g/m*3 22.5 C 9.80833 km/h
186 29-08-2020 17:00:00 22.75 C 10.18 g/m*3 22.75 C 11.55833 km/h
187 29-08-2020 18:00:00 21.88333 C 10.72 g/m*3 21.88 C 2.15 km/h
188 29-08-2020 19:00:00 22.025 C 10.82 g/m*3 22.03 C 3.075 km/h
189 29-08-2020 20:00:00 19.88333 C 11.1 g/m*3 19.88 C 3.20833 km/h
190 29-08-2020 21:00:00 17.675 C 11.4 g/m*3 17.68 C 8.06667 km/h
191 29-08-2020 22:00:00 14.83333 C 11.01 g/m*3 14.83 C 7.25833 km/h
192 29-08-2020 23:00:00 13.36667 C 10.55 g/m*3 13.37 C 4 km/h
193 30-08-2020 00:00:00 13.025 C 10.5 g/m*3 13.03 C 0.66667 km/h
194 30-08-2020 01:00:00 12.325 C 10.13 g/m*3 12.33 C 0.53333 km/h
195 30-08-2020 02:00:00 11.58333 C 9.76 g/m*3 11.58 C 0 km/h
196 30-08-2020 03:00:00 11.06667 C 9.48 g/m*3 11.07 C 0 km/h
197 30-08-2020 04:00:00 10.675 C 9.32 g/m*3 10.68 C 0 km/h
198 30-08-2020 05:00:00 10.86667 C 9.5 g/m*3 10.87 C 0 km/h
199 30-08-2020 06:00:00 10.66667 C 9.39 g/m*3 10.67 C 0 km/h
200 30-08-2020 07:00:00 11.1 C 9.67 g/m*3 11.1 C 1.2 km/h
Sensor: Nr:Datum:Temp:Abs-Feuchte:Windchill:Wind:
Aussen-T/F 201 30-08-2020 08:00:00 11.94167 C 10.2 g/m*3 11.94 C 0.26667 km/h
202 30-08-2020 09:00:00 13.15833 C 11.01 g/m*3 13.16 C 0.66667 km/h
203 30-08-2020 10:00:00 14.78333 C 11.25 g/m*3 14.78 C 6.28333 km/h
204 30-08-2020 11:00:00 16.20833 C 11.42 g/m*3 16.21 C 6.55833 km/h
205 30-08-2020 12:00:00 17.03333 C 11.54 g/m*3 17.03 C 8.06667 km/h
206 30-08-2020 13:00:00 18.01667 C 11.63 g/m*3 18.02 C 6.03333 km/h
207 30-08-2020 14:00:00 18.85 C 11.5 g/m*3 18.85 C 5.75833 km/h
208 30-08-2020 15:00:00 19.89167 C 11.21 g/m*3 19.89 C 7.38333 km/h
209 30-08-2020 16:00:00 21.325 C 10.55 g/m*3 21.33 C 8.06667 km/h
210 30-08-2020 17:00:00 21.625 C 10.34 g/m*3 21.63 C 7.79167 km/h
211 30-08-2020 18:00:00 21.61667 C 9.92 g/m*3 21.62 C 5.5 km/h
212 30-08-2020 19:00:00 20.63333 C 10.39 g/m*3 20.63 C 2.15 km/h
213 30-08-2020 20:00:00 18.9 C 10.81 g/m*3 18.9 C 3.49167 km/h
214 30-08-2020 21:00:00 18.875 C 11.53 g/m*3 18.88 C 4.01667 km/h
215 30-08-2020 22:00:00 17.65833 C 11.53 g/m*3 17.66 C 0 km/h
216 30-08-2020 23:00:00 16.69167 C 11.34 g/m*3 16.69 C 0 km/h
217 31-08-2020 00:00:00 16.06667 C 11.23 g/m*3 16.07 C 0 km/h
218 31-08-2020 01:00:00 15.70833 C 11.37 g/m*3 15.71 C 0 km/h
219 31-08-2020 02:00:00 15.46667 C 11.4 g/m*3 15.47 C 0 km/h
220 31-08-2020 03:00:00 14.65833 C 10.85 g/m*3 14.66 C 0 km/h
221 31-08-2020 04:00:00 13.725 C 10.62 g/m*3 13.73 C 0 km/h
222 31-08-2020 05:00:00 13.15833 C 10.37 g/m*3 13.16 C 0.26667 km/h
223 31-08-2020 06:00:00 12.70833 C 10.28 g/m*3 12.71 C 0.4 km/h
224 31-08-2020 07:00:00 13.19167 C 10.71 g/m*3 13.19 C 0 km/h
225 31-08-2020 08:00:00 14.24167 C 11.26 g/m*3 14.24 C 0 km/h
Sensor: Nr:Datum:Temp:Abs-Feuchte:Windchill:Wind:
Aussen-T/F 226 31-08-2020 09:00:00 15.55 C 11.74 g/m*3 15.55 C 0.4 km/h
227 31-08-2020 10:00:00 16.6 C 12.04 g/m*3 16.6 C 4.69167 km/h
228 31-08-2020 11:00:00 17.70833 C 12.16 g/m*3 17.71 C 6.425 km/h
229 31-08-2020 12:00:00 18.95833 C 12.61 g/m*3 18.96 C 6.975 km/h
230 31-08-2020 13:00:00 19.55 C 12.68 g/m*3 19.55 C 6.69167 km/h
231 31-08-2020 14:00:00 18.38333 C 12.83 g/m*3 18.38 C 7.64167 km/h
232 31-08-2020 15:00:00 16.35 C 12.76 g/m*3 16.35 C 1.2 km/h
233 31-08-2020 16:00:00 16.74167 C 13.17 g/m*3 16.74 C 0 km/h
234 31-08-2020 17:00:00 16.4 C 12.91 g/m*3 16.4 C 0.4 km/h
235 31-08-2020 18:00:00 16.025 C 12.78 g/m*3 16.02 C 0.66667 km/h
236 31-08-2020 19:00:00 15.6 C 12.45 g/m*3 15.6 C 2.26667 km/h
237 31-08-2020 20:00:00 14.91667 C 12 g/m*3 14.92 C 2.13333 km/h
238 31-08-2020 21:00:00 14.56667 C 11.86 g/m*3 14.57 C 0.66667 km/h
239 31-08-2020 22:00:00 14.49167 C 11.84 g/m*3 14.49 C 0.4 km/h
240 31-08-2020 23:00:00 14.45833 C 11.91 g/m*3 14.46 C 0.53333 km/h
241 01-09-2020 00:00:00 14.15 C 11.69 g/m*3 14.15 C 0.26667 km/h
242 01-09-2020 01:00:00 14.06667 C 11.63 g/m*3 14.07 C 0 km/h
243 01-09-2020 02:00:00 13.66667 C 11.34 g/m*3 13.67 C 0.66667 km/h
244 01-09-2020 03:00:00 13.125 C 10.97 g/m*3 13.13 C 2.4 km/h
245 01-09-2020 04:00:00 12.94167 C 10.86 g/m*3 12.94 C 1.33333 km/h
246 01-09-2020 05:00:00 12.55833 C 10.63 g/m*3 12.56 C 2.66667 km/h
247 01-09-2020 06:00:00 12.14167 C 10.4 g/m*3 12.14 C 2.13333 km/h
248 01-09-2020 07:00:00 12.50833 C 10.67 g/m*3 12.51 C 0 km/h
249 01-09-2020 08:00:00 13.40833 C 11.28 g/m*3 13.41 C 0 km/h
250 01-09-2020 09:00:00 13.875 C 11.61 g/m*3 13.88 C 0 km/h
Sensor: Nr:Datum:Temp:Abs-Feuchte:Windchill:Wind:
Aussen-T/F 251 01-09-2020 10:00:00 14.26667 C 11.86 g/m*3 14.27 C 1.33333 km/h
252 01-09-2020 11:00:00 15.35833 C 12.14 g/m*3 15.36 C 2.13333 km/h
253 01-09-2020 12:00:00 17 C 12.36 g/m*3 17 C 1.6 km/h
254 01-09-2020 13:00:00 18.525 C 11.57 g/m*3 18.52 C 6.85833 km/h
255 01-09-2020 14:00:00 19.45833 C 10.77 g/m*3 19.46 C 8.475 km/h
256 01-09-2020 15:00:00 19.99167 C 10.44 g/m*3 19.99 C 4.83333 km/h
257 01-09-2020 16:00:00 18.60833 C 11.8 g/m*3 18.61 C 5.64167 km/h
258 01-09-2020 17:00:00 17.18333 C 11.62 g/m*3 17.18 C 4.43333 km/h
259 01-09-2020 18:00:00 16.375 C 11.76 g/m*3 16.38 C 0.8 km/h
260 01-09-2020 19:00:00 16.5 C 11.99 g/m*3 16.5 C 1.46667 km/h
261 01-09-2020 20:00:00 15.26667 C 11.15 g/m*3 15.27 C 2.53333 km/h
262 01-09-2020 21:00:00 14.15 C 10.8 g/m*3 14.15 C 2 km/h
263 01-09-2020 22:00:00 13.7 C 10.68 g/m*3 13.7 C 0.26667 km/h
264 01-09-2020 23:00:00 13.30833 C 10.61 g/m*3 13.31 C 0 km/h
265 02-09-2020 00:00:00 13.30833 C 10.72 g/m*3 13.31 C 0 km/h
266 02-09-2020 01:00:00 13.2 C 10.68 g/m*3 13.2 C 0.4 km/h
267 02-09-2020 02:00:00 12.90833 C 10.51 g/m*3 12.91 C 0.26667 km/h
268 02-09-2020 03:00:00 12.80833 C 10.53 g/m*3 12.81 C 0.4 km/h
269 02-09-2020 04:00:00 12.70833 C 10.47 g/m*3 12.71 C 0 km/h
270 02-09-2020 05:00:00 12.51667 C 10.41 g/m*3 12.52 C 0 km/h
271 02-09-2020 06:00:00 12.3 C 10.32 g/m*3 12.3 C 0.26667 km/h
272 02-09-2020 07:00:00 11.59167 C 9.87 g/m*3 11.59 C 0.93333 km/h
273 02-09-2020 08:00:00 11.49167 C 9.85 g/m*3 11.49 C 0.26667 km/h
274 02-09-2020 09:00:00 12.83333 C 10.7 g/m*3 12.83 C 0.26667 km/h
275 02-09-2020 10:00:00 14.63333 C 11.02 g/m*3 14.63 C 1.33333 km/h
Sensor: Nr:Datum:Temp:Abs-Feuchte:Windchill:Wind:
Aussen-T/F 276 02-09-2020 11:00:00 16.36667 C 11.09 g/m*3 16.37 C 1.6 km/h
277 02-09-2020 12:00:00 17.19167 C 11.38 g/m*3 17.19 C 1.33333 km/h
278 02-09-2020 13:00:00 18.68333 C 10.54 g/m*3 18.68 C 3.88333 km/h
279 02-09-2020 14:00:00 19.825 C 9.65 g/m*3 19.83 C 5.76667 km/h
280 02-09-2020 15:00:00 21.1 C 9.44 g/m*3 21.1 C 6.43333 km/h
281 02-09-2020 16:00:00 22.025 C 9.43 g/m*3 22.03 C 4.16667 km/h
282 02-09-2020 17:00:00 23.05 C 9.91 g/m*3 23.05 C 3.89167 km/h
283 02-09-2020 18:00:00 19.98333 C 11.31 g/m*3 19.98 C 0.8 km/h
284 02-09-2020 19:00:00 18.55833 C 10.64 g/m*3 18.56 C 3.75833 km/h
285 02-09-2020 20:00:00 16.25 C 9.57 g/m*3 16.25 C 7.39167 km/h
286 02-09-2020 21:00:00 14.8 C 9.7 g/m*3 14.8 C 0 km/h
287 02-09-2020 22:00:00 14.16667 C 10.04 g/m*3 14.17 C 0 km/h
288 02-09-2020 23:00:00 13.5 C 9.67 g/m*3 13.5 C 0 km/h
289 03-09-2020 00:00:00 12.325 C 9.24 g/m*3 12.33 C 0 km/h
290 03-09-2020 01:00:00 11.38333 C 9 g/m*3 11.38 C 0 km/h
291 03-09-2020 02:00:00 10.55833 C 8.75 g/m*3 10.56 C 0 km/h
292 03-09-2020 03:00:00 10.275 C 8.76 g/m*3 10.28 C 0 km/h
293 03-09-2020 04:00:00 10.05833 C 8.73 g/m*3 10.06 C 0 km/h
294 03-09-2020 05:00:00 9.84167 C 8.69 g/m*3 9.84 C 0.26667 km/h
295 03-09-2020 06:00:00 10.14167 C 8.91 g/m*3 10.14 C 0.13333 km/h
296 03-09-2020 07:00:00 10.35833 C 9.04 g/m*3 10.36 C 0.13333 km/h
297 03-09-2020 08:00:00 11.25833 C 9.47 g/m*3 11.26 C 0.8 km/h
298 03-09-2020 09:00:00 12.76667 C 9.91 g/m*3 12.77 C 1.33333 km/h
299 03-09-2020 10:00:00 14.60833 C 10.5 g/m*3 14.61 C 0.53333 km/h
300 03-09-2020 11:00:00 17.63333 C 11.13 g/m*3 17.63 C 6.85833 km/h
Sensor: Nr:Datum:Temp:Abs-Feuchte:Windchill:Wind:
Aussen-T/F 301 03-09-2020 12:00:00 19.33333 C 11.12 g/m*3 19.33 C 8.475 km/h
302 03-09-2020 13:00:00 19.08333 C 11.57 g/m*3 19.08 C 7.39167 km/h
303 03-09-2020 14:00:00 17.73333 C 11.89 g/m*3 17.73 C 4.3 km/h
304 03-09-2020 15:00:00 17.99167 C 12.31 g/m*3 17.99 C 5.225 km/h
305 03-09-2020 16:00:00 16.2 C 12.32 g/m*3 16.2 C 3.475 km/h
306 03-09-2020 17:00:00 15.85833 C 12.52 g/m*3 15.86 C 1.2 km/h
307 03-09-2020 18:00:00 16.11667 C 12.82 g/m*3 16.12 C 1.33333 km/h
308 03-09-2020 19:00:00 15.95 C 12.75 g/m*3 15.95 C 2.53333 km/h
309 03-09-2020 20:00:00 15.5 C 12.43 g/m*3 15.5 C 1.73333 km/h
310 03-09-2020 21:00:00 15.28333 C 12.34 g/m*3 15.28 C 2 km/h
311 03-09-2020 22:00:00 15.63333 C 12.57 g/m*3 15.63 C 0.66667 km/h
312 03-09-2020 23:00:00 15.75833 C 12.62 g/m*3 15.76 C 0.13333 km/h
313 04-09-2020 00:00:00 15.825 C 12.67 g/m*3 15.83 C 0 km/h
314 04-09-2020 01:00:00 15.78333 C 12.64 g/m*3 15.78 C 0.4 km/h
315 04-09-2020 02:00:00 15.84167 C 12.54 g/m*3 15.84 C 1.06667 km/h
316 04-09-2020 03:00:00 16.46667 C 12.85 g/m*3 16.47 C 0.8 km/h
317 04-09-2020 04:00:00 16.7 C 12.81 g/m*3 16.7 C 0 km/h
318 04-09-2020 05:00:00 16.7 C 12.85 g/m*3 16.7 C 0 km/h
319 04-09-2020 06:00:00 16.58333 C 12.7 g/m*3 16.58 C 1.73333 km/h
320 04-09-2020 07:00:00 16.78333 C 12.7 g/m*3 16.78 C 0.8 km/h
321 04-09-2020 08:00:00 17.175 C 13 g/m*3 17.18 C 0.4 km/h
322 04-09-2020 09:00:00 18.35 C 13.41 g/m*3 18.35 C 1.2 km/h
323 04-09-2020 10:00:00 19.25833 C 13.68 g/m*3 19.26 C 0.13333 km/h
324 04-09-2020 11:00:00 20.375 C 13.81 g/m*3 20.38 C 1.86667 km/h
325 04-09-2020 12:00:00 22.45 C 14.06 g/m*3 22.45 C 10.49167 km/h
Sensor: Nr:Datum:Temp:Abs-Feuchte:Windchill:Wind:
Aussen-T/F 326 04-09-2020 13:00:00 24.5 C 14.62 g/m*3 24.5 C 14.23333 km/h
327 04-09-2020 14:00:00 25.675 C 14.66 g/m*3 25.68 C 10.20833 km/h
328 04-09-2020 15:00:00 25.71667 C 14.64 g/m*3 25.72 C 4.94167 km/h
329 04-09-2020 16:00:00 26.34167 C 14.62 g/m*3 26.34 C 2.93333 km/h
330 04-09-2020 17:00:00 28.15833 C 15.38 g/m*3 28.16 C 2.40833 km/h
331 04-09-2020 18:00:00 25.54167 C 15.78 g/m*3 25.54 C 7.80833 km/h
332 04-09-2020 19:00:00 23.40833 C 15.83 g/m*3 23.41 C 4.4 km/h
333 04-09-2020 20:00:00 21.325 C 15.4 g/m*3 21.33 C 1.475 km/h
334 04-09-2020 21:00:00 20.075 C 15.14 g/m*3 20.08 C 2.13333 km/h
335 04-09-2020 22:00:00 19.50833 C 14.64 g/m*3 19.51 C 0.53333 km/h
336 04-09-2020 23:00:00 18.725 C 14.47 g/m*3 18.73 C 0 km/h
337 05-09-2020 00:00:00 17.79167 C 13.8 g/m*3 17.79 C 2 km/h
338 05-09-2020 01:00:00 16.61667 C 13.06 g/m*3 16.62 C 0 km/h
339 05-09-2020 02:00:00 15.875 C 12.68 g/m*3 15.88 C 0 km/h
340 05-09-2020 03:00:00 16.04167 C 12.98 g/m*3 16.04 C 0 km/h
341 05-09-2020 04:00:00 16.50833 C 13.46 g/m*3 16.51 C 0.4 km/h
342 05-09-2020 05:00:00 16.7 C 13.58 g/m*3 16.7 C 0 km/h
343 05-09-2020 06:00:00 16.25833 C 12.62 g/m*3 16.26 C 6.04167 km/h
344 05-09-2020 07:00:00 15.81667 C 11.42 g/m*3 15.82 C 4.00833 km/h
345 05-09-2020 08:00:00 15.50833 C 11.31 g/m*3 15.51 C 2.26667 km/h
346 05-09-2020 09:00:00 15.875 C 11.35 g/m*3 15.88 C 3.475 km/h
347 05-09-2020 10:00:00 16.64167 C 11.42 g/m*3 16.64 C 6.84167 km/h
348 05-09-2020 11:00:00 17.79167 C 11.57 g/m*3 17.79 C 7.93333 km/h
349 05-09-2020 12:00:00 18.36667 C 11.37 g/m*3 18.37 C 11.15 km/h
350 05-09-2020 13:00:00 18.64167 C 11.31 g/m*3 18.64 C 11.025 km/h
Sensor: Nr:Datum:Temp:Abs-Feuchte:Windchill:Wind:
Aussen-T/F 351 05-09-2020 14:00:00 18.825 C 11.17 g/m*3 18.83 C 12.89167 km/h
352 05-09-2020 15:00:00 17.76667 C 11.07 g/m*3 17.77 C 11.3 km/h
353 05-09-2020 16:00:00 18.68333 C 10.68 g/m*3 18.68 C 9.69167 km/h
354 05-09-2020 17:00:00 19.44167 C 10.05 g/m*3 19.44 C 9.425 km/h
355 05-09-2020 18:00:00 20.2 C 9.08 g/m*3 20.2 C 7.91667 km/h
356 05-09-2020 19:00:00 18.6 C 9.23 g/m*3 18.6 C 1.74167 km/h
357 05-09-2020 20:00:00 16.40833 C 9.19 g/m*3 16.41 C 3.60833 km/h
358 05-09-2020 21:00:00 14.35833 C 9.35 g/m*3 14.36 C 3.06667 km/h
359 05-09-2020 22:00:00 13.725 C 9.27 g/m*3 13.73 C 3.6 km/h
360 05-09-2020 23:00:00 13.08333 C 9.22 g/m*3 13.08 C 4.53333 km/h
361 06-09-2020 00:00:00 12.55 C 9.19 g/m*3 12.55 C 2.8 km/h
362 06-09-2020 01:00:00 11.725 C 9.08 g/m*3 11.73 C 0 km/h
363 06-09-2020 02:00:00 10.51667 C 8.62 g/m*3 10.52 C 0.13333 km/h
364 06-09-2020 03:00:00 9.65 C 8.34 g/m*3 9.65 C 0.26667 km/h
365 06-09-2020 04:00:00 9.06667 C 8.17 g/m*3 9.07 C 0.13333 km/h
366 06-09-2020 05:00:00 8.60833 C 8.03 g/m*3 8.61 C 0.4 km/h
367 06-09-2020 06:00:00 8.175 C 7.85 g/m*3 8.18 C 0 km/h
368 06-09-2020 07:00:00 8.03333 C 7.85 g/m*3 8.03 C 0.13333 km/h
369 06-09-2020 08:00:00 8.125 C 7.92 g/m*3 8.13 C 0.53333 km/h
370 06-09-2020 09:00:00 8.96667 C 8.42 g/m*3 8.97 C 1.33333 km/h
371 06-09-2020 10:00:00 10.61667 C 9.31 g/m*3 10.62 C 0.4 km/h
372 06-09-2020 11:00:00 13.84167 C 9.64 g/m*3 13.84 C 0.53333 km/h
373 06-09-2020 12:00:00 16.43333 C 9.18 g/m*3 16.43 C 4.825 km/h
374 06-09-2020 13:00:00 17.45 C 8.83 g/m*3 17.45 C 4.03333 km/h
375 06-09-2020 14:00:00 18.61667 C 8.8 g/m*3 18.62 C 4.55 km/h
Sensor: Nr:Datum:Temp:Abs-Feuchte:Windchill:Wind:
Aussen-T/F 376 06-09-2020 15:00:00 19.04167 C 8.6 g/m*3 19.04 C 6.30833 km/h
377 06-09-2020 16:00:00 18.5 C 8.43 g/m*3 18.5 C 5.50833 km/h
378 06-09-2020 17:00:00 18.56667 C 8.68 g/m*3 18.57 C 7.53333 km/h
379 06-09-2020 18:00:00 19.11667 C 8.76 g/m*3 19.12 C 3.34167 km/h
380 06-09-2020 19:00:00 18.65 C 8.87 g/m*3 18.65 C 2.4 km/h
381 06-09-2020 20:00:00 14.71667 C 8.58 g/m*3 14.72 C 0 km/h
382 06-09-2020 21:00:00 12.83333 C 8.62 g/m*3 12.83 C 0 km/h
383 06-09-2020 22:00:00 12.35 C 8.89 g/m*3 12.35 C 0 km/h
384 06-09-2020 23:00:00 12.575 C 9.02 g/m*3 12.58 C 0.26667 km/h
385 07-09-2020 00:00:00 12.59167 C 9.03 g/m*3 12.59 C 0.13333 km/h
386 07-09-2020 01:00:00 12.19167 C 8.95 g/m*3 12.19 C 0 km/h
387 07-09-2020 02:00:00 10.725 C 8.44 g/m*3 10.73 C 0.13333 km/h
388 07-09-2020 03:00:00 9.475 C 8.1 g/m*3 9.48 C 0.13333 km/h
389 07-09-2020 04:00:00 8.80833 C 7.93 g/m*3 8.81 C 0.13333 km/h
390 07-09-2020 05:00:00 8.24167 C 7.76 g/m*3 8.24 C 0.4 km/h
391 07-09-2020 06:00:00 7.81667 C 7.62 g/m*3 7.82 C 0.53333 km/h
392 07-09-2020 07:00:00 7.6 C 7.57 g/m*3 7.6 C 0 km/h
393 07-09-2020 08:00:00 7.98333 C 7.85 g/m*3 7.98 C 0.26667 km/h
394 07-09-2020 09:00:00 8.95833 C 8.39 g/m*3 8.96 C 0.4 km/h
395 07-09-2020 10:00:00 10.56667 C 9.29 g/m*3 10.57 C 0.93333 km/h
396 07-09-2020 11:00:00 13.66667 C 10.23 g/m*3 13.67 C 1.73333 km/h
397 07-09-2020 12:00:00 16.475 C 10 g/m*3 16.48 C 3.34167 km/h
398 07-09-2020 13:00:00 18.13333 C 9.44 g/m*3 18.13 C 3.875 km/h
399 07-09-2020 14:00:00 19.43333 C 8.85 g/m*3 19.43 C 6.71667 km/h
400 07-09-2020 15:00:00 20.7 C 8.84 g/m*3 20.7 C 5.475 km/h
Sensor: Nr:Datum:Temp:Abs-Feuchte:Windchill:Wind:
Aussen-T/F 401 07-09-2020 16:00:00 21.69167 C 8.87 g/m*3 21.69 C 5.35 km/h
402 07-09-2020 17:00:00 22.85 C 9.02 g/m*3 22.85 C 3.74167 km/h
403 07-09-2020 18:00:00 22.425 C 10.01 g/m*3 22.43 C 0.66667 km/h
404 07-09-2020 19:00:00 20.85 C 10.05 g/m*3 20.85 C 2.53333 km/h
405 07-09-2020 20:00:00 16.58333 C 9.18 g/m*3 16.58 C 3.73333 km/h
406 07-09-2020 21:00:00 14.21667 C 9.18 g/m*3 14.22 C 0.53333 km/h
407 07-09-2020 22:00:00 12.7 C 8.95 g/m*3 12.7 C 0 km/h
408 07-09-2020 23:00:00 11.675 C 8.68 g/m*3 11.68 C 0 km/h
409 08-09-2020 00:00:00 10.875 C 8.49 g/m*3 10.88 C 0 km/h
410 08-09-2020 01:00:00 10.425 C 8.43 g/m*3 10.43 C 0.13333 km/h
411 08-09-2020 02:00:00 9.775 C 8.24 g/m*3 9.78 C 0 km/h
412 08-09-2020 03:00:00 9.25 C 8.1 g/m*3 9.25 C 0 km/h
413 08-09-2020 04:00:00 8.725 C 7.93 g/m*3 8.73 C 0 km/h
414 08-09-2020 05:00:00 8.41667 C 7.86 g/m*3 8.42 C 0 km/h
415 08-09-2020 06:00:00 8.05833 C 7.72 g/m*3 8.06 C 0 km/h
416 08-09-2020 07:00:00 8.125 C 7.83 g/m*3 8.13 C 0 km/h
417 08-09-2020 08:00:00 8.76667 C 8.17 g/m*3 8.77 C 0 km/h
418 08-09-2020 09:00:00 9.725 C 8.68 g/m*3 9.73 C 0.8 km/h
419 08-09-2020 10:00:00 12.20833 C 9.76 g/m*3 12.21 C 2.53333 km/h
420 08-09-2020 11:00:00 17.40833 C 10.33 g/m*3 17.41 C 6.99167 km/h
421 08-09-2020 12:00:00 20.70833 C 10.33 g/m*3 20.71 C 10.89167 km/h
422 08-09-2020 13:00:00 22.10833 C 10.22 g/m*3 22.11 C 10.48333 km/h
423 08-09-2020 14:00:00 23.06667 C 10.26 g/m*3 23.07 C 9.55833 km/h
424 08-09-2020 15:00:00 24.23333 C 10.27 g/m*3 24.23 C 10.74167 km/h
425 08-09-2020 16:00:00 25.63333 C 10.38 g/m*3 25.63 C 9.14167 km/h
Sensor: Nr:Datum:Temp:Abs-Feuchte:Windchill:Wind:
Aussen-T/F 426 08-09-2020 17:00:00 27.58333 C 10.63 g/m*3 27.58 C 9 km/h
427 08-09-2020 18:00:00 27.83333 C 11.18 g/m*3 27.83 C 6.43333 km/h
428 08-09-2020 19:00:00 25.13333 C 12.47 g/m*3 25.13 C 4.95 km/h
429 08-09-2020 20:00:00 20.625 C 12.44 g/m*3 20.63 C 1.46667 km/h
430 08-09-2020 21:00:00 18.66667 C 12.26 g/m*3 18.67 C 2.26667 km/h
431 08-09-2020 22:00:00 17.56667 C 12.04 g/m*3 17.57 C 2.66667 km/h
432 08-09-2020 23:00:00 16.24167 C 11.73 g/m*3 16.24 C 0 km/h
433 09-09-2020 00:00:00 15.15833 C 11.41 g/m*3 15.16 C 0 km/h
434 09-09-2020 01:00:00 14.46667 C 11.23 g/m*3 14.47 C 0 km/h
435 09-09-2020 02:00:00 13.90833 C 10.98 g/m*3 13.91 C 0 km/h
436 09-09-2020 03:00:00 13.35 C 10.76 g/m*3 13.35 C 0 km/h
437 09-09-2020 04:00:00 12.86667 C 10.49 g/m*3 12.87 C 0 km/h
438 09-09-2020 05:00:00 12.46667 C 10.32 g/m*3 12.47 C 0 km/h
439 09-09-2020 06:00:00 12.18333 C 10.2 g/m*3 12.18 C 0 km/h
440 09-09-2020 07:00:00 12.01667 C 10.14 g/m*3 12.02 C 0.13333 km/h
441 09-09-2020 08:00:00 12.41667 C 10.47 g/m*3 12.42 C 1.2 km/h
442 09-09-2020 09:00:00 13.48333 C 11.25 g/m*3 13.48 C 1.6 km/h
443 09-09-2020 10:00:00 16.26667 C 12.88 g/m*3 16.27 C 0.13333 km/h
444 09-09-2020 11:00:00 20.69167 C 13.52 g/m*3 20.69 C 0.53333 km/h
445 09-09-2020 12:00:00 22.36667 C 13.68 g/m*3 22.37 C 3.74167 km/h
446 09-09-2020 13:00:00 22.85 C 13.87 g/m*3 22.85 C 5.225 km/h
447 09-09-2020 14:00:00 23.69167 C 13.99 g/m*3 23.69 C 7.66667 km/h
448 09-09-2020 15:00:00 24.1 C 14.19 g/m*3 24.1 C 7.38333 km/h
449 09-09-2020 16:00:00 23.925 C 14.06 g/m*3 23.93 C 4.55 km/h
450 09-09-2020 17:00:00 24.525 C 14.16 g/m*3 24.53 C 4.54167 km/h
Sensor: Nr:Datum:Temp:Abs-Feuchte:Windchill:Wind:
Aussen-T/F 451 09-09-2020 18:00:00 24.46667 C 14.72 g/m*3 24.47 C 1.20833 km/h
452 09-09-2020 19:00:00 22.70833 C 14.54 g/m*3 22.71 C 0 km/h
453 09-09-2020 20:00:00 21.025 C 14.08 g/m*3 21.03 C 0.13333 km/h
454 09-09-2020 21:00:00 19.75 C 13.58 g/m*3 19.75 C 4.8 km/h
455 09-09-2020 22:00:00 19.65833 C 13.75 g/m*3 19.66 C 1.2 km/h
456 09-09-2020 23:00:00 20.05833 C 13.73 g/m*3 20.06 C 4.00833 km/h
457 10-09-2020 00:00:00 20.18333 C 14.59 g/m*3 20.18 C 10.89167 km/h
458 10-09-2020 01:00:00 18.69167 C 14.51 g/m*3 18.69 C 8.6 km/h
459 10-09-2020 02:00:00 17.675 C 13.63 g/m*3 17.68 C 4.55833 km/h
460 10-09-2020 03:00:00 17.175 C 13.05 g/m*3 17.18 C 2.00833 km/h
461 10-09-2020 04:00:00 16.85833 C 12.55 g/m*3 16.86 C 1.06667 km/h
462 10-09-2020 05:00:00 16.56667 C 11.82 g/m*3 16.57 C 2.13333 km/h
463 10-09-2020 06:00:00 16.08333 C 11.56 g/m*3 16.08 C 3.075 km/h
464 10-09-2020 07:00:00 15.475 C 11.38 g/m*3 15.48 C 5.1 km/h
465 10-09-2020 08:00:00 15.35833 C 11.29 g/m*3 15.36 C 2.4 km/h
466 10-09-2020 09:00:00 15.56667 C 11.39 g/m*3 15.57 C 3.875 km/h
467 10-09-2020 10:00:00 15.93333 C 10.87 g/m*3 15.93 C 6.71667 km/h
468 10-09-2020 11:00:00 16.7 C 10.67 g/m*3 16.7 C 5.36667 km/h
469 10-09-2020 12:00:00 17.83333 C 10.28 g/m*3 17.83 C 7.24167 km/h
470 10-09-2020 13:00:00 18.54167 C 9.52 g/m*3 18.54 C 5.9 km/h
471 10-09-2020 14:00:00 19.66667 C 9.96 g/m*3 19.67 C 5.5 km/h
472 10-09-2020 15:00:00 20.84167 C 10.16 g/m*3 20.84 C 7.11667 km/h
473 10-09-2020 16:00:00 22.06667 C 10.31 g/m*3 22.07 C 7.65833 km/h
474 10-09-2020 17:00:00 22.73333 C 10.27 g/m*3 22.73 C 8.61667 km/h
475 10-09-2020 18:00:00 22.45 C 10.24 g/m*3 22.45 C 5.225 km/h
Sensor: Nr:Datum:Temp:Abs-Feuchte:Windchill:Wind:
Aussen-T/F 476 10-09-2020 19:00:00 20.80833 C 9.8 g/m*3 20.81 C 2 km/h
477 10-09-2020 20:00:00 17.675 C 9.25 g/m*3 17.68 C 1.33333 km/h
478 10-09-2020 21:00:00 15.60833 C 8.98 g/m*3 15.61 C 3.2 km/h
479 10-09-2020 22:00:00 14.325 C 9.01 g/m*3 14.33 C 0.4 km/h
480 10-09-2020 23:00:00 12.7 C 8.75 g/m*3 12.7 C 0 km/h
481 11-09-2020 00:00:00 12.08333 C 8.78 g/m*3 12.08 C 0 km/h
482 11-09-2020 01:00:00 11.95 C 8.78 g/m*3 11.95 C 0 km/h
483 11-09-2020 02:00:00 11.05833 C 8.52 g/m*3 11.06 C 0 km/h
484 11-09-2020 03:00:00 10.23333 C 8.35 g/m*3 10.23 C 0 km/h
485 11-09-2020 04:00:00 9.59167 C 8.23 g/m*3 9.59 C 0 km/h
486 11-09-2020 05:00:00 8.95833 C 8.03 g/m*3 8.96 C 0 km/h
487 11-09-2020 06:00:00 8.43333 C 7.87 g/m*3 8.43 C 0 km/h
488 11-09-2020 07:00:00 8.26667 C 7.88 g/m*3 8.27 C 0 km/h
489 11-09-2020 08:00:00 8.625 C 8.13 g/m*3 8.63 C 0 km/h
490 11-09-2020 09:00:00 9.45833 C 8.62 g/m*3 9.46 C 0 km/h
491 11-09-2020 10:00:00 11.20833 C 9.55 g/m*3 11.21 C 0 km/h
492 11-09-2020 11:00:00 14.025 C 10.22 g/m*3 14.03 C 0.26667 km/h
493 11-09-2020 12:00:00 17.6 C 9.97 g/m*3 17.6 C 2.93333 km/h
494 11-09-2020 13:00:00 19.86667 C 9.7 g/m*3 19.87 C 5.35833 km/h
495 11-09-2020 14:00:00 21.15 C 10.06 g/m*3 21.15 C 5.09167 km/h
496 11-09-2020 15:00:00 22.44167 C 10.4 g/m*3 22.44 C 6.45833 km/h
497 11-09-2020 16:00:00 23.58333 C 10.59 g/m*3 23.58 C 8.6 km/h
498 11-09-2020 17:00:00 24.6 C 10.8 g/m*3 24.6 C 6.43333 km/h
499 11-09-2020 18:00:00 24.36667 C 11.27 g/m*3 24.37 C 3.075 km/h
500 11-09-2020 19:00:00 21.425 C 11.31 g/m*3 21.43 C 2.80833 km/h
Sensor: Nr:Datum:Temp:Abs-Feuchte:Windchill:Wind:
Aussen-T/F 501 11-09-2020 20:00:00 18.3 C 10.65 g/m*3 18.3 C 4.13333 km/h
502 11-09-2020 21:00:00 16.35833 C 10.47 g/m*3 16.36 C 0.53333 km/h
503 11-09-2020 22:00:00 15.04167 C 10.27 g/m*3 15.04 C 0 km/h
504 11-09-2020 23:00:00 13.93333 C 10.07 g/m*3 13.93 C 0 km/h
505 12-09-2020 00:00:00 13.05 C 9.85 g/m*3 13.05 C 0 km/h
506 12-09-2020 01:00:00 12.525 C 9.71 g/m*3 12.53 C 0 km/h
507 12-09-2020 02:00:00 11.975 C 9.53 g/m*3 11.98 C 0 km/h
508 12-09-2020 03:00:00 11.475 C 9.35 g/m*3 11.48 C 0 km/h
509 12-09-2020 04:00:00 10.975 C 9.17 g/m*3 10.98 C 0 km/h
510 12-09-2020 05:00:00 10.525 C 9.03 g/m*3 10.53 C 0 km/h
511 12-09-2020 06:00:00 10.225 C 8.9 g/m*3 10.23 C 0 km/h
512 12-09-2020 07:00:00 10.16667 C 8.94 g/m*3 10.17 C 0 km/h
513 12-09-2020 08:00:00 10.9 C 9.46 g/m*3 10.9 C 0 km/h
514 12-09-2020 09:00:00 12.625 C 10.36 g/m*3 12.63 C 0.26667 km/h
515 12-09-2020 10:00:00 14.675 C 10.94 g/m*3 14.68 C 0.13333 km/h
516 12-09-2020 11:00:00 17.25 C 11.71 g/m*3 17.25 C 0 km/h
517 12-09-2020 12:00:00 20.15833 C 12.27 g/m*3 20.16 C 2.80833 km/h
518 12-09-2020 13:00:00 24.425 C 11.76 g/m*3 24.43 C 11.15833 km/h
519 12-09-2020 14:00:00 24.90833 C 12.29 g/m*3 24.91 C 6.85 km/h
520 12-09-2020 15:00:00 25.61667 C 12.43 g/m*3 25.62 C 8.6 km/h
521 12-09-2020 16:00:00 25.75 C 12.36 g/m*3 25.75 C 10.475 km/h
522 12-09-2020 17:00:00 26.14167 C 12.76 g/m*3 26.14 C 10.76667 km/h
523 12-09-2020 18:00:00 25.28333 C 12.84 g/m*3 25.28 C 7.23333 km/h
524 12-09-2020 19:00:00 23.03333 C 12.66 g/m*3 23.03 C 1.46667 km/h
525 12-09-2020 20:00:00 19.79167 C 11.85 g/m*3 19.79 C 1.6 km/h
Sensor: Nr:Datum:Temp:Abs-Feuchte:Windchill:Wind:
Aussen-T/F 526 12-09-2020 21:00:00 18.49167 C 10.94 g/m*3 18.49 C 1.20833 km/h
527 12-09-2020 22:00:00 17.16667 C 10.49 g/m*3 17.17 C 0.66667 km/h
528 12-09-2020 23:00:00 15.81667 C 10.29 g/m*3 15.82 C 1.06667 km/h
529 13-09-2020 00:00:00 14.36667 C 9.98 g/m*3 14.37 C 0.26667 km/h
530 13-09-2020 01:00:00 13.05 C 9.73 g/m*3 13.05 C 0.13333 km/h
531 13-09-2020 02:00:00 12.375 C 9.55 g/m*3 12.38 C 0.26667 km/h
532 13-09-2020 03:00:00 11.73333 C 9.42 g/m*3 11.73 C 0 km/h
533 13-09-2020 04:00:00 11.35 C 9.32 g/m*3 11.35 C 0 km/h
534 13-09-2020 05:00:00 10.84167 C 9.12 g/m*3 10.84 C 0 km/h
535 13-09-2020 06:00:00 10.35 C 8.92 g/m*3 10.35 C 0 km/h
536 13-09-2020 07:00:00 10.15 C 8.91 g/m*3 10.15 C 0 km/h
537 13-09-2020 08:00:00 10.66667 C 9.31 g/m*3 10.67 C 0.26667 km/h
538 13-09-2020 09:00:00 11.60833 C 9.88 g/m*3 11.61 C 0 km/h
539 13-09-2020 10:00:00 13.1 C 10.67 g/m*3 13.1 C 0 km/h
540 13-09-2020 11:00:00 15.53333 C 11.27 g/m*3 15.53 C 0.4 km/h
541 13-09-2020 12:00:00 19.05833 C 11.98 g/m*3 19.06 C 2.26667 km/h
542 13-09-2020 13:00:00 21.825 C 11.99 g/m*3 21.83 C 0.53333 km/h
543 13-09-2020 14:00:00 23.725 C 11.78 g/m*3 23.73 C 2.81667 km/h
544 13-09-2020 15:00:00 25.85833 C 11.17 g/m*3 25.86 C 4.14167 km/h
545 13-09-2020 16:00:00 26.83333 C 11.13 g/m*3 26.83 C 5.1 km/h
546 13-09-2020 17:00:00 28.81667 C 11.8 g/m*3 28.82 C 3.86667 km/h
547 13-09-2020 18:00:00 27.46667 C 13.01 g/m*3 27.47 C 2.66667 km/h
548 13-09-2020 19:00:00 23.69167 C 11.87 g/m*3 23.69 C 3.2 km/h
549 13-09-2020 20:00:00 20.53333 C 11.32 g/m*3 20.53 C 1.86667 km/h
550 13-09-2020 21:00:00 18.25 C 10.95 g/m*3 18.25 C 0 km/h
Sensor: Nr:Datum:Temp:Abs-Feuchte:Windchill:Wind:
Aussen-T/F 551 13-09-2020 22:00:00 16.55833 C 10.63 g/m*3 16.56 C 0 km/h
552 13-09-2020 23:00:00 15.175 C 10.44 g/m*3 15.18 C 0 km/h
553 14-09-2020 00:00:00 14.325 C 10.28 g/m*3 14.33 C 0 km/h
554 14-09-2020 01:00:00 13.59167 C 10.02 g/m*3 13.59 C 0 km/h
555 14-09-2020 02:00:00 12.875 C 9.83 g/m*3 12.88 C 0 km/h
556 14-09-2020 03:00:00 12.33333 C 9.69 g/m*3 12.33 C 0 km/h
557 14-09-2020 04:00:00 11.64167 C 9.45 g/m*3 11.64 C 0 km/h
558 14-09-2020 05:00:00 11.25833 C 9.33 g/m*3 11.26 C 0 km/h
559 14-09-2020 06:00:00 10.83333 C 9.15 g/m*3 10.83 C 0 km/h
560 14-09-2020 07:00:00 10.725 C 9.19 g/m*3 10.73 C 0 km/h
561 14-09-2020 08:00:00 11.15833 C 9.54 g/m*3 11.16 C 0 km/h
562 14-09-2020 09:00:00 12.125 C 10.2 g/m*3 12.13 C 0 km/h
563 14-09-2020 10:00:00 13.875 C 11.28 g/m*3 13.88 C 0 km/h
564 14-09-2020 11:00:00 17.325 C 12.59 g/m*3 17.33 C 0 km/h
565 14-09-2020 12:00:00 21.75833 C 13.7 g/m*3 21.76 C 1.075 km/h
566 14-09-2020 13:00:00 25.95833 C 13.95 g/m*3 25.96 C 3.33333 km/h
567 14-09-2020 14:00:00 28.11667 C 13.34 g/m*3 28.12 C 4.01667 km/h
568 14-09-2020 15:00:00 29.625 C 11.66 g/m*3 29.63 C 7.11667 km/h
569 14-09-2020 16:00:00 29.875 C 12.2 g/m*3 29.88 C 4.675 km/h
570 14-09-2020 17:00:00 29.775 C 14.18 g/m*3 29.78 C 1.46667 km/h
571 14-09-2020 18:00:00 30.61667 C 13.35 g/m*3 30.62 C 3.06667 km/h
572 14-09-2020 19:00:00 25.86667 C 11.8 g/m*3 25.87 C 7.39167 km/h
573 14-09-2020 20:00:00 22.39167 C 11.7 g/m*3 22.39 C 2.54167 km/h
574 14-09-2020 21:00:00 19.975 C 12.17 g/m*3 19.98 C 0 km/h
575 14-09-2020 22:00:00 18.525 C 11.98 g/m*3 18.52 C 0 km/h
Sensor: Nr:Datum:Temp:Abs-Feuchte:Windchill:Wind:
Aussen-T/F 576 14-09-2020 23:00:00 17.08333 C 11.72 g/m*3 17.08 C 0 km/h
577 15-09-2020 00:00:00 16.23333 C 11.47 g/m*3 16.23 C 0 km/h
578 15-09-2020 01:00:00 15.45833 C 11.28 g/m*3 15.46 C 0 km/h
579 15-09-2020 02:00:00 14.9 C 11.08 g/m*3 14.9 C 0 km/h
580 15-09-2020 03:00:00 14.15833 C 10.84 g/m*3 14.16 C 0 km/h
581 15-09-2020 04:00:00 13.54167 C 10.59 g/m*3 13.54 C 0 km/h
582 15-09-2020 05:00:00 13.10833 C 10.5 g/m*3 13.11 C 0 km/h
583 15-09-2020 06:00:00 12.50833 C 10.19 g/m*3 12.51 C 0 km/h
584 15-09-2020 07:00:00 12.2 C 10.11 g/m*3 12.2 C 0 km/h
585 15-09-2020 08:00:00 12.53333 C 10.43 g/m*3 12.53 C 0 km/h
586 15-09-2020 09:00:00 13.69167 C 11.29 g/m*3 13.69 C 0 km/h
587 15-09-2020 10:00:00 15.39167 C 12.46 g/m*3 15.39 C 0 km/h
588 15-09-2020 11:00:00 18.00833 C 13.23 g/m*3 18.01 C 0 km/h
589 15-09-2020 12:00:00 21.76667 C 14.25 g/m*3 21.77 C 0 km/h
590 15-09-2020 13:00:00 25.79167 C 13.96 g/m*3 25.79 C 1.6 km/h
591 15-09-2020 14:00:00 29.24167 C 12.37 g/m*3 29.24 C 4.13333 km/h
592 15-09-2020 15:00:00 30.65833 C 10.87 g/m*3 30.66 C 5.225 km/h
593 15-09-2020 16:00:00 31.5 C 9.92 g/m*3 31.5 C 4.93333 km/h
594 15-09-2020 17:00:00 33.19167 C 10.43 g/m*3 33.19 C 4.53333 km/h
595 15-09-2020 18:00:00 31.875 C 12.58 g/m*3 31.88 C 3.73333 km/h
596 15-09-2020 19:00:00 27.65833 C 11.92 g/m*3 27.66 C 3.33333 km/h
597 15-09-2020 20:00:00 24.3 C 11.82 g/m*3 24.3 C 4.4 km/h
598 15-09-2020 21:00:00 22.05833 C 12.2 g/m*3 22.06 C 0.13333 km/h
599 15-09-2020 22:00:00 20.48333 C 12.41 g/m*3 20.48 C 0 km/h
600 15-09-2020 23:00:00 18.90833 C 12.33 g/m*3 18.91 C 0 km/h
Sensor: Nr:Datum:Temp:Abs-Feuchte:Windchill:Wind:
Aussen-T/F 601 16-09-2020 00:00:00 18.13333 C 12.04 g/m*3 18.13 C 0 km/h
602 16-09-2020 01:00:00 17.29167 C 11.8 g/m*3 17.29 C 0 km/h
603 16-09-2020 02:00:00 16.225 C 11.64 g/m*3 16.23 C 0 km/h
604 16-09-2020 03:00:00 15.49167 C 11.43 g/m*3 15.49 C 0 km/h
605 16-09-2020 04:00:00 14.95 C 11.31 g/m*3 14.95 C 0 km/h
606 16-09-2020 05:00:00 14.5 C 11.19 g/m*3 14.5 C 0.4 km/h
607 16-09-2020 06:00:00 14.25833 C 11.14 g/m*3 14.26 C 0 km/h
608 16-09-2020 07:00:00 14.1 C 11.15 g/m*3 14.1 C 0.26667 km/h
609 16-09-2020 08:00:00 14.51667 C 11.45 g/m*3 14.52 C 0 km/h
610 16-09-2020 09:00:00 15.54167 C 12.13 g/m*3 15.54 C 0 km/h
611 16-09-2020 10:00:00 18.19167 C 13.13 g/m*3 18.19 C 0.26667 km/h
612 16-09-2020 11:00:00 20.775 C 13.49 g/m*3 20.78 C 0.13333 km/h
613 16-09-2020 12:00:00 23.24167 C 14 g/m*3 23.24 C 0 km/h
614 16-09-2020 13:00:00 24.46667 C 14.33 g/m*3 24.47 C 0.13333 km/h
615 16-09-2020 14:00:00 26.5 C 14.56 g/m*3 26.5 C 1.6 km/h
616 16-09-2020 15:00:00 28.38333 C 14.58 g/m*3 28.38 C 1.46667 km/h
617 16-09-2020 16:00:00 30.15 C 12.08 g/m*3 30.15 C 12.35833 km/h
618 16-09-2020 17:00:00 28.55833 C 14.56 g/m*3 28.56 C 13.96667 km/h
619 16-09-2020 18:00:00 26.775 C 15.19 g/m*3 26.78 C 13.56667 km/h
620 16-09-2020 19:00:00 25.28333 C 15.03 g/m*3 25.28 C 5.63333 km/h
621 16-09-2020 20:00:00 22.91667 C 14.49 g/m*3 22.92 C 2.53333 km/h
622 16-09-2020 21:00:00 22.29167 C 14.31 g/m*3 22.29 C 4.69167 km/h
623 16-09-2020 22:00:00 22.30833 C 14.01 g/m*3 22.31 C 7.66667 km/h
624 16-09-2020 23:00:00 21.24167 C 13.41 g/m*3 21.24 C 3.75 km/h
625 17-09-2020 00:00:00 20.75 C 13.12 g/m*3 20.75 C 8.05833 km/h
Sensor: Nr:Datum:Temp:Abs-Feuchte:Windchill:Wind:
Aussen-T/F 626 17-09-2020 01:00:00 20.09167 C 12.51 g/m*3 20.09 C 6.71667 km/h
627 17-09-2020 02:00:00 18.75 C 12.07 g/m*3 18.75 C 5.23333 km/h
628 17-09-2020 03:00:00 17.31667 C 11.82 g/m*3 17.32 C 2.8 km/h
629 17-09-2020 04:00:00 17.36667 C 11.98 g/m*3 17.37 C 8.74167 km/h
630 17-09-2020 05:00:00 17.125 C 11.71 g/m*3 17.13 C 7.375 km/h
631 17-09-2020 06:00:00 16.86667 C 11.44 g/m*3 16.87 C 6.15833 km/h
632 17-09-2020 07:00:00 16.63333 C 11.36 g/m*3 16.63 C 5.89167 km/h
633 17-09-2020 08:00:00 16.08333 C 10.89 g/m*3 16.08 C 9.425 km/h
634 17-09-2020 09:00:00 15.66667 C 10.46 g/m*3 15.67 C 8.06667 km/h
635 17-09-2020 10:00:00 16.05 C 9.52 g/m*3 16.05 C 6.71667 km/h
636 17-09-2020 11:00:00 16.4 C 9.11 g/m*3 16.4 C 10.48333 km/h
637 17-09-2020 12:00:00 17.575 C 9.16 g/m*3 17.58 C 12.76667 km/h
638 17-09-2020 13:00:00 18.81667 C 8.75 g/m*3 18.82 C 14.23333 km/h
639 17-09-2020 14:00:00 20.15833 C 7.94 g/m*3 20.16 C 13.29167 km/h
640 17-09-2020 15:00:00 20.91667 C 7.64 g/m*3 20.92 C 12.5 km/h
641 17-09-2020 16:00:00 21.61667 C 7.28 g/m*3 21.62 C 14.63333 km/h
642 17-09-2020 17:00:00 22.10833 C 7.36 g/m*3 22.11 C 15.3 km/h
643 17-09-2020 18:00:00 21.83333 C 7.63 g/m*3 21.83 C 10.33333 km/h
644 17-09-2020 19:00:00 19.575 C 8.01 g/m*3 19.58 C 2.40833 km/h
645 17-09-2020 20:00:00 15.91667 C 8.08 g/m*3 15.92 C 1.34167 km/h
646 17-09-2020 21:00:00 14.69167 C 8.1 g/m*3 14.69 C 1.6 km/h
647 17-09-2020 22:00:00 14.66667 C 8.24 g/m*3 14.67 C 2.00833 km/h
648 17-09-2020 23:00:00 13.575 C 8.15 g/m*3 13.58 C 1.475 km/h
649 18-09-2020 00:00:00 12.5 C 8.11 g/m*3 12.5 C 0.53333 km/h
650 18-09-2020 01:00:00 12.25833 C 8.1 g/m*3 12.26 C 2.41667 km/h
Sensor: Nr:Datum:Temp:Abs-Feuchte:Windchill:Wind:
Aussen-T/F 651 18-09-2020 02:00:00 12.55833 C 7.99 g/m*3 12.56 C 3.46667 km/h
652 18-09-2020 03:00:00 10.925 C 7.75 g/m*3 10.93 C 3.46667 km/h
653 18-09-2020 04:00:00 10.14167 C 7.61 g/m*3 10.14 C 4.13333 km/h
654 18-09-2020 05:00:00 9.55833 C 7.49 g/m*3 9.56 C 1.33333 km/h
655 18-09-2020 06:00:00 9.28333 C 7.45 g/m*3 9.28 C 0.53333 km/h
656 18-09-2020 07:00:00 9.18333 C 7.51 g/m*3 9.18 C 1.86667 km/h
657 18-09-2020 08:00:00 10.18333 C 7.93 g/m*3 10.18 C 0 km/h
658 18-09-2020 09:00:00 11.2 C 8.2 g/m*3 11.2 C 1.86667 km/h
659 18-09-2020 10:00:00 13.375 C 8.41 g/m*3 13.38 C 5.21667 km/h
660 18-09-2020 11:00:00 16.19167 C 8.82 g/m*3 16.19 C 8.33333 km/h
661 18-09-2020 12:00:00 18.7 C 9.38 g/m*3 18.7 C 8.6 km/h
662 18-09-2020 13:00:00 21.04167 C 10.18 g/m*3 21.04 C 12.36667 km/h
663 18-09-2020 14:00:00 22.58333 C 10.24 g/m*3 22.58 C 13.83333 km/h
664 18-09-2020 15:00:00 23.04167 C 9.98 g/m*3 23.04 C 13.83333 km/h
665 18-09-2020 16:00:00 23.66667 C 9.91 g/m*3 23.67 C 12.1 km/h
666 18-09-2020 17:00:00 24.73333 C 9.77 g/m*3 24.73 C 8.46667 km/h
667 18-09-2020 18:00:00 24.55 C 9.5 g/m*3 24.55 C 6.58333 km/h
668 18-09-2020 19:00:00 21.19167 C 9.55 g/m*3 21.19 C 4.40833 km/h
669 18-09-2020 20:00:00 16.91667 C 9.06 g/m*3 16.92 C 3.86667 km/h
670 18-09-2020 21:00:00 15.46667 C 8.63 g/m*3 15.47 C 5.06667 km/h
671 18-09-2020 22:00:00 14.61667 C 8.02 g/m*3 14.62 C 0.66667 km/h
672 18-09-2020 23:00:00 14.05833 C 7.91 g/m*3 14.06 C 2.8 km/h
673 19-09-2020 00:00:00 13.54167 C 7.74 g/m*3 13.54 C 2.53333 km/h
674 19-09-2020 01:00:00 12.625 C 7.61 g/m*3 12.63 C 4 km/h
675 19-09-2020 02:00:00 11.63333 C 7.47 g/m*3 11.63 C 1.6 km/h
Sensor: Nr:Datum:Temp:Abs-Feuchte:Windchill:Wind:
Aussen-T/F 676 19-09-2020 03:00:00 10.375 C 7.31 g/m*3 10.38 C 0.93333 km/h
677 19-09-2020 04:00:00 9.625 C 7.21 g/m*3 9.63 C 0 km/h
678 19-09-2020 05:00:00 8.825 C 7.08 g/m*3 8.82 C 0 km/h
679 19-09-2020 06:00:00 8.175 C 7.04 g/m*3 8.18 C 0 km/h
680 19-09-2020 07:00:00 7.68333 C 7.04 g/m*3 7.68 C 0 km/h
681 19-09-2020 08:00:00 7.94167 C 7.32 g/m*3 7.94 C 0 km/h
682 19-09-2020 09:00:00 8.91667 C 7.76 g/m*3 8.92 C 0 km/h
683 19-09-2020 10:00:00 11.41667 C 8.33 g/m*3 11.42 C 0.8 km/h
684 19-09-2020 11:00:00 15.09167 C 8.6 g/m*3 15.09 C 2.53333 km/h
685 19-09-2020 12:00:00 19.15 C 8.7 g/m*3 19.15 C 7.93333 km/h
686 19-09-2020 13:00:00 21.125 C 8.61 g/m*3 21.13 C 6.16667 km/h
687 19-09-2020 14:00:00 23.24167 C 8.63 g/m*3 23.24 C 8.46667 km/h
688 19-09-2020 15:00:00 24.33333 C 8.48 g/m*3 24.33 C 8.31667 km/h
689 19-09-2020 16:00:00 25.29167 C 8.19 g/m*3 25.29 C 9.41667 km/h
690 19-09-2020 17:00:00 26.2 C 8.17 g/m*3 26.2 C 8.34167 km/h
691 19-09-2020 18:00:00 26.39167 C 8.38 g/m*3 26.39 C 3.2 km/h
692 19-09-2020 19:00:00 21.7 C 8.12 g/m*3 21.7 C 2.13333 km/h
693 19-09-2020 20:00:00 17.99167 C 7.84 g/m*3 17.99 C 4.4 km/h
694 19-09-2020 21:00:00 16.35833 C 7.92 g/m*3 16.36 C 4.93333 km/h
695 19-09-2020 22:00:00 15.54167 C 8.16 g/m*3 15.54 C 1.86667 km/h
696 19-09-2020 23:00:00 14.425 C 8.17 g/m*3 14.43 C 0 km/h
697 20-09-2020 00:00:00 13.7 C 8.25 g/m*3 13.7 C 0.13333 km/h
698 20-09-2020 01:00:00 12.70833 C 8.27 g/m*3 12.71 C 0 km/h
699 20-09-2020 02:00:00 11.76667 C 7.98 g/m*3 11.77 C 0 km/h
700 20-09-2020 03:00:00 10.6 C 7.73 g/m*3 10.6 C 0 km/h
Sensor: Nr:Datum:Temp:Abs-Feuchte:Windchill:Wind:
Aussen-T/F 701 20-09-2020 04:00:00 9.84167 C 7.5 g/m*3 9.84 C 0 km/h
702 20-09-2020 05:00:00 9.49167 C 7.6 g/m*3 9.49 C 0 km/h
703 20-09-2020 06:00:00 8.96667 C 7.46 g/m*3 8.97 C 0 km/h
704 20-09-2020 07:00:00 8.3 C 7.32 g/m*3 8.3 C 0 km/h
705 20-09-2020 08:00:00 8.71667 C 7.73 g/m*3 8.72 C 0 km/h
706 20-09-2020 09:00:00 9.625 C 8.21 g/m*3 9.63 C 0 km/h
707 20-09-2020 10:00:00 11.55833 C 9 g/m*3 11.56 C 0 km/h
708 20-09-2020 11:00:00 14.05833 C 9.46 g/m*3 14.06 C 0 km/h
709 20-09-2020 12:00:00 18.15833 C 9.75 g/m*3 18.16 C 1.06667 km/h
710 20-09-2020 13:00:00 21.14167 C 9.27 g/m*3 21.14 C 4.53333 km/h
711 20-09-2020 14:00:00 22.81667 C 8.88 g/m*3 22.82 C 3.6 km/h
712 20-09-2020 15:00:00 22.975 C 9.78 g/m*3 22.98 C 1.33333 km/h
713 20-09-2020 16:00:00 22.65 C 9.75 g/m*3 22.65 C 1.06667 km/h
714 20-09-2020 17:00:00 23.95833 C 9.93 g/m*3 23.96 C 1.86667 km/h
715 20-09-2020 18:00:00 21.43333 C 9.47 g/m*3 21.43 C 5.06667 km/h
716 20-09-2020 19:00:00 18.625 C 8.91 g/m*3 18.63 C 3.6 km/h
717 20-09-2020 20:00:00 15.78333 C 8.29 g/m*3 15.78 C 1.33333 km/h
718 20-09-2020 21:00:00 14.3 C 8.13 g/m*3 14.3 C 0 km/h
719 20-09-2020 22:00:00 13.075 C 8.3 g/m*3 13.08 C 0 km/h
720 20-09-2020 23:00:00 11.68333 C 8.05 g/m*3 11.68 C 0 km/h
721 21-09-2020 00:00:00 10.94167 C 7.88 g/m*3 10.94 C 0 km/h
722 21-09-2020 01:00:00 10.25833 C 7.8 g/m*3 10.26 C 0 km/h
723 21-09-2020 02:00:00 9.54167 C 7.67 g/m*3 9.54 C 0 km/h
724 21-09-2020 03:00:00 9.03333 C 7.62 g/m*3 9.03 C 0 km/h
725 21-09-2020 04:00:00 8.55 C 7.54 g/m*3 8.55 C 0 km/h
Sensor: Nr:Datum:Temp:Abs-Feuchte:Windchill:Wind:
Aussen-T/F 726 21-09-2020 05:00:00 8.15 C 7.44 g/m*3 8.15 C 0 km/h
727 21-09-2020 06:00:00 7.79167 C 7.35 g/m*3 7.79 C 0 km/h
728 21-09-2020 07:00:00 7.34167 C 7.22 g/m*3 7.34 C 0 km/h
729 21-09-2020 08:00:00 7.525 C 7.4 g/m*3 7.53 C 0 km/h
730 21-09-2020 09:00:00 8.475 C 7.84 g/m*3 8.48 C 0 km/h
731 21-09-2020 10:00:00 10.075 C 8.54 g/m*3 10.07 C 0 km/h
732 21-09-2020 11:00:00 13.05833 C 9.27 g/m*3 13.06 C 0 km/h
733 21-09-2020 12:00:00 17.375 C 10.1 g/m*3 17.38 C 0 km/h
734 21-09-2020 13:00:00 20.58333 C 9.88 g/m*3 20.58 C 1.73333 km/h
735 21-09-2020 14:00:00 23.44167 C 9.01 g/m*3 23.44 C 7.78333 km/h
736 21-09-2020 15:00:00 24.26667 C 8.56 g/m*3 24.27 C 5.21667 km/h
737 21-09-2020 16:00:00 24.63333 C 8.44 g/m*3 24.63 C 5.9 km/h
738 21-09-2020 17:00:00 26.25833 C 8.64 g/m*3 26.26 C 2.93333 km/h
739 21-09-2020 18:00:00 25.7 C 9.36 g/m*3 25.7 C 3.06667 km/h
740 21-09-2020 19:00:00 21.13333 C 8.71 g/m*3 21.13 C 5.73333 km/h
741 21-09-2020 20:00:00 17.55833 C 8.53 g/m*3 17.56 C 0.93333 km/h
742 21-09-2020 21:00:00 15.46667 C 8.53 g/m*3 15.47 C 0 km/h
743 21-09-2020 22:00:00 13.98333 C 8.46 g/m*3 13.98 C 0 km/h
744 21-09-2020 23:00:00 12.9 C 8.51 g/m*3 12.9 C 0 km/h
745 22-09-2020 00:00:00 11.80833 C 8.37 g/m*3 11.81 C 0 km/h
746 22-09-2020 01:00:00 11.33333 C 8.3 g/m*3 11.33 C 0 km/h
747 22-09-2020 02:00:00 10.66667 C 8.11 g/m*3 10.67 C 0 km/h
748 22-09-2020 03:00:00 9.80833 C 7.97 g/m*3 9.81 C 0 km/h
749 22-09-2020 04:00:00 9.34167 C 7.89 g/m*3 9.34 C 0 km/h
750 22-09-2020 05:00:00 8.98333 C 7.85 g/m*3 8.98 C 0 km/h
Sensor: Nr:Datum:Temp:Abs-Feuchte:Windchill:Wind:
Aussen-T/F 751 22-09-2020 06:00:00 8.51667 C 7.72 g/m*3 8.52 C 0 km/h
752 22-09-2020 07:00:00 8.2 C 7.65 g/m*3 8.2 C 0 km/h
753 22-09-2020 08:00:00 8.54167 C 7.93 g/m*3 8.54 C 0 km/h
754 22-09-2020 09:00:00 9.45833 C 8.44 g/m*3 9.46 C 0 km/h
755 22-09-2020 10:00:00 11.10833 C 9.2 g/m*3 11.11 C 0 km/h
756 22-09-2020 11:00:00 14.18333 C 10.12 g/m*3 14.18 C 0 km/h
757 22-09-2020 12:00:00 18.30833 C 11.09 g/m*3 18.31 C 0.13333 km/h
758 22-09-2020 13:00:00 22.025 C 10.46 g/m*3 22.03 C 4.29167 km/h
759 22-09-2020 14:00:00 25.39167 C 9.49 g/m*3 25.39 C 11.15833 km/h
760 22-09-2020 15:00:00 26.09167 C 9.07 g/m*3 26.09 C 11.025 km/h
761 22-09-2020 16:00:00 26.51667 C 8.75 g/m*3 26.52 C 11.3 km/h
762 22-09-2020 17:00:00 27.45833 C 9.39 g/m*3 27.46 C 8.85833 km/h
763 22-09-2020 18:00:00 27.34167 C 10.25 g/m*3 27.34 C 4.54167 km/h
764 22-09-2020 19:00:00 22.64167 C 10.15 g/m*3 22.64 C 6.14167 km/h
765 22-09-2020 20:00:00 19.275 C 9.9 g/m*3 19.27 C 4.26667 km/h
766 22-09-2020 21:00:00 17.68333 C 9.7 g/m*3 17.68 C 0.66667 km/h
767 22-09-2020 22:00:00 16.43333 C 9.49 g/m*3 16.43 C 0.66667 km/h
768 22-09-2020 23:00:00 15.40833 C 9.31 g/m*3 15.41 C 0.66667 km/h
769 23-09-2020 00:00:00 14.45833 C 9.15 g/m*3 14.46 C 0.13333 km/h
770 23-09-2020 01:00:00 14.04167 C 9.23 g/m*3 14.04 C 0.53333 km/h
771 23-09-2020 02:00:00 14.49167 C 9.4 g/m*3 14.49 C 0.93333 km/h
772 23-09-2020 03:00:00 13.925 C 9.36 g/m*3 13.93 C 0 km/h
773 23-09-2020 04:00:00 14.06667 C 9.45 g/m*3 14.07 C 0 km/h
774 23-09-2020 05:00:00 12.775 C 8.94 g/m*3 12.78 C 0.13333 km/h
775 23-09-2020 06:00:00 12.125 C 8.85 g/m*3 12.13 C 0.4 km/h
Sensor: Nr:Datum:Temp:Abs-Feuchte:Windchill:Wind:
Aussen-T/F 776 23-09-2020 07:00:00 13.225 C 9.12 g/m*3 13.23 C 1.46667 km/h
777 23-09-2020 08:00:00 14.025 C 9.27 g/m*3 14.03 C 1.33333 km/h
778 23-09-2020 09:00:00 14.29167 C 9.33 g/m*3 14.29 C 3.89167 km/h
779 23-09-2020 10:00:00 17.35833 C 9.01 g/m*3 17.36 C 11.16667 km/h
780 23-09-2020 11:00:00 19.13333 C 9.62 g/m*3 19.13 C 10.35833 km/h
781 23-09-2020 12:00:00 20.29167 C 10.55 g/m*3 20.29 C 14.1 km/h
782 23-09-2020 13:00:00 21.65 C 10.84 g/m*3 21.65 C 11.41667 km/h
783 23-09-2020 14:00:00 23.03333 C 11.07 g/m*3 23.03 C 12.1 km/h
784 23-09-2020 15:00:00 23.40833 C 11.2 g/m*3 23.41 C 11.56667 km/h
785 23-09-2020 16:00:00 23.63333 C 11.24 g/m*3 23.63 C 11.29167 km/h
786 23-09-2020 17:00:00 23.78333 C 11.28 g/m*3 23.78 C 9.93333 km/h
787 23-09-2020 18:00:00 22.60833 C 11.1 g/m*3 22.61 C 5.225 km/h
788 23-09-2020 19:00:00 19.48333 C 11.16 g/m*3 19.48 C 1.46667 km/h
789 23-09-2020 20:00:00 17.35833 C 11.11 g/m*3 17.36 C 1.33333 km/h
790 23-09-2020 21:00:00 17.51667 C 11.47 g/m*3 17.52 C 2.54167 km/h
791 23-09-2020 22:00:00 17.64167 C 11.64 g/m*3 17.64 C 0.53333 km/h
792 23-09-2020 23:00:00 17.50833 C 11.75 g/m*3 17.51 C 1.6 km/h
793 24-09-2020 00:00:00 17.73333 C 11.75 g/m*3 17.73 C 4.15833 km/h
794 24-09-2020 01:00:00 18.28333 C 11.99 g/m*3 18.28 C 4.825 km/h
795 24-09-2020 02:00:00 17.56667 C 12.81 g/m*3 17.57 C 4.825 km/h
796 24-09-2020 03:00:00 16.18333 C 12.66 g/m*3 16.18 C 1.2 km/h
797 24-09-2020 04:00:00 16.03333 C 12.81 g/m*3 16.03 C 1.86667 km/h
798 24-09-2020 05:00:00 15.95 C 12.75 g/m*3 15.95 C 6.975 km/h
799 24-09-2020 06:00:00 14.54167 C 10.71 g/m*3 14.54 C 10.08333 km/h
800 24-09-2020 07:00:00 12.025 C 9.55 g/m*3 12.03 C 6.56667 km/h
Sensor: Nr:Datum:Temp:Abs-Feuchte:Windchill:Wind:
Aussen-T/F 801 24-09-2020 08:00:00 12.25 C 9.62 g/m*3 12.25 C 8.05833 km/h
802 24-09-2020 09:00:00 12.63333 C 9.51 g/m*3 12.63 C 10.88333 km/h
803 24-09-2020 10:00:00 13.7 C 9.32 g/m*3 13.7 C 12.23333 km/h
804 24-09-2020 11:00:00 14.74167 C 9.1 g/m*3 14.74 C 12.63333 km/h
805 24-09-2020 12:00:00 16.88333 C 9.21 g/m*3 16.88 C 11.16667 km/h
806 24-09-2020 13:00:00 17.73333 C 9.06 g/m*3 17.73 C 15.16667 km/h
807 24-09-2020 14:00:00 18.99167 C 9.08 g/m*3 18.99 C 14.36667 km/h
808 24-09-2020 15:00:00 19.575 C 9.29 g/m*3 19.58 C 9.80833 km/h
809 24-09-2020 16:00:00 19.71667 C 9.49 g/m*3 19.72 C 7.25833 km/h
810 24-09-2020 17:00:00 19.775 C 9.88 g/m*3 19.77 C 4.53333 km/h
811 24-09-2020 18:00:00 18.85833 C 10.63 g/m*3 18.86 C 2.14167 km/h
812 24-09-2020 19:00:00 17.05 C 11.02 g/m*3 17.05 C 2.26667 km/h
813 24-09-2020 20:00:00 16.075 C 10.86 g/m*3 16.08 C 2.26667 km/h
814 24-09-2020 21:00:00 15.05 C 10.64 g/m*3 15.05 C 1.2 km/h
815 24-09-2020 22:00:00 14.40833 C 10.66 g/m*3 14.41 C 0.93333 km/h
816 24-09-2020 23:00:00 13.76667 C 10.49 g/m*3 13.77 C 0.93333 km/h
817 25-09-2020 00:00:00 13.675 C 10.62 g/m*3 13.68 C 0.13333 km/h
818 25-09-2020 01:00:00 13.925 C 10.79 g/m*3 13.93 C 0.93333 km/h
819 25-09-2020 02:00:00 13.73333 C 10.52 g/m*3 13.73 C 10.05 km/h
820 25-09-2020 03:00:00 12.15 C 9.83 g/m*3 12.15 C 8.59167 km/h
821 25-09-2020 04:00:00 11.275 C 9.42 g/m*3 11.28 C 3.46667 km/h
822 25-09-2020 05:00:00 10.76667 C 9.2 g/m*3 10.77 C 4.40833 km/h
823 25-09-2020 06:00:00 10.50833 C 8.98 g/m*3 10.16 C 5.61667 km/h
824 25-09-2020 07:00:00 9.875 C 8.53 g/m*3 9.88 C 4.55833 km/h
825 25-09-2020 08:00:00 9.525 C 8.33 g/m*3 9.53 C 2.40833 km/h
Sensor: Nr:Datum:Temp:Abs-Feuchte:Windchill:Wind:
Aussen-T/F 826 25-09-2020 09:00:00 10.25833 C 8.22 g/m*3 10.26 C 2.8 km/h
827 25-09-2020 10:00:00 11.35 C 8.39 g/m*3 11.35 C 3.875 km/h
828 25-09-2020 11:00:00 12.40833 C 8.49 g/m*3 12.41 C 8.6 km/h
829 25-09-2020 12:00:00 13.21667 C 8.35 g/m*3 13.22 C 11.96667 km/h
830 25-09-2020 13:00:00 13.54167 C 8.25 g/m*3 13.54 C 10.88333 km/h
831 25-09-2020 14:00:00 13.03333 C 8.97 g/m*3 13.03 C 3.61667 km/h
832 25-09-2020 15:00:00 13.65 C 9.26 g/m*3 13.65 C 3.6 km/h
833 25-09-2020 16:00:00 14.23333 C 9.1 g/m*3 14.23 C 7.125 km/h
834 25-09-2020 17:00:00 14.25 C 8.79 g/m*3 14.25 C 7.525 km/h
835 25-09-2020 18:00:00 12.89167 C 8.7 g/m*3 12.89 C 9.93333 km/h
836 25-09-2020 19:00:00 11.88333 C 8.54 g/m*3 11.88 C 6.3 km/h
837 25-09-2020 20:00:00 11.75833 C 8.49 g/m*3 11.76 C 6.7 km/h
838 25-09-2020 21:00:00 11.53333 C 8.06 g/m*3 11.53 C 7.50833 km/h
839 25-09-2020 22:00:00 11.425 C 8.07 g/m*3 11.43 C 8.74167 km/h
840 25-09-2020 23:00:00 11.20833 C 8.14 g/m*3 11.21 C 10.35833 km/h
841 26-09-2020 00:00:00 10.7 C 8.06 g/m*3 8.94 C 13.7 km/h
842 26-09-2020 01:00:00 10.61667 C 7.93 g/m*3 9.05 C 12.1 km/h
843 26-09-2020 02:00:00 10.5 C 7.9 g/m*3 9.04 C 11.15833 km/h
844 26-09-2020 03:00:00 10.05 C 7.82 g/m*3 7.8 C 16.5 km/h
845 26-09-2020 04:00:00 9.81667 C 7.59 g/m*3 7.28 C 18.63333 km/h
846 26-09-2020 05:00:00 9.73333 C 7.39 g/m*3 7.07 C 19.7 km/h
847 26-09-2020 06:00:00 9.65833 C 7.53 g/m*3 6.92 C 20.23333 km/h
848 26-09-2020 07:00:00 9.425 C 7.79 g/m*3 7.37 C 13.7 km/h
849 26-09-2020 08:00:00 9.31667 C 8.14 g/m*3 7.78 C 10.20833 km/h
850 26-09-2020 09:00:00 9.9 C 8.56 g/m*3 8.79 C 8.46667 km/h
Sensor: Nr:Datum:Temp:Abs-Feuchte:Windchill:Wind:
Aussen-T/F 851 26-09-2020 10:00:00 10.91667 C 8.9 g/m*3 9.85 C 9.275 km/h
852 26-09-2020 11:00:00 11.58333 C 9.14 g/m*3 11.58 C 7.38333 km/h
853 26-09-2020 12:00:00 12.04167 C 9.06 g/m*3 12.04 C 11.55 km/h
854 26-09-2020 13:00:00 11.48333 C 9.45 g/m*3 11.48 C 5.35833 km/h
855 26-09-2020 14:00:00 11.69167 C 9.47 g/m*3 11.69 C 10.74167 km/h
856 26-09-2020 15:00:00 11.375 C 9.32 g/m*3 11.38 C 11.69167 km/h
857 26-09-2020 16:00:00 10.94167 C 9.01 g/m*3 9.5 C 11.68333 km/h
858 26-09-2020 17:00:00 10.9 C 8.97 g/m*3 9.85 C 9.15833 km/h
859 26-09-2020 18:00:00 10.81667 C 9.08 g/m*3 10.55 C 5.48333 km/h
860 26-09-2020 19:00:00 10.68333 C 9.04 g/m*3 10.68 C 4.95833 km/h
861 26-09-2020 20:00:00 10.36667 C 8.98 g/m*3 10.37 C 4.54167 km/h
862 26-09-2020 21:00:00 10.2 C 8.99 g/m*3 10.2 C 2.26667 km/h
863 26-09-2020 22:00:00 10.075 C 8.97 g/m*3 10.07 C 2.275 km/h
864 26-09-2020 23:00:00 9.85 C 8.84 g/m*3 9.85 C 3.2 km/h
865 27-09-2020 00:00:00 9.375 C 8.58 g/m*3 9.38 C 4.66667 km/h
866 27-09-2020 01:00:00 8.88333 C 8.35 g/m*3 7.77 C 7.65 km/h
867 27-09-2020 02:00:00 8.91667 C 8.42 g/m*3 7.55 C 8.85833 km/h
868 27-09-2020 03:00:00 9.325 C 8.64 g/m*3 8.92 C 5.225 km/h
869 27-09-2020 04:00:00 9.50833 C 8.74 g/m*3 9.51 C 1.74167 km/h
870 27-09-2020 05:00:00 9.6 C 8.79 g/m*3 9.6 C 0.8 km/h
871 27-09-2020 06:00:00 9.6 C 8.79 g/m*3 9.6 C 0.26667 km/h
872 27-09-2020 07:00:00 9.6 C 8.79 g/m*3 9.6 C 0.26667 km/h
873 27-09-2020 08:00:00 9.8 C 8.96 g/m*3 9.8 C 1.46667 km/h
874 27-09-2020 09:00:00 10.59167 C 9.43 g/m*3 10.59 C 2.13333 km/h
875 27-09-2020 10:00:00 11.24167 C 9.75 g/m*3 11.24 C 2 km/h
Sensor: Nr:Datum:Temp:Abs-Feuchte:Windchill:Wind:
Aussen-T/F 876 27-09-2020 11:00:00 12.025 C 9.89 g/m*3 12.03 C 5.075 km/h
877 27-09-2020 12:00:00 12.61667 C 9.85 g/m*3 12.62 C 5.48333 km/h
878 27-09-2020 13:00:00 13.30833 C 10 g/m*3 13.31 C 6.71667 km/h
879 27-09-2020 14:00:00 13.69167 C 9.59 g/m*3 13.69 C 6.41667 km/h
880 27-09-2020 15:00:00 13.39167 C 9.35 g/m*3 13.39 C 3.2 km/h
881 27-09-2020 16:00:00 13.13333 C 9.5 g/m*3 13.13 C 1.6 km/h
882 27-09-2020 17:00:00 13.1 C 9.8 g/m*3 13.1 C 0 km/h
883 27-09-2020 18:00:00 12.39167 C 9.7 g/m*3 12.39 C 2.13333 km/h
884 27-09-2020 19:00:00 11.33333 C 9.22 g/m*3 11.33 C 2.4 km/h
885 27-09-2020 20:00:00 10.89167 C 9.12 g/m*3 10.89 C 2 km/h
886 27-09-2020 21:00:00 10.74167 C 9.14 g/m*3 10.74 C 1.46667 km/h
887 27-09-2020 22:00:00 10.65833 C 9.11 g/m*3 10.66 C 0.26667 km/h
888 27-09-2020 23:00:00 10.44167 C 9.06 g/m*3 10.44 C 1.46667 km/h
889 28-09-2020 00:00:00 10.40833 C 9.06 g/m*3 10.41 C 1.33333 km/h
890 28-09-2020 01:00:00 10.5 C 9.12 g/m*3 10.5 C 0.66667 km/h
891 28-09-2020 02:00:00 10.39167 C 9.05 g/m*3 10.39 C 1.33333 km/h
892 28-09-2020 03:00:00 10.20833 C 8.97 g/m*3 10.21 C 0 km/h
893 28-09-2020 04:00:00 10.15833 C 8.98 g/m*3 10.16 C 0.4 km/h
894 28-09-2020 05:00:00 10.11667 C 8.94 g/m*3 10.12 C 0.4 km/h
895 28-09-2020 06:00:00 10.125 C 8.93 g/m*3 10.13 C 0.66667 km/h
896 28-09-2020 07:00:00 10.075 C 8.86 g/m*3 10.07 C 0.26667 km/h
897 28-09-2020 08:00:00 10.29167 C 9 g/m*3 10.29 C 0 km/h
898 28-09-2020 09:00:00 10.79167 C 9.07 g/m*3 10.79 C 0.4 km/h
899 28-09-2020 10:00:00 11.89167 C 9.08 g/m*3 11.89 C 2.66667 km/h
900 28-09-2020 11:00:00 12.98333 C 9.14 g/m*3 12.98 C 4.95 km/h
Sensor: Nr:Datum:Temp:Abs-Feuchte:Windchill:Wind:
Aussen-T/F 901 28-09-2020 12:00:00 13.725 C 9.11 g/m*3 13.73 C 4.41667 km/h
902 28-09-2020 13:00:00 13.81667 C 9.36 g/m*3 13.82 C 5.775 km/h
903 28-09-2020 14:00:00 14.01667 C 9.42 g/m*3 14.02 C 4.025 km/h
904 28-09-2020 15:00:00 14.24167 C 9.13 g/m*3 14.24 C 4.95833 km/h
905 28-09-2020 16:00:00 14 C 9.14 g/m*3 14 C 6.7 km/h
906 28-09-2020 17:00:00 13.55833 C 9.11 g/m*3 13.56 C 6.025 km/h
907 28-09-2020 18:00:00 13.25 C 9.24 g/m*3 13.25 C 2 km/h
908 28-09-2020 19:00:00 12.45833 C 9.3 g/m*3 12.46 C 1.6 km/h
909 28-09-2020 20:00:00 11.85833 C 9.08 g/m*3 11.86 C 0.8 km/h
910 28-09-2020 21:00:00 10.86667 C 8.74 g/m*3 10.87 C 0.53333 km/h
911 28-09-2020 22:00:00 10.80833 C 8.99 g/m*3 10.81 C 0 km/h
912 28-09-2020 23:00:00 10.95 C 9.15 g/m*3 10.95 C 0.13333 km/h
913 29-09-2020 00:00:00 10.975 C 9.19 g/m*3 10.98 C 0.26667 km/h
914 29-09-2020 01:00:00 11.025 C 9.22 g/m*3 11.03 C 0.4 km/h
915 29-09-2020 02:00:00 11.09167 C 9.26 g/m*3 11.09 C 0 km/h
916 29-09-2020 03:00:00 11.13333 C 9.29 g/m*3 11.13 C 0 km/h
917 29-09-2020 04:00:00 11.2 C 9.36 g/m*3 11.2 C 0 km/h
918 29-09-2020 05:00:00 11.3 C 9.49 g/m*3 11.3 C 0 km/h
919 29-09-2020 06:00:00 11.4 C 9.55 g/m*3 11.4 C 0 km/h
920 29-09-2020 07:00:00 11.59167 C 9.74 g/m*3 11.59 C 0 km/h
921 29-09-2020 08:00:00 11.81667 C 9.96 g/m*3 11.82 C 0 km/h
922 29-09-2020 09:00:00 12.2 C 10.28 g/m*3 12.2 C 1.6 km/h
923 29-09-2020 10:00:00 12.65 C 10.61 g/m*3 12.65 C 3.46667 km/h
924 29-09-2020 11:00:00 13.18333 C 10.92 g/m*3 13.18 C 3.2 km/h
925 29-09-2020 12:00:00 13.725 C 11.23 g/m*3 13.73 C 5.06667 km/h
Sensor: Nr:Datum:Temp:Abs-Feuchte:Windchill:Wind:
Aussen-T/F 926 29-09-2020 13:00:00 14.1 C 11.38 g/m*3 14.1 C 6.01667 km/h
927 29-09-2020 14:00:00 14.30833 C 11.62 g/m*3 14.31 C 6.43333 km/h
928 29-09-2020 15:00:00 14.26667 C 11.54 g/m*3 14.27 C 7.93333 km/h
929 29-09-2020 16:00:00 13.43333 C 10.98 g/m*3 13.43 C 5.21667 km/h
930 29-09-2020 17:00:00 13.15833 C 10.88 g/m*3 13.16 C 2.14167 km/h
931 29-09-2020 18:00:00 13.21667 C 10.92 g/m*3 13.22 C 1.86667 km/h
932 29-09-2020 19:00:00 12.425 C 10.4 g/m*3 12.43 C 4.54167 km/h
933 29-09-2020 20:00:00 11.55 C 9.84 g/m*3 11.55 C 0.13333 km/h
934 29-09-2020 21:00:00 10.70833 C 9.34 g/m*3 10.71 C 0 km/h
935 29-09-2020 22:00:00 10.24167 C 9.15 g/m*3 10.24 C 0 km/h
936 29-09-2020 23:00:00 10.5 C 9.34 g/m*3 10.5 C 0 km/h
937 30-09-2020 00:00:00 10.88333 C 9.64 g/m*3 10.88 C 0 km/h
938 30-09-2020 01:00:00 11.05833 C 9.74 g/m*3 11.06 C 0 km/h
939 30-09-2020 02:00:00 11.2 C 9.83 g/m*3 11.2 C 0 km/h
940 30-09-2020 03:00:00 11.49167 C 10.01 g/m*3 11.49 C 0 km/h
941 30-09-2020 04:00:00 11.75833 C 10.18 g/m*3 11.76 C 0 km/h
942 30-09-2020 05:00:00 11.90833 C 10.28 g/m*3 11.91 C 0 km/h
943 30-09-2020 06:00:00 12.11667 C 10.41 g/m*3 12.12 C 0 km/h
944 30-09-2020 07:00:00 12.23333 C 10.49 g/m*3 12.23 C 0 km/h
945 30-09-2020 08:00:00 12.65 C 10.76 g/m*3 12.65 C 0 km/h
946 30-09-2020 09:00:00 13.59167 C 11.44 g/m*3 13.59 C 0 km/h
947 30-09-2020 10:00:00 14.675 C 12.26 g/m*3 14.68 C 2.13333 km/h
948 30-09-2020 11:00:00 15.65833 C 12.76 g/m*3 15.66 C 4.81667 km/h
949 30-09-2020 12:00:00 16.64167 C 12.95 g/m*3 16.64 C 3.21667 km/h
950 30-09-2020 13:00:00 16.89167 C 12.81 g/m*3 16.89 C 1.6 km/h
Sensor: Nr:Datum:Temp:Abs-Feuchte:Windchill:Wind:
Aussen-T/F 951 30-09-2020 14:00:00 17.64167 C 12.94 g/m*3 17.64 C 3.46667 km/h
952 30-09-2020 15:00:00 18.15 C 12.88 g/m*3 18.15 C 4.66667 km/h
953 30-09-2020 16:00:00 17.9 C 12.66 g/m*3 17.9 C 3.86667 km/h
954 30-09-2020 17:00:00 18.00833 C 12.6 g/m*3 18.01 C 3.46667 km/h
955 30-09-2020 18:00:00 17.05 C 12.31 g/m*3 17.05 C 1.73333 km/h
956 30-09-2020 19:00:00 15.55833 C 12.03 g/m*3 15.56 C 0.13333 km/h
957 30-09-2020 20:00:00 14.54167 C 11.43 g/m*3 14.54 C 1.6 km/h
958 30-09-2020 21:00:00 13.25833 C 10.69 g/m*3 13.26 C 1.2 km/h
959 30-09-2020 22:00:00 12.175 C 10.12 g/m*3 12.18 C 2.13333 km/h
960 30-09-2020 23:00:00 11.55 C 9.84 g/m*3 11.55 C 1.73333 km/h
961 01-10-2020 00:00:00 11.06667 C 9.57 g/m*3 11.07 C 0.26667 km/h
962 01-10-2020 01:00:00 10.68333 C 9.4 g/m*3 10.68 C 0.13333 km/h
963 01-10-2020 02:00:00 10.15833 C 9.11 g/m*3 10.16 C 0.4 km/h
964 01-10-2020 03:00:00 9.85833 C 8.94 g/m*3 9.86 C 0.13333 km/h
965 01-10-2020 04:00:00 9.91667 C 9 g/m*3 9.92 C 0 km/h
966 01-10-2020 05:00:00 10.48333 C 9.39 g/m*3 10.48 C 0 km/h
967 01-10-2020 06:00:00 9.81667 C 8.98 g/m*3 9.82 C 0.26667 km/h
968 01-10-2020 07:00:00 9.51667 C 8.81 g/m*3 9.52 C 0 km/h
969 01-10-2020 08:00:00 10.05833 C 9.15 g/m*3 10.06 C 0 km/h
970 01-10-2020 09:00:00 10.80833 C 9.59 g/m*3 10.81 C 0 km/h
971 01-10-2020 10:00:00 12.25 C 10.57 g/m*3 12.25 C 2.94167 km/h
972 01-10-2020 11:00:00 14.08333 C 11.38 g/m*3 14.08 C 2.8 km/h
973 01-10-2020 12:00:00 16.04167 C 11.72 g/m*3 16.04 C 4.26667 km/h
974 01-10-2020 13:00:00 16.95833 C 11.68 g/m*3 16.96 C 5.35 km/h
975 01-10-2020 14:00:00 16.90833 C 11.52 g/m*3 16.91 C 2.13333 km/h
Sensor: Nr:Datum:Temp:Abs-Feuchte:Windchill:Wind:
Aussen-T/F 976 01-10-2020 15:00:00 15.9 C 11.92 g/m*3 15.9 C 1.6 km/h
977 01-10-2020 16:00:00 15.275 C 11.89 g/m*3 15.28 C 1.33333 km/h
978 01-10-2020 17:00:00 15.23333 C 12.06 g/m*3 15.23 C 0.66667 km/h
979 01-10-2020 18:00:00 16.05 C 12.38 g/m*3 16.05 C 2.94167 km/h
980 01-10-2020 19:00:00 13.75 C 10.77 g/m*3 13.75 C 4.26667 km/h
981 01-10-2020 20:00:00 12.34167 C 10.18 g/m*3 12.34 C 3.46667 km/h
982 01-10-2020 21:00:00 12.33333 C 10.35 g/m*3 12.33 C 4.01667 km/h
983 01-10-2020 22:00:00 11.475 C 9.8 g/m*3 11.48 C 1.6 km/h
984 01-10-2020 23:00:00 10.825 C 9.48 g/m*3 10.83 C 4.41667 km/h
985 02-10-2020 00:00:00 10.5 C 9.29 g/m*3 10.5 C 2.13333 km/h
986 02-10-2020 01:00:00 9.85833 C 8.94 g/m*3 9.86 C 0 km/h
987 02-10-2020 02:00:00 9.21667 C 8.58 g/m*3 9.22 C 0 km/h
988 02-10-2020 03:00:00 8.675 C 8.29 g/m*3 8.68 C 0 km/h
989 02-10-2020 04:00:00 8 C 7.94 g/m*3 8 C 0 km/h
990 02-10-2020 05:00:00 7.8 C 7.86 g/m*3 7.8 C 0 km/h
991 02-10-2020 06:00:00 8.13333 C 8.09 g/m*3 8.13 C 0 km/h
992 02-10-2020 07:00:00 8.46667 C 8.26 g/m*3 8.47 C 0 km/h
993 02-10-2020 08:00:00 9.19167 C 8.66 g/m*3 9.19 C 0 km/h
994 02-10-2020 09:00:00 10.56667 C 9.51 g/m*3 10.57 C 3.20833 km/h
995 02-10-2020 10:00:00 11.975 C 10.37 g/m*3 11.98 C 1.46667 km/h
996 02-10-2020 11:00:00 12.54167 C 10.69 g/m*3 12.54 C 3.34167 km/h
997 02-10-2020 12:00:00 14.15833 C 11.22 g/m*3 14.16 C 10.35833 km/h
998 02-10-2020 13:00:00 16.11667 C 11.62 g/m*3 16.12 C 7.125 km/h
999 02-10-2020 14:00:00 17.65 C 12.01 g/m*3 17.65 C 8.325 km/h
1000 02-10-2020 15:00:00 18.44167 C 12.31 g/m*3 18.44 C 5.08333 km/h
Sensor: Nr:Datum:Temp:Abs-Feuchte:Windchill:Wind:
Aussen-T/F 1001 02-10-2020 16:00:00 18.85 C 12.4 g/m*3 18.85 C 6.45 km/h
1002 02-10-2020 17:00:00 18.54167 C 12.15 g/m*3 18.54 C 6.70833 km/h
1003 02-10-2020 18:00:00 17.40833 C 12.01 g/m*3 17.41 C 6.98333 km/h
1004 02-10-2020 19:00:00 17.44167 C 11.96 g/m*3 17.44 C 6.3 km/h
1005 02-10-2020 20:00:00 17.15833 C 11.83 g/m*3 17.16 C 8.45 km/h
1006 02-10-2020 21:00:00 17.43333 C 11.78 g/m*3 17.43 C 4.55 km/h
1007 02-10-2020 22:00:00 16.725 C 11.56 g/m*3 16.73 C 4.40833 km/h
1008 02-10-2020 23:00:00 17.10833 C 11.29 g/m*3 17.11 C 10.875 km/h
1009 03-10-2020 00:00:00 17.35833 C 11.19 g/m*3 17.36 C 7.65833 km/h
1010 03-10-2020 01:00:00 17.16667 C 11.11 g/m*3 17.17 C 8.2 km/h
1011 03-10-2020 02:00:00 15.73333 C 10.9 g/m*3 15.73 C 3.33333 km/h
1012 03-10-2020 03:00:00 14.275 C 10.92 g/m*3 14.28 C 2.66667 km/h
1013 03-10-2020 04:00:00 14.19167 C 11.04 g/m*3 14.19 C 0 km/h
1014 03-10-2020 05:00:00 13.73333 C 10.79 g/m*3 13.73 C 0 km/h
1015 03-10-2020 06:00:00 13.3 C 10.69 g/m*3 13.3 C 0 km/h
1016 03-10-2020 07:00:00 13.45 C 10.91 g/m*3 13.45 C 2.675 km/h
1017 03-10-2020 08:00:00 13.85 C 11.19 g/m*3 13.85 C 5.61667 km/h
1018 03-10-2020 09:00:00 13.83333 C 11 g/m*3 13.83 C 7.78333 km/h
1019 03-10-2020 10:00:00 13.69167 C 10.6 g/m*3 13.69 C 11.7 km/h
1020 03-10-2020 11:00:00 13.53333 C 10.34 g/m*3 13.53 C 12.49167 km/h
1021 03-10-2020 12:00:00 13.08333 C 9.95 g/m*3 13.08 C 13.425 km/h
1022 03-10-2020 13:00:00 12.95833 C 9.74 g/m*3 12.96 C 10.85833 km/h
1023 03-10-2020 14:00:00 12.025 C 9.72 g/m*3 12.03 C 3.475 km/h
1024 03-10-2020 15:00:00 11.94167 C 9.8 g/m*3 11.94 C 1.73333 km/h
1025 03-10-2020 16:00:00 12.38333 C 9.75 g/m*3 12.38 C 1.86667 km/h
Sensor: Nr:Datum:Temp:Abs-Feuchte:Windchill:Wind:
Aussen-T/F 1026 03-10-2020 17:00:00 14.28333 C 10.3 g/m*3 14.28 C 2.8 km/h
1027 03-10-2020 18:00:00 14.45 C 10.22 g/m*3 14.45 C 3.86667 km/h
1028 03-10-2020 19:00:00 11.88333 C 9.51 g/m*3 11.88 C 2 km/h
1029 03-10-2020 20:00:00 11.4 C 9.23 g/m*3 11.4 C 2.26667 km/h
1030 03-10-2020 21:00:00 10.81667 C 9.13 g/m*3 10.82 C 0.8 km/h
1031 03-10-2020 22:00:00 10.35833 C 8.99 g/m*3 10.36 C 2.66667 km/h
1032 03-10-2020 23:00:00 11.19167 C 9.28 g/m*3 11.19 C 4.95 km/h
1033 04-10-2020 00:00:00 10.66667 C 8.95 g/m*3 10.67 C 2.66667 km/h
1034 04-10-2020 01:00:00 10.63333 C 9.13 g/m*3 10.63 C 1.2 km/h
1035 04-10-2020 02:00:00 10.38333 C 9.05 g/m*3 10.38 C 2.26667 km/h
1036 04-10-2020 03:00:00 9.925 C 8.83 g/m*3 9.93 C 1.6 km/h
1037 04-10-2020 04:00:00 9.96667 C 8.99 g/m*3 9.97 C 2.66667 km/h
1038 04-10-2020 05:00:00 10.38333 C 9.19 g/m*3 10.38 C 4.95 km/h
1039 04-10-2020 06:00:00 10.70833 C 9.34 g/m*3 10.71 C 4.95 km/h
1040 04-10-2020 07:00:00 10.53333 C 9.19 g/m*3 10.53 C 4.14167 km/h
1041 04-10-2020 08:00:00 10.43333 C 9.2 g/m*3 10.43 C 2 km/h
1042 04-10-2020 09:00:00 10.93333 C 9.33 g/m*3 10.79 C 5.075 km/h
1043 04-10-2020 10:00:00 11.56667 C 9.27 g/m*3 11.57 C 6.575 km/h
1044 04-10-2020 11:00:00 12.54167 C 8.98 g/m*3 12.54 C 16.9 km/h
1045 04-10-2020 12:00:00 13.175 C 8.75 g/m*3 13.18 C 12.63333 km/h
1046 04-10-2020 13:00:00 13.49167 C 8.29 g/m*3 13.49 C 12.36667 km/h
1047 04-10-2020 14:00:00 14.15 C 8.51 g/m*3 14.15 C 12.1 km/h
1048 04-10-2020 15:00:00 14.96667 C 8.66 g/m*3 14.97 C 8.86667 km/h
1049 04-10-2020 16:00:00 15.38333 C 8.65 g/m*3 15.38 C 6.85 km/h
1050 04-10-2020 17:00:00 15.00833 C 9.16 g/m*3 15.01 C 2.26667 km/h
Sensor: Nr:Datum:Temp:Abs-Feuchte:Windchill:Wind:
Aussen-T/F 1051 04-10-2020 18:00:00 14.2 C 9.61 g/m*3 14.2 C 1.86667 km/h
1052 04-10-2020 19:00:00 12.56667 C 9.45 g/m*3 12.57 C 4.69167 km/h
1053 04-10-2020 20:00:00 11.63333 C 9.5 g/m*3 11.63 C 0.93333 km/h
1054 04-10-2020 21:00:00 11.05 C 9.39 g/m*3 11.05 C 2.00833 km/h
1055 04-10-2020 22:00:00 9.9 C 8.77 g/m*3 9.9 C 1.33333 km/h
1056 04-10-2020 23:00:00 8.96667 C 8.34 g/m*3 8.97 C 0 km/h
1057 05-10-2020 00:00:00 8.61667 C 8.2 g/m*3 8.62 C 3.21667 km/h
1058 05-10-2020 01:00:00 8.59167 C 8.23 g/m*3 8.59 C 2.53333 km/h
1059 05-10-2020 02:00:00 9.175 C 8.58 g/m*3 9.18 C 3.06667 km/h
1060 05-10-2020 03:00:00 9.11667 C 8.56 g/m*3 9.12 C 1.33333 km/h
1061 05-10-2020 04:00:00 8.94167 C 8.48 g/m*3 8.94 C 2.66667 km/h
1062 05-10-2020 05:00:00 8.59167 C 8.28 g/m*3 8.59 C 3.33333 km/h
1063 05-10-2020 06:00:00 8.51667 C 8.29 g/m*3 8.52 C 3.33333 km/h
1064 05-10-2020 07:00:00 8.76667 C 8.42 g/m*3 8.77 C 1.86667 km/h
1065 05-10-2020 08:00:00 9.23333 C 8.68 g/m*3 9.23 C 2.8 km/h
1066 05-10-2020 09:00:00 10.125 C 9.19 g/m*3 10.13 C 2.93333 km/h
1067 05-10-2020 10:00:00 10.275 C 9.15 g/m*3 10.04 C 5.09167 km/h
1068 05-10-2020 11:00:00 11.60833 C 9.15 g/m*3 11.61 C 8.46667 km/h
1069 05-10-2020 12:00:00 12.90833 C 9.27 g/m*3 12.91 C 8.325 km/h
1070 05-10-2020 13:00:00 12.875 C 9.49 g/m*3 12.88 C 6.16667 km/h
1071 05-10-2020 14:00:00 13.1 C 10.07 g/m*3 13.1 C 4.29167 km/h
1072 05-10-2020 15:00:00 14.04167 C 10.13 g/m*3 14.04 C 9.54167 km/h
1073 05-10-2020 16:00:00 14.275 C 9.97 g/m*3 14.28 C 10.09167 km/h
1074 05-10-2020 17:00:00 13.65833 C 9.73 g/m*3 13.66 C 10.20833 km/h
1075 05-10-2020 18:00:00 13.375 C 9.75 g/m*3 13.38 C 3.34167 km/h
Sensor: Nr:Datum:Temp:Abs-Feuchte:Windchill:Wind:
Aussen-T/F 1076 05-10-2020 19:00:00 12.825 C 9.76 g/m*3 12.83 C 1.46667 km/h
1077 05-10-2020 20:00:00 12.09167 C 9.61 g/m*3 12.09 C 3.475 km/h
1078 05-10-2020 21:00:00 11.90833 C 9.74 g/m*3 11.91 C 0.8 km/h
1079 05-10-2020 22:00:00 11.59167 C 9.68 g/m*3 11.59 C 0.53333 km/h
1080 05-10-2020 23:00:00 11.53333 C 9.82 g/m*3 11.53 C 1.46667 km/h
1081 06-10-2020 00:00:00 11.79167 C 10.04 g/m*3 11.79 C 0.66667 km/h
1082 06-10-2020 01:00:00 11.8 C 10.1 g/m*3 11.8 C 2.14167 km/h
1083 06-10-2020 02:00:00 11.8 C 10.1 g/m*3 11.8 C 2.68333 km/h
1084 06-10-2020 03:00:00 11.93333 C 10.21 g/m*3 11.93 C 4.825 km/h
1085 06-10-2020 04:00:00 12.275 C 10.32 g/m*3 12.28 C 16.23333 km/h
1086 06-10-2020 05:00:00 12.11667 C 9.89 g/m*3 12.12 C 22.8 km/h
1087 06-10-2020 06:00:00 11.8 C 9.39 g/m*3 11.8 C 16.63333 km/h
1088 06-10-2020 07:00:00 11.70833 C 9.24 g/m*3 11.71 C 11.55833 km/h
1089 06-10-2020 08:00:00 11.95 C 9.26 g/m*3 11.95 C 8.73333 km/h
1090 06-10-2020 09:00:00 12.60833 C 9.52 g/m*3 12.61 C 5.075 km/h
1091 06-10-2020 10:00:00 13.3 C 9.8 g/m*3 13.3 C 6.99167 km/h
1092 06-10-2020 11:00:00 13.88333 C 10.12 g/m*3 13.88 C 11.3 km/h
1093 06-10-2020 12:00:00 14.80833 C 10.6 g/m*3 14.81 C 11.41667 km/h
1094 06-10-2020 13:00:00 15.05 C 10.65 g/m*3 15.05 C 8.06667 km/h
1095 06-10-2020 14:00:00 15.05 C 11.18 g/m*3 15.05 C 9.8 km/h
1096 06-10-2020 15:00:00 15.35833 C 10.91 g/m*3 15.36 C 14.76667 km/h
1097 06-10-2020 16:00:00 15.425 C 10.74 g/m*3 15.43 C 12.09167 km/h
1098 06-10-2020 17:00:00 14.78333 C 10.68 g/m*3 14.78 C 10.225 km/h
1099 06-10-2020 18:00:00 13.36667 C 10.46 g/m*3 13.37 C 8.88333 km/h
1100 06-10-2020 19:00:00 12.94167 C 10.1 g/m*3 12.94 C 9.525 km/h
Sensor: Nr:Datum:Temp:Abs-Feuchte:Windchill:Wind:
Aussen-T/F 1101 06-10-2020 20:00:00 12.86667 C 9.99 g/m*3 12.87 C 7.375 km/h
1102 06-10-2020 21:00:00 12.675 C 9.86 g/m*3 12.68 C 6.575 km/h
1103 06-10-2020 22:00:00 12.775 C 9.81 g/m*3 12.78 C 12.5 km/h
1104 06-10-2020 23:00:00 12.66667 C 9.66 g/m*3 12.67 C 12.5 km/h
1105 07-10-2020 00:00:00 12.25 C 9.53 g/m*3 12.25 C 9.40833 km/h
1106 07-10-2020 01:00:00 12.325 C 9.62 g/m*3 12.33 C 9.4 km/h
1107 07-10-2020 02:00:00 11.90833 C 9.62 g/m*3 11.91 C 11.825 km/h
1108 07-10-2020 03:00:00 11.85 C 9.54 g/m*3 11.85 C 11.83333 km/h
1109 07-10-2020 04:00:00 12.2 C 9.48 g/m*3 12.2 C 11.95833 km/h
1110 07-10-2020 05:00:00 12.15 C 9.43 g/m*3 12.15 C 10.23333 km/h
1111 07-10-2020 06:00:00 11.99167 C 9.43 g/m*3 11.99 C 12.225 km/h
1112 07-10-2020 07:00:00 12.10833 C 9.51 g/m*3 12.11 C 13.025 km/h
1113 07-10-2020 08:00:00 12.50833 C 9.5 g/m*3 12.51 C 12.63333 km/h
1114 07-10-2020 09:00:00 12.76667 C 9.57 g/m*3 12.77 C 11.025 km/h
1115 07-10-2020 10:00:00 13.24167 C 9.65 g/m*3 13.24 C 12.76667 km/h
1116 07-10-2020 11:00:00 13.8 C 9.33 g/m*3 13.8 C 13.29167 km/h
1117 07-10-2020 12:00:00 14.725 C 9.39 g/m*3 14.73 C 15.3 km/h
1118 07-10-2020 13:00:00 15.09167 C 9.57 g/m*3 15.09 C 13.69167 km/h
1119 07-10-2020 14:00:00 15.075 C 9.75 g/m*3 15.08 C 13.825 km/h
1120 07-10-2020 15:00:00 14.225 C 9.97 g/m*3 14.23 C 11.55833 km/h
1121 07-10-2020 16:00:00 14.81667 C 10.01 g/m*3 14.82 C 8.98333 km/h
1122 07-10-2020 17:00:00 14.86667 C 9.6 g/m*3 14.87 C 9.53333 km/h
1123 07-10-2020 18:00:00 14.50833 C 9.35 g/m*3 14.51 C 7.65833 km/h
1124 07-10-2020 19:00:00 14 C 8.63 g/m*3 14 C 11.03333 km/h
1125 07-10-2020 20:00:00 13.55 C 8.63 g/m*3 13.55 C 8.46667 km/h
Sensor: Nr:Datum:Temp:Abs-Feuchte:Windchill:Wind:
Aussen-T/F 1126 07-10-2020 21:00:00 12.85 C 8.81 g/m*3 12.85 C 5.76667 km/h
1127 07-10-2020 22:00:00 12.24167 C 8.92 g/m*3 12.24 C 4.66667 km/h
1128 07-10-2020 23:00:00 11.61667 C 8.84 g/m*3 11.62 C 2.53333 km/h
1129 08-10-2020 00:00:00 10.375 C 8.49 g/m*3 10.38 C 3.74167 km/h
1130 08-10-2020 01:00:00 9.44167 C 8.23 g/m*3 9.44 C 1.6 km/h
1131 08-10-2020 02:00:00 8.89167 C 8.07 g/m*3 8.89 C 0.53333 km/h
1132 08-10-2020 03:00:00 8.325 C 7.88 g/m*3 8.32 C 0.53333 km/h
1133 08-10-2020 04:00:00 8.46667 C 8.07 g/m*3 8.47 C 0 km/h
1134 08-10-2020 05:00:00 9.06667 C 8.42 g/m*3 9.07 C 0.26667 km/h
1135 08-10-2020 06:00:00 9.66667 C 8.82 g/m*3 9.67 C 0 km/h
1136 08-10-2020 07:00:00 10.01667 C 9.03 g/m*3 10.02 C 0 km/h
1137 08-10-2020 08:00:00 10.76667 C 9.52 g/m*3 10.77 C 0.8 km/h
1138 08-10-2020 09:00:00 11.83333 C 10.23 g/m*3 11.83 C 4.29167 km/h
1139 08-10-2020 10:00:00 12.59167 C 10.7 g/m*3 12.59 C 3.49167 km/h
1140 08-10-2020 11:00:00 13.85 C 11.23 g/m*3 13.85 C 9.13333 km/h
1141 08-10-2020 12:00:00 15.33333 C 11.28 g/m*3 15.33 C 19.05 km/h
1142 08-10-2020 13:00:00 15.825 C 11.28 g/m*3 15.83 C 25.075 km/h
1143 08-10-2020 14:00:00 16.15 C 11.38 g/m*3 16.15 C 17.7 km/h
1144 08-10-2020 15:00:00 16.425 C 11.37 g/m*3 16.43 C 18.23333 km/h
1145 08-10-2020 16:00:00 16.39167 C 11.49 g/m*3 16.39 C 17.43333 km/h
1146 08-10-2020 17:00:00 16.53333 C 11.47 g/m*3 16.53 C 11.80833 km/h
1147 08-10-2020 18:00:00 16.525 C 11.45 g/m*3 16.52 C 11.55 km/h
1148 08-10-2020 19:00:00 16.30833 C 11.41 g/m*3 16.31 C 16.775 km/h
1149 08-10-2020 20:00:00 16.29167 C 11.57 g/m*3 16.29 C 20.1 km/h
1150 08-10-2020 21:00:00 16.23333 C 11.72 g/m*3 16.23 C 17.43333 km/h
Sensor: Nr:Datum:Temp:Abs-Feuchte:Windchill:Wind:
Aussen-T/F 1151 08-10-2020 22:00:00 16.46667 C 11.78 g/m*3 16.47 C 19.96667 km/h
1152 08-10-2020 23:00:00 16.28333 C 11.82 g/m*3 16.28 C 18.775 km/h
1153 09-10-2020 00:00:00 16.18333 C 11.76 g/m*3 16.18 C 19.84167 km/h
1154 09-10-2020 01:00:00 15.38333 C 11.41 g/m*3 15.38 C 11.55833 km/h
1155 09-10-2020 02:00:00 13.83333 C 10.99 g/m*3 13.83 C 1.86667 km/h
1156 09-10-2020 03:00:00 13.35 C 10.89 g/m*3 13.35 C 1.06667 km/h
1157 09-10-2020 04:00:00 12.825 C 10.63 g/m*3 12.83 C 2.13333 km/h
1158 09-10-2020 05:00:00 12.66667 C 10.55 g/m*3 12.67 C 0 km/h
1159 09-10-2020 06:00:00 12.6 C 10.55 g/m*3 12.6 C 0 km/h
1160 09-10-2020 07:00:00 12.58333 C 10.61 g/m*3 12.58 C 0 km/h
1161 09-10-2020 08:00:00 12.65833 C 10.66 g/m*3 12.66 C 0 km/h
1162 09-10-2020 09:00:00 12.875 C 10.8 g/m*3 12.88 C 1.6 km/h
1163 09-10-2020 10:00:00 12.96667 C 10.94 g/m*3 12.97 C 0.8 km/h
1164 09-10-2020 11:00:00 13.375 C 11.26 g/m*3 13.38 C 0 km/h
1165 09-10-2020 12:00:00 14.125 C 11.79 g/m*3 14.13 C 1.46667 km/h
1166 09-10-2020 13:00:00 14.775 C 12.26 g/m*3 14.78 C 4.425 km/h
1167 09-10-2020 14:00:00 14.9 C 12.18 g/m*3 14.9 C 7.24167 km/h
1168 09-10-2020 15:00:00 14.69167 C 11.93 g/m*3 14.69 C 5.48333 km/h
1169 09-10-2020 16:00:00 13.64167 C 11.17 g/m*3 13.64 C 2.14167 km/h
1170 09-10-2020 17:00:00 13.1 C 10.89 g/m*3 13.1 C 4.825 km/h
1171 09-10-2020 18:00:00 12.20833 C 10.26 g/m*3 12.21 C 4.26667 km/h
1172 09-10-2020 19:00:00 11.14167 C 9.61 g/m*3 11.14 C 4.28333 km/h
1173 09-10-2020 20:00:00 10.31667 C 9.18 g/m*3 10.32 C 0 km/h
1174 09-10-2020 21:00:00 10.425 C 9.27 g/m*3 10.43 C 0 km/h
1175 09-10-2020 22:00:00 10.275 C 9.22 g/m*3 10.28 C 0 km/h
Sensor: Nr:Datum:Temp:Abs-Feuchte:Windchill:Wind:
Aussen-T/F 1176 09-10-2020 23:00:00 10.875 C 9.63 g/m*3 10.88 C 0 km/h
1177 10-10-2020 00:00:00 10.89167 C 9.64 g/m*3 10.89 C 0.53333 km/h
1178 10-10-2020 01:00:00 10 C 9.08 g/m*3 10 C 4.275 km/h
1179 10-10-2020 02:00:00 9.60833 C 8.89 g/m*3 9.61 C 2.26667 km/h
1180 10-10-2020 03:00:00 9.61667 C 8.9 g/m*3 9.62 C 2.8 km/h
1181 10-10-2020 04:00:00 9.86667 C 9.04 g/m*3 9.87 C 2.93333 km/h
1182 10-10-2020 05:00:00 9.81667 C 9.01 g/m*3 9.82 C 0.53333 km/h
1183 10-10-2020 06:00:00 9.51667 C 8.84 g/m*3 9.52 C 0.13333 km/h
1184 10-10-2020 07:00:00 8.925 C 8.51 g/m*3 8.93 C 3.06667 km/h
1185 10-10-2020 08:00:00 8.375 C 8.22 g/m*3 8.38 C 3.2 km/h
1186 10-10-2020 09:00:00 8.275 C 8.16 g/m*3 8.28 C 1.73333 km/h
1187 10-10-2020 10:00:00 8.18333 C 8.11 g/m*3 8.18 C 4.675 km/h
1188 10-10-2020 11:00:00 9.075 C 8.42 g/m*3 8.16 C 6.96667 km/h
1189 10-10-2020 12:00:00 10.99167 C 7.93 g/m*3 9.43 C 12.625 km/h
1190 10-10-2020 13:00:00 12.24167 C 7.51 g/m*3 12.24 C 12.89167 km/h
1191 10-10-2020 14:00:00 12.5 C 7.31 g/m*3 12.5 C 9.825 km/h
1192 10-10-2020 15:00:00 12.65 C 7.23 g/m*3 12.65 C 9.95 km/h
1193 10-10-2020 16:00:00 12.675 C 7.24 g/m*3 12.68 C 9.675 km/h
1194 10-10-2020 17:00:00 12.44167 C 7.47 g/m*3 12.44 C 6.98333 km/h
1195 10-10-2020 18:00:00 11.80833 C 7.84 g/m*3 11.81 C 5.86667 km/h
1196 10-10-2020 19:00:00 8.66667 C 7.17 g/m*3 7.78 C 6.56667 km/h
1197 10-10-2020 20:00:00 7.39167 C 6.89 g/m*3 6.76 C 5.09167 km/h
1198 10-10-2020 21:00:00 6.65 C 6.86 g/m*3 6.65 C 3.475 km/h
1199 10-10-2020 22:00:00 8.26667 C 7.31 g/m*3 7.22 C 6.96667 km/h
1200 10-10-2020 23:00:00 9.64167 C 7.37 g/m*3 8.54 C 8.2 km/h
Sensor: Nr:Datum:Temp:Abs-Feuchte:Windchill:Wind:
Aussen-T/F 1201 11-10-2020 00:00:00 9.45 C 7.39 g/m*3 8.26 C 8.475 km/h
1202 11-10-2020 01:00:00 9.64167 C 7.55 g/m*3 8.63 C 7.775 km/h
1203 11-10-2020 02:00:00 9.425 C 7.64 g/m*3 9.04 C 5.20833 km/h
1204 11-10-2020 03:00:00 9.35 C 7.76 g/m*3 9.35 C 3.2 km/h
1205 11-10-2020 04:00:00 9.15833 C 7.81 g/m*3 9.16 C 3.88333 km/h
1206 11-10-2020 05:00:00 8.96667 C 7.83 g/m*3 8.97 C 2.26667 km/h
1207 11-10-2020 06:00:00 8.76667 C 7.8 g/m*3 8.77 C 0 km/h
1208 11-10-2020 07:00:00 8.60833 C 7.9 g/m*3 8.61 C 1.6 km/h
1209 11-10-2020 08:00:00 8.20833 C 7.82 g/m*3 8.21 C 1.33333 km/h
1210 11-10-2020 09:00:00 8.54167 C 8.05 g/m*3 8.54 C 2.13333 km/h
1211 11-10-2020 10:00:00 9.21667 C 8.22 g/m*3 9.22 C 1.86667 km/h
1212 11-10-2020 11:00:00 9.475 C 8.13 g/m*3 9.48 C 0.93333 km/h
1213 11-10-2020 12:00:00 10.50833 C 8.26 g/m*3 10.51 C 4.15 km/h
1214 11-10-2020 13:00:00 11.54167 C 8.03 g/m*3 11.54 C 3.75 km/h
1215 11-10-2020 14:00:00 12.44167 C 7.57 g/m*3 12.44 C 4.69167 km/h
1216 11-10-2020 15:00:00 13.09167 C 7.2 g/m*3 13.09 C 8.19167 km/h
1217 11-10-2020 16:00:00 12.90833 C 7.3 g/m*3 12.91 C 9.41667 km/h
1218 11-10-2020 17:00:00 12.575 C 7.63 g/m*3 12.58 C 3.075 km/h
1219 11-10-2020 18:00:00 11.86667 C 8.34 g/m*3 11.87 C 2.4 km/h
1220 11-10-2020 19:00:00 9.91667 C 7.73 g/m*3 9.92 C 3.46667 km/h
1221 11-10-2020 20:00:00 10.20833 C 8.01 g/m*3 9.81 C 5.63333 km/h
1222 11-10-2020 21:00:00 9.51667 C 8.19 g/m*3 9.52 C 4.54167 km/h
1223 11-10-2020 22:00:00 9.14167 C 8.24 g/m*3 9.14 C 1.46667 km/h
1224 11-10-2020 23:00:00 9.14167 C 8.33 g/m*3 9.14 C 1.6 km/h
1225 12-10-2020 00:00:00 9.13333 C 8.36 g/m*3 9.13 C 2 km/h
Sensor: Nr:Datum:Temp:Abs-Feuchte:Windchill:Wind:
Aussen-T/F 1226 12-10-2020 01:00:00 9.01667 C 8.33 g/m*3 9.02 C 1.86667 km/h
1227 12-10-2020 02:00:00 9.08333 C 8.42 g/m*3 9.08 C 0.4 km/h
1228 12-10-2020 03:00:00 8.95 C 8.35 g/m*3 8.95 C 0.13333 km/h
1229 12-10-2020 04:00:00 8.9 C 8.32 g/m*3 8.9 C 0.26667 km/h
1230 12-10-2020 05:00:00 8.89167 C 8.32 g/m*3 8.89 C 0.8 km/h
1231 12-10-2020 06:00:00 8.69167 C 8.21 g/m*3 8.69 C 1.6 km/h
1232 12-10-2020 07:00:00 8.71667 C 8.25 g/m*3 8.72 C 1.06667 km/h
1233 12-10-2020 08:00:00 8.80833 C 8.28 g/m*3 8.81 C 0.66667 km/h
1234 12-10-2020 09:00:00 9.16667 C 8.49 g/m*3 9.17 C 0.8 km/h
1235 12-10-2020 10:00:00 9.64167 C 8.69 g/m*3 9.64 C 4.53333 km/h
1236 12-10-2020 11:00:00 10.68333 C 8.95 g/m*3 10.68 C 3.06667 km/h
1237 12-10-2020 12:00:00 11.63333 C 8.99 g/m*3 11.63 C 3.33333 km/h
1238 12-10-2020 13:00:00 12.28333 C 8.9 g/m*3 12.28 C 6.30833 km/h
1239 12-10-2020 14:00:00 12.24167 C 8.99 g/m*3 12.24 C 6.575 km/h
1240 12-10-2020 15:00:00 12.19167 C 8.83 g/m*3 12.19 C 8.31667 km/h
1241 12-10-2020 16:00:00 11.06667 C 9 g/m*3 11.07 C 2.53333 km/h
1242 12-10-2020 17:00:00 11.79167 C 9.1 g/m*3 11.79 C 1.6 km/h
1243 12-10-2020 18:00:00 10.66667 C 8.43 g/m*3 10.67 C 4.54167 km/h
1244 12-10-2020 19:00:00 8.3 C 7.55 g/m*3 8.3 C 2 km/h
1245 12-10-2020 20:00:00 7.10833 C 7.19 g/m*3 7.11 C 0 km/h
1246 12-10-2020 21:00:00 6.55 C 7.05 g/m*3 6.55 C 0.53333 km/h
1247 12-10-2020 22:00:00 6.33333 C 7.02 g/m*3 6.33 C 0.13333 km/h
1248 12-10-2020 23:00:00 5.94167 C 6.86 g/m*3 5.94 C 0 km/h
1249 13-10-2020 00:00:00 5.3 C 6.58 g/m*3 5.3 C 0 km/h
1250 13-10-2020 01:00:00 5.075 C 6.52 g/m*3 5.08 C 0 km/h
Sensor: Nr:Datum:Temp:Abs-Feuchte:Windchill:Wind:
Aussen-T/F 1251 13-10-2020 02:00:00 5.70833 C 6.84 g/m*3 5.71 C 0.13333 km/h
1252 13-10-2020 03:00:00 6.2 C 7.06 g/m*3 6.2 C 0.4 km/h
1253 13-10-2020 04:00:00 6.15833 C 7.04 g/m*3 6.16 C 0 km/h
1254 13-10-2020 05:00:00 6.25833 C 7.09 g/m*3 6.26 C 0 km/h
1255 13-10-2020 06:00:00 6.35 C 7.2 g/m*3 6.35 C 0 km/h
1256 13-10-2020 07:00:00 6.325 C 7.19 g/m*3 6.33 C 0 km/h
1257 13-10-2020 08:00:00 6.61667 C 7.33 g/m*3 6.62 C 0.13333 km/h
1258 13-10-2020 09:00:00 7.05833 C 7.54 g/m*3 7.06 C 0.13333 km/h
1259 13-10-2020 10:00:00 7.41667 C 7.65 g/m*3 6.7 C 5.35833 km/h
1260 13-10-2020 11:00:00 8.08333 C 7.8 g/m*3 8.08 C 4.275 km/h
1261 13-10-2020 12:00:00 9.225 C 8.09 g/m*3 9.23 C 4.00833 km/h
1262 13-10-2020 13:00:00 10.16667 C 8.17 g/m*3 10.17 C 4.14167 km/h
1263 13-10-2020 14:00:00 10.6 C 8.17 g/m*3 10.2 C 5.86667 km/h
1264 13-10-2020 15:00:00 10.91667 C 8.12 g/m*3 10.92 C 3.88333 km/h
1265 13-10-2020 16:00:00 10.59167 C 8.12 g/m*3 10.59 C 1.73333 km/h
1266 13-10-2020 17:00:00 10.325 C 8.25 g/m*3 10.33 C 0.93333 km/h
1267 13-10-2020 18:00:00 8.75 C 7.65 g/m*3 8.75 C 2.8 km/h
1268 13-10-2020 19:00:00 7.19167 C 7.18 g/m*3 7.19 C 1.2 km/h
1269 13-10-2020 20:00:00 6.40833 C 6.98 g/m*3 6.41 C 0.66667 km/h
1270 13-10-2020 21:00:00 5.89167 C 6.8 g/m*3 5.89 C 1.73333 km/h
1271 13-10-2020 22:00:00 5.36667 C 6.61 g/m*3 5.37 C 2.66667 km/h
1272 13-10-2020 23:00:00 4.98333 C 6.45 g/m*3 4.98 C 0.13333 km/h
1273 14-10-2020 00:00:00 5.275 C 6.64 g/m*3 5.28 C 0 km/h
1274 14-10-2020 01:00:00 5.03333 C 6.53 g/m*3 5.03 C 0 km/h
1275 14-10-2020 02:00:00 4.83333 C 6.45 g/m*3 4.83 C 0 km/h
Sensor: Nr:Datum:Temp:Abs-Feuchte:Windchill:Wind:
Aussen-T/F 1276 14-10-2020 03:00:00 4.25 C 6.21 g/m*3 4.25 C 0 km/h
1277 14-10-2020 04:00:00 3.675 C 5.97 g/m*3 3.68 C 0 km/h
1278 14-10-2020 05:00:00 4.25 C 6.21 g/m*3 4.25 C 0 km/h
1279 14-10-2020 06:00:00 4.56667 C 6.4 g/m*3 4.57 C 0 km/h
1280 14-10-2020 07:00:00 4.8 C 6.5 g/m*3 4.8 C 0.13333 km/h
1281 14-10-2020 08:00:00 4.95833 C 6.57 g/m*3 4.96 C 0 km/h
1282 14-10-2020 09:00:00 5.925 C 7.01 g/m*3 5.93 C 0.13333 km/h
1283 14-10-2020 10:00:00 7.06667 C 7.55 g/m*3 7.07 C 0.53333 km/h
1284 14-10-2020 11:00:00 8.1 C 8.03 g/m*3 8.1 C 0.93333 km/h
1285 14-10-2020 12:00:00 9.13333 C 8.22 g/m*3 9.13 C 4.14167 km/h
1286 14-10-2020 13:00:00 10.51667 C 8.46 g/m*3 10.52 C 4.95 km/h
1287 14-10-2020 14:00:00 11.51667 C 8.52 g/m*3 11.52 C 8.325 km/h
1288 14-10-2020 15:00:00 11.80833 C 8.12 g/m*3 11.81 C 9.95833 km/h
1289 14-10-2020 16:00:00 11.70833 C 7.58 g/m*3 11.71 C 10.225 km/h
1290 14-10-2020 17:00:00 11.26667 C 7.79 g/m*3 11.27 C 8.875 km/h
1291 14-10-2020 18:00:00 10.80833 C 7.7 g/m*3 9.74 C 9.14167 km/h
1292 14-10-2020 19:00:00 10.35 C 7.75 g/m*3 10.35 C 4.675 km/h
1293 14-10-2020 20:00:00 9.84167 C 7.65 g/m*3 8.78 C 8.2 km/h
1294 14-10-2020 21:00:00 9.225 C 7.74 g/m*3 9.23 C 4.28333 km/h
1295 14-10-2020 22:00:00 8.825 C 7.74 g/m*3 8.82 C 3.475 km/h
1296 14-10-2020 23:00:00 8.40833 C 7.8 g/m*3 8.41 C 0.93333 km/h
1297 15-10-2020 00:00:00 8.15833 C 7.83 g/m*3 8.16 C 0.8 km/h
1298 15-10-2020 01:00:00 8.08333 C 7.86 g/m*3 8.08 C 1.2 km/h
1299 15-10-2020 02:00:00 7.975 C 7.84 g/m*3 7.98 C 0.93333 km/h
1300 15-10-2020 03:00:00 7.94167 C 7.84 g/m*3 7.94 C 1.2 km/h
Sensor: Nr:Datum:Temp:Abs-Feuchte:Windchill:Wind:
Aussen-T/F 1301 15-10-2020 04:00:00 7.91667 C 7.89 g/m*3 7.92 C 0.93333 km/h
1302 15-10-2020 05:00:00 7.9 C 7.89 g/m*3 7.9 C 0.93333 km/h
1303 15-10-2020 06:00:00 7.81667 C 7.84 g/m*3 7.82 C 1.06667 km/h
1304 15-10-2020 07:00:00 7.83333 C 7.85 g/m*3 7.83 C 0.8 km/h
1305 15-10-2020 08:00:00 7.90833 C 7.89 g/m*3 7.91 C 0.53333 km/h
1306 15-10-2020 09:00:00 8.15 C 8.03 g/m*3 8.15 C 0.26667 km/h
1307 15-10-2020 10:00:00 8.4 C 8.21 g/m*3 8.4 C 0.26667 km/h
1308 15-10-2020 11:00:00 8.7 C 8.32 g/m*3 8.7 C 1.33333 km/h
1309 15-10-2020 12:00:00 9.24167 C 8.51 g/m*3 9.24 C 3.21667 km/h
1310 15-10-2020 13:00:00 9.96667 C 8.52 g/m*3 9.01 C 7.79167 km/h
1311 15-10-2020 14:00:00 10.375 C 8.48 g/m*3 9.25 C 9.03333 km/h
1312 15-10-2020 15:00:00 10.61667 C 8.44 g/m*3 9.03 C 12.225 km/h
1313 15-10-2020 16:00:00 10.7 C 8.42 g/m*3 9.71 C 8.61667 km/h
1314 15-10-2020 17:00:00 10.71667 C 8.45 g/m*3 10 C 7.25 km/h
1315 15-10-2020 18:00:00 10.625 C 8.45 g/m*3 10.63 C 4.14167 km/h
1316 15-10-2020 19:00:00 10.075 C 8.51 g/m*3 10.07 C 0.93333 km/h
1317 15-10-2020 20:00:00 9.93333 C 8.29 g/m*3 9.93 C 2.94167 km/h
1318 15-10-2020 21:00:00 9.86667 C 8.27 g/m*3 9.87 C 2.13333 km/h
1319 15-10-2020 22:00:00 9.78333 C 8.29 g/m*3 9.78 C 0.66667 km/h
1320 15-10-2020 23:00:00 9.58333 C 8.36 g/m*3 9.58 C 0.13333 km/h
1321 16-10-2020 00:00:00 9.34167 C 8.33 g/m*3 9.34 C 0.26667 km/h
1322 16-10-2020 01:00:00 9.3 C 8.36 g/m*3 9.3 C 0.53333 km/h
1323 16-10-2020 02:00:00 9.30833 C 8.32 g/m*3 9.31 C 0.53333 km/h
1324 16-10-2020 03:00:00 9.325 C 8.22 g/m*3 9.32 C 1.86667 km/h
1325 16-10-2020 04:00:00 9.24167 C 8.16 g/m*3 9.24 C 1.875 km/h
Sensor: Nr:Datum:Temp:Abs-Feuchte:Windchill:Wind:
Aussen-T/F 1326 16-10-2020 05:00:00 8.925 C 8.12 g/m*3 8.93 C 0.4 km/h
1327 16-10-2020 06:00:00 8.63333 C 8.03 g/m*3 8.63 C 1.2 km/h
1328 16-10-2020 07:00:00 8.425 C 7.99 g/m*3 8.43 C 0.8 km/h
1329 16-10-2020 08:00:00 8.4 C 7.97 g/m*3 8.4 C 0 km/h
1330 16-10-2020 09:00:00 8.49167 C 8.07 g/m*3 8.49 C 1.46667 km/h
1331 16-10-2020 10:00:00 8.86667 C 8.26 g/m*3 8.87 C 0.13333 km/h
1332 16-10-2020 11:00:00 9.24167 C 8.41 g/m*3 9.24 C 0 km/h
1333 16-10-2020 12:00:00 9.725 C 8.49 g/m*3 9.73 C 0.4 km/h
1334 16-10-2020 13:00:00 10.24167 C 8.68 g/m*3 10.24 C 0.66667 km/h
1335 16-10-2020 14:00:00 10.60833 C 8.69 g/m*3 10.61 C 3.75833 km/h
1336 16-10-2020 15:00:00 11.04167 C 8.79 g/m*3 11.04 C 2.53333 km/h
1337 16-10-2020 16:00:00 11 C 8.63 g/m*3 11 C 4.68333 km/h
1338 16-10-2020 17:00:00 10.69167 C 8.7 g/m*3 10.69 C 3.86667 km/h
1339 16-10-2020 18:00:00 10.06667 C 8.59 g/m*3 10.07 C 4.95 km/h
1340 16-10-2020 19:00:00 9.275 C 8.37 g/m*3 9.28 C 1.73333 km/h
1341 16-10-2020 20:00:00 8.81667 C 8.21 g/m*3 8.82 C 0.66667 km/h
1342 16-10-2020 21:00:00 8.29167 C 8 g/m*3 8.29 C 4.8 km/h
1343 16-10-2020 22:00:00 7.93333 C 7.84 g/m*3 7.93 C 3.06667 km/h
1344 16-10-2020 23:00:00 7.05 C 7.39 g/m*3 7.05 C 3.6 km/h
1345 17-10-2020 00:00:00 6.06667 C 6.93 g/m*3 6.07 C 2.53333 km/h
1346 17-10-2020 01:00:00 5.34167 C 6.61 g/m*3 5.34 C 0.4 km/h
1347 17-10-2020 02:00:00 4.51667 C 6.28 g/m*3 4.52 C 0 km/h
1348 17-10-2020 03:00:00 4.18333 C 6.18 g/m*3 4.18 C 0 km/h
1349 17-10-2020 04:00:00 3.575 C 5.93 g/m*3 3.58 C 0 km/h
1350 17-10-2020 05:00:00 3.125 C 5.76 g/m*3 3.13 C 0 km/h
Sensor: Nr:Datum:Temp:Abs-Feuchte:Windchill:Wind:
Aussen-T/F 1351 17-10-2020 06:00:00 3.23333 C 5.8 g/m*3 3.23 C 0 km/h
1352 17-10-2020 07:00:00 3.34167 C 5.86 g/m*3 3.34 C 0 km/h
1353 17-10-2020 08:00:00 3.80833 C 6.09 g/m*3 3.81 C 0.13333 km/h
1354 17-10-2020 09:00:00 4.825 C 6.52 g/m*3 4.83 C 2.4 km/h
1355 17-10-2020 10:00:00 5.68333 C 6.9 g/m*3 5.68 C 0.93333 km/h
1356 17-10-2020 11:00:00 6.275 C 7.17 g/m*3 6.28 C 0 km/h
1357 17-10-2020 12:00:00 7.025 C 7.53 g/m*3 7.03 C 0 km/h
1358 17-10-2020 13:00:00 7.54167 C 7.74 g/m*3 7.54 C 0.4 km/h
1359 17-10-2020 14:00:00 8.65833 C 7.99 g/m*3 8.66 C 0.13333 km/h
1360 17-10-2020 15:00:00 9.66667 C 7.91 g/m*3 9.67 C 1.33333 km/h
1361 17-10-2020 16:00:00 9.725 C 7.46 g/m*3 9.73 C 3.48333 km/h
1362 17-10-2020 17:00:00 9.36667 C 7.57 g/m*3 9.37 C 0.53333 km/h
1363 17-10-2020 18:00:00 8.68333 C 7.62 g/m*3 8.68 C 1.46667 km/h
1364 17-10-2020 19:00:00 7.84167 C 7.41 g/m*3 7.84 C 1.86667 km/h
1365 17-10-2020 20:00:00 7.39167 C 7.29 g/m*3 7.39 C 2.4 km/h
1366 17-10-2020 21:00:00 6.61667 C 6.98 g/m*3 6.62 C 2 km/h
1367 17-10-2020 22:00:00 6.30833 C 6.96 g/m*3 6.31 C 0 km/h
1368 17-10-2020 23:00:00 5.90833 C 6.82 g/m*3 5.91 C 0 km/h
1369 18-10-2020 00:00:00 5.975 C 6.88 g/m*3 5.98 C 0 km/h
1370 18-10-2020 01:00:00 6.15 C 7.01 g/m*3 6.15 C 0.26667 km/h
1371 18-10-2020 02:00:00 6.24167 C 7.08 g/m*3 6.24 C 1.86667 km/h
1372 18-10-2020 03:00:00 6.31667 C 7.11 g/m*3 6.32 C 2.13333 km/h
1373 18-10-2020 04:00:00 6.4 C 7.12 g/m*3 6.4 C 2 km/h
1374 18-10-2020 05:00:00 6.29167 C 7.07 g/m*3 6.29 C 1.06667 km/h
1375 18-10-2020 06:00:00 6.375 C 7.14 g/m*3 6.38 C 0.8 km/h
Sensor: Nr:Datum:Temp:Abs-Feuchte:Windchill:Wind:
Aussen-T/F 1376 18-10-2020 07:00:00 6.43333 C 7.17 g/m*3 6.43 C 0.8 km/h
1377 18-10-2020 08:00:00 6.48333 C 7.19 g/m*3 6.48 C 1.2 km/h
1378 18-10-2020 09:00:00 6.93333 C 7.31 g/m*3 6.93 C 4.93333 km/h
1379 18-10-2020 10:00:00 7.49167 C 7.43 g/m*3 6.62 C 5.88333 km/h
1380 18-10-2020 11:00:00 7.95833 C 7.44 g/m*3 6.89 C 6.84167 km/h
1381 18-10-2020 12:00:00 8.89167 C 7.73 g/m*3 8.01 C 6.71667 km/h
1382 18-10-2020 13:00:00 10.125 C 8 g/m*3 9.28 C 7.39167 km/h
1383 18-10-2020 14:00:00 10.475 C 7.94 g/m*3 9.58 C 7.925 km/h
1384 18-10-2020 15:00:00 10.79167 C 8.01 g/m*3 10.31 C 6.29167 km/h
1385 18-10-2020 16:00:00 10.79167 C 8.08 g/m*3 10.79 C 4.01667 km/h
1386 18-10-2020 17:00:00 10.68333 C 8.15 g/m*3 10.68 C 2.55 km/h
1387 18-10-2020 18:00:00 9.91667 C 8.04 g/m*3 9.92 C 2.93333 km/h
1388 18-10-2020 19:00:00 9.28333 C 7.91 g/m*3 9.28 C 2 km/h
1389 18-10-2020 20:00:00 9.20833 C 7.95 g/m*3 9.21 C 2.26667 km/h
1390 18-10-2020 21:00:00 9.225 C 7.97 g/m*3 9.23 C 1.2 km/h
1391 18-10-2020 22:00:00 9.05 C 8.01 g/m*3 9.05 C 1.06667 km/h
1392 18-10-2020 23:00:00 9.05833 C 8 g/m*3 9.06 C 1.73333 km/h
1393 19-10-2020 00:00:00 8.875 C 7.99 g/m*3 8.88 C 0.13333 km/h
1394 19-10-2020 01:00:00 8.66667 C 7.96 g/m*3 8.67 C 0.93333 km/h
1395 19-10-2020 02:00:00 8.65833 C 7.96 g/m*3 8.66 C 0.4 km/h
1396 19-10-2020 03:00:00 8.34167 C 7.86 g/m*3 8.34 C 0.26667 km/h
1397 19-10-2020 04:00:00 8.23333 C 7.89 g/m*3 8.23 C 0.93333 km/h
1398 19-10-2020 05:00:00 8.18333 C 7.86 g/m*3 8.18 C 0.8 km/h
1399 19-10-2020 06:00:00 7.70833 C 7.63 g/m*3 7.71 C 1.2 km/h
1400 19-10-2020 07:00:00 7.40833 C 7.54 g/m*3 7.41 C 0 km/h
Sensor: Nr:Datum:Temp:Abs-Feuchte:Windchill:Wind:
Aussen-T/F 1401 19-10-2020 08:00:00 7.45833 C 7.6 g/m*3 7.46 C 0 km/h
1402 19-10-2020 09:00:00 8.09167 C 7.96 g/m*3 8.09 C 0 km/h
1403 19-10-2020 10:00:00 7.83333 C 7.77 g/m*3 7.83 C 1.33333 km/h
1404 19-10-2020 11:00:00 8.6 C 8.23 g/m*3 8.6 C 2.26667 km/h
1405 19-10-2020 12:00:00 9.83333 C 8.86 g/m*3 9.83 C 0 km/h
1406 19-10-2020 13:00:00 10.53333 C 9.14 g/m*3 10.53 C 1.33333 km/h
1407 19-10-2020 14:00:00 11.93333 C 9.61 g/m*3 11.93 C 0 km/h
1408 19-10-2020 15:00:00 12.95833 C 9.05 g/m*3 12.96 C 0.53333 km/h
1409 19-10-2020 16:00:00 12.53333 C 9.06 g/m*3 12.53 C 3.6 km/h
1410 19-10-2020 17:00:00 10.94167 C 8.24 g/m*3 10.55 C 6.00833 km/h
1411 19-10-2020 18:00:00 8.60833 C 7.52 g/m*3 8.61 C 4.93333 km/h
1412 19-10-2020 19:00:00 7.38333 C 7.2 g/m*3 6.72 C 5.2 km/h
1413 19-10-2020 20:00:00 6.75 C 6.96 g/m*3 5.73 C 6.00833 km/h
1414 19-10-2020 21:00:00 6.44167 C 6.87 g/m*3 5.69 C 5.06667 km/h
1415 19-10-2020 22:00:00 5.76667 C 6.62 g/m*3 5.77 C 0.26667 km/h
1416 19-10-2020 23:00:00 5.28333 C 6.49 g/m*3 5.28 C 1.46667 km/h
1417 20-10-2020 00:00:00 5.20833 C 6.52 g/m*3 5.21 C 2.93333 km/h
1418 20-10-2020 01:00:00 5.15833 C 6.48 g/m*3 5.16 C 3.06667 km/h
1419 20-10-2020 02:00:00 5.14167 C 6.41 g/m*3 5.14 C 2.26667 km/h
1420 20-10-2020 03:00:00 4.9 C 6.37 g/m*3 4.9 C 2.66667 km/h
1421 20-10-2020 04:00:00 4.63333 C 6.29 g/m*3 4.63 C 2.93333 km/h
1422 20-10-2020 05:00:00 4.98333 C 6.49 g/m*3 4.98 C 1.2 km/h
1423 20-10-2020 06:00:00 5.6 C 6.78 g/m*3 5.6 C 0.87273 km/h
1424 20-10-2020 07:00:00 5.825 C 6.87 g/m*3 5.83 C 0.4 km/h
1425 20-10-2020 08:00:00 5.93333 C 6.89 g/m*3 5.93 C 0.53333 km/h
Sensor: Nr:Datum:Temp:Abs-Feuchte:Windchill:Wind:
Aussen-T/F 1426 20-10-2020 09:00:00 6.66667 C 7.28 g/m*3 6.67 C 0.8 km/h
1427 20-10-2020 10:00:00 8.1 C 7.93 g/m*3 8.1 C 0.93333 km/h
1428 20-10-2020 11:00:00 9.83333 C 8.72 g/m*3 9.83 C 0.13333 km/h
1429 20-10-2020 12:00:00 11.45 C 9.45 g/m*3 11.45 C 0 km/h
1430 20-10-2020 13:00:00 11.775 C 9.65 g/m*3 11.78 C 0.4 km/h
1431 20-10-2020 14:00:00 11.89167 C 9.74 g/m*3 11.89 C 0.4 km/h
1432 20-10-2020 15:00:00 12.55833 C 10.03 g/m*3 12.56 C 0.13333 km/h
1433 20-10-2020 16:00:00 12.44167 C 9.98 g/m*3 12.44 C 0.4 km/h
1434 20-10-2020 17:00:00 12.075 C 9.84 g/m*3 12.08 C 0.8 km/h
1435 20-10-2020 18:00:00 11.76667 C 9.74 g/m*3 11.77 C 0.93333 km/h
1436 20-10-2020 19:00:00 11.7 C 9.81 g/m*3 11.7 C 2.66667 km/h
1437 20-10-2020 20:00:00 11.9 C 9.92 g/m*3 11.9 C 2 km/h
1438 20-10-2020 21:00:00 11.76667 C 9.74 g/m*3 11.77 C 1.33333 km/h
1439 20-10-2020 22:00:00 11.6 C 9.67 g/m*3 11.6 C 1.86667 km/h
1440 20-10-2020 23:00:00 11.78333 C 9.78 g/m*3 11.78 C 0.8 km/h
1441 21-10-2020 00:00:00 11.84167 C 9.84 g/m*3 11.84 C 0 km/h
1442 21-10-2020 01:00:00 11.69167 C 9.87 g/m*3 11.69 C 0 km/h
1443 21-10-2020 02:00:00 11.40833 C 9.76 g/m*3 11.41 C 1.73333 km/h
1444 21-10-2020 03:00:00 11.3 C 9.69 g/m*3 11.3 C 2.53333 km/h
1445 21-10-2020 04:00:00 11.36667 C 9.72 g/m*3 11.37 C 2.66667 km/h
1446 21-10-2020 05:00:00 11.79167 C 9.79 g/m*3 11.79 C 2.93333 km/h
1447 21-10-2020 06:00:00 11.95833 C 9.85 g/m*3 11.96 C 3.6 km/h
1448 21-10-2020 07:00:00 12.10833 C 9.88 g/m*3 12.11 C 2 km/h
1449 21-10-2020 08:00:00 12.11667 C 10.06 g/m*3 12.12 C 1.86667 km/h
1450 21-10-2020 09:00:00 12.125 C 10.15 g/m*3 12.13 C 0 km/h
Sensor: Nr:Datum:Temp:Abs-Feuchte:Windchill:Wind:
Aussen-T/F 1451 21-10-2020 10:00:00 12.59167 C 10.45 g/m*3 12.59 C 0 km/h
1452 21-10-2020 11:00:00 14.15833 C 10.68 g/m*3 14.16 C 0.93333 km/h
1453 21-10-2020 12:00:00 16.85833 C 10.63 g/m*3 16.86 C 2.81667 km/h
1454 21-10-2020 13:00:00 18.94167 C 9.78 g/m*3 18.94 C 5.08333 km/h
1455 21-10-2020 14:00:00 19.85833 C 10.7 g/m*3 19.86 C 5.35833 km/h
1456 21-10-2020 15:00:00 21.1 C 10.32 g/m*3 21.1 C 11.13333 km/h
1457 21-10-2020 16:00:00 20.99167 C 10.41 g/m*3 20.99 C 9.54167 km/h
1458 21-10-2020 17:00:00 20.175 C 10.97 g/m*3 20.18 C 5.21667 km/h
1459 21-10-2020 18:00:00 18.21667 C 11.1 g/m*3 18.22 C 4.15 km/h
1460 21-10-2020 19:00:00 16.75 C 10.88 g/m*3 16.75 C 4.95 km/h
1461 21-10-2020 20:00:00 17.23333 C 11.31 g/m*3 17.23 C 5.89167 km/h
1462 21-10-2020 21:00:00 16.08333 C 11.33 g/m*3 16.08 C 3.6 km/h
1463 21-10-2020 22:00:00 15.63333 C 11.58 g/m*3 15.63 C 3.73333 km/h
1464 21-10-2020 23:00:00 15.76667 C 11.55 g/m*3 15.77 C 2.8 km/h
1465 22-10-2020 00:00:00 15.55 C 11.52 g/m*3 15.55 C 0.4 km/h
1466 22-10-2020 01:00:00 14.975 C 11.41 g/m*3 14.98 C 0.4 km/h
1467 22-10-2020 02:00:00 14.6 C 11.32 g/m*3 14.6 C 0 km/h
1468 22-10-2020 03:00:00 14.275 C 11.3 g/m*3 14.28 C 0.13333 km/h
1469 22-10-2020 04:00:00 14.3 C 11.43 g/m*3 14.3 C 1.73333 km/h
1470 22-10-2020 05:00:00 14.33333 C 11.44 g/m*3 14.33 C 0.93333 km/h
1471 22-10-2020 06:00:00 14.30833 C 11.35 g/m*3 14.31 C 1.46667 km/h
1472 22-10-2020 07:00:00 14.14167 C 11.32 g/m*3 14.14 C 0.4 km/h
1473 22-10-2020 08:00:00 13.95833 C 11.17 g/m*3 13.96 C 0.66667 km/h
1474 22-10-2020 09:00:00 14.85833 C 11.71 g/m*3 14.86 C 0.66667 km/h
1475 22-10-2020 10:00:00 15.275 C 11.84 g/m*3 15.28 C 0.93333 km/h
Sensor: Nr:Datum:Temp:Abs-Feuchte:Windchill:Wind:
Aussen-T/F 1476 22-10-2020 11:00:00 16.60833 C 11.93 g/m*3 16.61 C 7.24167 km/h
1477 22-10-2020 12:00:00 17.36667 C 11.93 g/m*3 17.37 C 6.31667 km/h
1478 22-10-2020 13:00:00 18.7 C 11.94 g/m*3 18.7 C 9.25833 km/h
1479 22-10-2020 14:00:00 19.69167 C 12.01 g/m*3 19.69 C 10.74167 km/h
1480 22-10-2020 15:00:00 20.15 C 12.22 g/m*3 20.15 C 10.225 km/h
1481 22-10-2020 16:00:00 20.34167 C 12.64 g/m*3 20.34 C 6.3 km/h
1482 22-10-2020 17:00:00 19.05833 C 12.85 g/m*3 19.06 C 4.13333 km/h
1483 22-10-2020 18:00:00 17.45833 C 12.42 g/m*3 17.46 C 4.53333 km/h
1484 22-10-2020 19:00:00 16.05833 C 11.96 g/m*3 16.06 C 4.26667 km/h
1485 22-10-2020 20:00:00 15.66667 C 11.84 g/m*3 15.67 C 4.26667 km/h
1486 22-10-2020 21:00:00 15.60833 C 11.85 g/m*3 15.61 C 1.33333 km/h
1487 22-10-2020 22:00:00 15.6 C 11.97 g/m*3 15.6 C 1.2 km/h
1488 22-10-2020 23:00:00 15.6 C 12.04 g/m*3 15.6 C 0 km/h
1489 23-10-2020 00:00:00 15.38333 C 11.95 g/m*3 15.38 C 0 km/h
1490 23-10-2020 01:00:00 15.35833 C 11.98 g/m*3 15.36 C 0.13333 km/h
1491 23-10-2020 02:00:00 15.525 C 12.03 g/m*3 15.53 C 0.26667 km/h
1492 23-10-2020 03:00:00 15.6 C 12.1 g/m*3 15.6 C 0.53333 km/h
1493 23-10-2020 04:00:00 15.80833 C 12.03 g/m*3 15.81 C 2.26667 km/h
1494 23-10-2020 05:00:00 16.05833 C 12.03 g/m*3 16.06 C 2.00833 km/h
1495 23-10-2020 06:00:00 15.78333 C 11.89 g/m*3 15.78 C 0.66667 km/h
1496 23-10-2020 07:00:00 15.11667 C 11.84 g/m*3 15.12 C 0.8 km/h
1497 23-10-2020 08:00:00 14.76667 C 11.84 g/m*3 14.77 C 0 km/h
1498 23-10-2020 09:00:00 14.65 C 11.89 g/m*3 14.65 C 0 km/h
1499 23-10-2020 10:00:00 14.75833 C 12.02 g/m*3 14.76 C 0 km/h
1500 23-10-2020 11:00:00 15.25833 C 12.5 g/m*3 15.26 C 0 km/h
Sensor: Nr:Datum:Temp:Abs-Feuchte:Windchill:Wind:
Aussen-T/F 1501 23-10-2020 12:00:00 15.49167 C 12.67 g/m*3 15.49 C 0.66667 km/h
1502 23-10-2020 13:00:00 15.85 C 12.85 g/m*3 15.85 C 1.06667 km/h
1503 23-10-2020 14:00:00 16.23333 C 12.99 g/m*3 16.23 C 1.46667 km/h
1504 23-10-2020 15:00:00 16.58333 C 12.81 g/m*3 16.58 C 3.06667 km/h
1505 23-10-2020 16:00:00 16.55833 C 12.67 g/m*3 16.56 C 2.14167 km/h
1506 23-10-2020 17:00:00 15.79167 C 12.36 g/m*3 15.79 C 2.80833 km/h
1507 23-10-2020 18:00:00 15.09167 C 11.96 g/m*3 15.09 C 3.06667 km/h
1508 23-10-2020 19:00:00 14.19167 C 11.35 g/m*3 14.19 C 4.40833 km/h
1509 23-10-2020 20:00:00 13.38333 C 10.92 g/m*3 13.38 C 2.13333 km/h
1510 23-10-2020 21:00:00 12.83333 C 10.66 g/m*3 12.83 C 3.08333 km/h
1511 23-10-2020 22:00:00 13.175 C 10.96 g/m*3 13.18 C 3.21667 km/h
1512 23-10-2020 23:00:00 12.40833 C 10.44 g/m*3 12.41 C 3.89167 km/h
1513 24-10-2020 00:00:00 12.76667 C 10.7 g/m*3 12.77 C 8.06667 km/h
1514 24-10-2020 01:00:00 12.65833 C 10.52 g/m*3 12.66 C 6.96667 km/h
1515 24-10-2020 02:00:00 12.375 C 10.25 g/m*3 12.38 C 1.6 km/h
1516 24-10-2020 03:00:00 11.5 C 9.78 g/m*3 11.5 C 0.53333 km/h
1517 24-10-2020 04:00:00 11.04167 C 9.59 g/m*3 11.04 C 0 km/h
1518 24-10-2020 05:00:00 11.03333 C 9.63 g/m*3 11.03 C 1.06667 km/h
1519 24-10-2020 06:00:00 11.14167 C 9.7 g/m*3 11.14 C 1.33333 km/h
1520 24-10-2020 07:00:00 11.65833 C 10.12 g/m*3 11.66 C 2.28333 km/h
1521 24-10-2020 08:00:00 11.96667 C 10.2 g/m*3 11.97 C 9 km/h
1522 24-10-2020 09:00:00 13 C 10.14 g/m*3 13 C 18.64167 km/h
1523 24-10-2020 10:00:00 13.44167 C 9.98 g/m*3 13.44 C 14.9 km/h
1524 24-10-2020 11:00:00 13.36667 C 9.08 g/m*3 13.37 C 18.23333 km/h
1525 24-10-2020 12:00:00 14.45 C 9.54 g/m*3 14.45 C 10.075 km/h
Sensor: Nr:Datum:Temp:Abs-Feuchte:Windchill:Wind:
Aussen-T/F 1526 24-10-2020 13:00:00 15.28333 C 9.87 g/m*3 15.28 C 7.925 km/h
1527 24-10-2020 14:00:00 15.28333 C 10.03 g/m*3 15.28 C 7.23333 km/h
1528 24-10-2020 15:00:00 15.45833 C 10.15 g/m*3 15.46 C 6.56667 km/h
1529 24-10-2020 16:00:00 15.275 C 10.26 g/m*3 15.28 C 4.14167 km/h
1530 24-10-2020 17:00:00 15.025 C 10.32 g/m*3 15.03 C 2.94167 km/h
1531 24-10-2020 18:00:00 14.575 C 10.27 g/m*3 14.58 C 3.06667 km/h
1532 24-10-2020 19:00:00 14.26667 C 10.31 g/m*3 14.27 C 3.20833 km/h
1533 24-10-2020 20:00:00 14.26667 C 10.36 g/m*3 14.27 C 5.08333 km/h
1534 24-10-2020 21:00:00 14.10833 C 10.43 g/m*3 14.11 C 3.06667 km/h
1535 24-10-2020 22:00:00 13.94167 C 10.43 g/m*3 13.94 C 3.75 km/h
1536 24-10-2020 23:00:00 13.90833 C 10.4 g/m*3 13.91 C 3.88333 km/h
1537 25-10-2020 00:00:00 14.18333 C 10.4 g/m*3 14.18 C 4.54167 km/h
1538 25-10-2020 01:00:00 14.3 C 10.34 g/m*3 14.3 C 2.53333 km/h
1539 25-10-2020 02:00:00 14.43333 C 10.17 g/m*3 14.43 C 4.15 km/h
1540 25-10-2020 04:00:00 13.42174 C 9.68 g/m*3 13.42 C 4.19565 km/h
1541 25-10-2020 05:00:00 12.83077 C 9.47 g/m*3 12.83 C 2.09231 km/h
1542 25-10-2020 06:00:00 11.9 C 9.24 g/m*3 11.9 C 0.66667 km/h
1543 25-10-2020 07:00:00 11.76667 C 9.29 g/m*3 11.77 C 2.80833 km/h
1544 25-10-2020 08:00:00 13.05 C 9.43 g/m*3 13.05 C 2.66667 km/h
1545 25-10-2020 09:00:00 13.775 C 9.61 g/m*3 13.78 C 2.66667 km/h
1546 25-10-2020 10:00:00 14.6 C 9.69 g/m*3 14.6 C 4.13333 km/h
1547 25-10-2020 11:00:00 15.275 C 9.84 g/m*3 15.28 C 4.14167 km/h
1548 25-10-2020 12:00:00 15.55833 C 10.1 g/m*3 15.56 C 3.06667 km/h
1549 25-10-2020 13:00:00 15.95 C 10.32 g/m*3 15.95 C 5.49167 km/h
1550 25-10-2020 14:00:00 15.7 C 10.63 g/m*3 15.7 C 3.48333 km/h
Sensor: Nr:Datum:Temp:Abs-Feuchte:Windchill:Wind:
Aussen-T/F 1551 25-10-2020 15:00:00 14.025 C 10.84 g/m*3 14.03 C 0.4 km/h
1552 25-10-2020 16:00:00 13.275 C 10.67 g/m*3 13.28 C 1.2 km/h
1553 25-10-2020 17:00:00 12.40833 C 10.21 g/m*3 12.41 C 2.8 km/h
1554 25-10-2020 18:00:00 11.725 C 9.85 g/m*3 11.73 C 3.075 km/h
1555 25-10-2020 19:00:00 11.30833 C 9.59 g/m*3 11.31 C 3.35833 km/h
1556 25-10-2020 20:00:00 11.03333 C 9.5 g/m*3 11.03 C 2.66667 km/h
1557 25-10-2020 21:00:00 10.76667 C 9.37 g/m*3 10.77 C 0.93333 km/h
1558 25-10-2020 22:00:00 10.61667 C 9.32 g/m*3 10.62 C 0.53333 km/h
1559 25-10-2020 23:00:00 10.675 C 9.41 g/m*3 10.68 C 0.4 km/h
1560 26-10-2020 00:00:00 10.7 C 9.43 g/m*3 10.7 C 1.2 km/h
1561 26-10-2020 01:00:00 10.66667 C 9.41 g/m*3 10.67 C 0.26667 km/h
1562 26-10-2020 02:00:00 10.65833 C 9.34 g/m*3 10.66 C 1.33333 km/h
1563 26-10-2020 03:00:00 10.65833 C 9.31 g/m*3 10.66 C 0.8 km/h
1564 26-10-2020 04:00:00 10.63333 C 9.35 g/m*3 10.63 C 0.26667 km/h
1565 26-10-2020 05:00:00 10.675 C 9.41 g/m*3 10.68 C 0.53333 km/h
1566 26-10-2020 06:00:00 10.41667 C 9.26 g/m*3 10.42 C 0.93333 km/h
1567 26-10-2020 07:00:00 9.99167 C 9.02 g/m*3 9.99 C 4.55 km/h
1568 26-10-2020 08:00:00 9.8 C 8.89 g/m*3 9.8 C 4.40833 km/h
1569 26-10-2020 09:00:00 10.01667 C 8.82 g/m*3 10.02 C 4.29167 km/h
1570 26-10-2020 10:00:00 10.86667 C 8.76 g/m*3 10.15 C 7.39167 km/h
1571 26-10-2020 11:00:00 11.60833 C 8.7 g/m*3 11.61 C 6.98333 km/h
1572 26-10-2020 12:00:00 11.76667 C 8.42 g/m*3 11.77 C 9.94167 km/h
1573 26-10-2020 13:00:00 12.00833 C 8.16 g/m*3 12.01 C 9.28333 km/h
1574 26-10-2020 14:00:00 12.18333 C 7.96 g/m*3 12.18 C 7.4 km/h
1575 26-10-2020 15:00:00 12.23333 C 7.89 g/m*3 12.23 C 5.625 km/h
Sensor: Nr:Datum:Temp:Abs-Feuchte:Windchill:Wind:
Aussen-T/F 1576 26-10-2020 16:00:00 12.05 C 8.09 g/m*3 12.05 C 3.875 km/h
1577 26-10-2020 17:00:00 10.44167 C 7.9 g/m*3 10.44 C 2.4 km/h
1578 26-10-2020 18:00:00 8.625 C 7.45 g/m*3 8.63 C 4.13333 km/h
1579 26-10-2020 19:00:00 7.68333 C 7.29 g/m*3 7.68 C 2.26667 km/h
1580 26-10-2020 20:00:00 7.625 C 7.33 g/m*3 7.63 C 2 km/h
1581 26-10-2020 21:00:00 8.125 C 7.4 g/m*3 8.13 C 3.075 km/h
1582 26-10-2020 22:00:00 7.775 C 7.35 g/m*3 7.78 C 2 km/h
1583 26-10-2020 23:00:00 7.66667 C 7.38 g/m*3 7.67 C 2.54167 km/h
1584 27-10-2020 00:00:00 7.83333 C 7.48 g/m*3 7.83 C 4.01667 km/h
1585 27-10-2020 01:00:00 8.39167 C 7.73 g/m*3 8.39 C 2.40833 km/h
1586 27-10-2020 02:00:00 9.33333 C 7.87 g/m*3 9.33 C 3.46667 km/h
1587 27-10-2020 03:00:00 8.90833 C 7.8 g/m*3 8.91 C 3.475 km/h
1588 27-10-2020 04:00:00 8.84167 C 7.85 g/m*3 8.84 C 2.4 km/h
1589 27-10-2020 05:00:00 8.64167 C 7.83 g/m*3 8.64 C 2.4 km/h
1590 27-10-2020 06:00:00 7.81667 C 7.51 g/m*3 7.82 C 2.13333 km/h
1591 27-10-2020 07:00:00 7.75 C 7.61 g/m*3 7.75 C 1.06667 km/h
1592 27-10-2020 08:00:00 9.04167 C 8.2 g/m*3 9.04 C 1.6 km/h
1593 27-10-2020 09:00:00 10.38333 C 8.42 g/m*3 10.38 C 2.26667 km/h
1594 27-10-2020 10:00:00 11.39167 C 8.56 g/m*3 11.39 C 9.00833 km/h
1595 27-10-2020 11:00:00 11.89167 C 8.49 g/m*3 11.89 C 11.675 km/h
1596 27-10-2020 12:00:00 12.25 C 8.36 g/m*3 12.25 C 13.15833 km/h
1597 27-10-2020 13:00:00 12.625 C 8.29 g/m*3 12.63 C 11.7 km/h
1598 27-10-2020 14:00:00 12.85833 C 8.16 g/m*3 12.86 C 9.675 km/h
1599 27-10-2020 15:00:00 12.675 C 7.85 g/m*3 12.68 C 9.15 km/h
1600 27-10-2020 16:00:00 12.21667 C 7.85 g/m*3 12.22 C 5.49167 km/h
Sensor: Nr:Datum:Temp:Abs-Feuchte:Windchill:Wind:
Aussen-T/F 1601 27-10-2020 17:00:00 11.21667 C 7.86 g/m*3 11.22 C 1.6 km/h
1602 27-10-2020 18:00:00 10.66667 C 7.78 g/m*3 10.67 C 2.675 km/h
1603 27-10-2020 19:00:00 11.25833 C 7.78 g/m*3 11.26 C 5.625 km/h
1604 27-10-2020 20:00:00 11.3 C 7.91 g/m*3 11.3 C 5.36667 km/h
1605 27-10-2020 21:00:00 11.05 C 8.07 g/m*3 11.05 C 2.4 km/h
1606 27-10-2020 22:00:00 11.05833 C 8.23 g/m*3 11.06 C 1.46667 km/h
1607 27-10-2020 23:00:00 11.28333 C 8.48 g/m*3 11.28 C 1.6 km/h
1608 28-10-2020 00:00:00 11.61667 C 8.74 g/m*3 11.62 C 3.06667 km/h
1609 28-10-2020 01:00:00 11.7 C 8.91 g/m*3 11.7 C 2.66667 km/h
1610 28-10-2020 02:00:00 11.81667 C 9.11 g/m*3 11.82 C 2.4 km/h
1611 28-10-2020 03:00:00 11.84167 C 9.34 g/m*3 11.84 C 0.53333 km/h
1612 28-10-2020 04:00:00 11.75833 C 9.5 g/m*3 11.76 C 0.53333 km/h
1613 28-10-2020 05:00:00 11.7 C 9.71 g/m*3 11.7 C 0 km/h
1614 28-10-2020 06:00:00 11.51667 C 9.72 g/m*3 11.52 C 0.8 km/h
1615 28-10-2020 07:00:00 11.26667 C 9.63 g/m*3 11.27 C 1.33333 km/h
1616 28-10-2020 08:00:00 11.51667 C 9.87 g/m*3 11.52 C 0.26667 km/h
1617 28-10-2020 09:00:00 12.30833 C 10.39 g/m*3 12.31 C 0.26667 km/h
1618 28-10-2020 10:00:00 12.64167 C 10.47 g/m*3 12.64 C 2.8 km/h
1619 28-10-2020 11:00:00 13.325 C 10.63 g/m*3 13.33 C 8.18333 km/h
1620 28-10-2020 12:00:00 14.25833 C 10.08 g/m*3 14.26 C 12.76667 km/h
1621 28-10-2020 13:00:00 14.11667 C 8.96 g/m*3 14.12 C 17.03333 km/h
1622 28-10-2020 14:00:00 13.99167 C 8.57 g/m*3 13.99 C 16.76667 km/h
1623 28-10-2020 15:00:00 13.50833 C 8.34 g/m*3 13.51 C 11.41667 km/h
1624 28-10-2020 16:00:00 13.43333 C 8.48 g/m*3 13.43 C 11.55 km/h
1625 28-10-2020 17:00:00 12.94167 C 8.48 g/m*3 12.94 C 6.56667 km/h
Sensor: Nr:Datum:Temp:Abs-Feuchte:Windchill:Wind:
Aussen-T/F 1626 28-10-2020 18:00:00 12.61667 C 8.44 g/m*3 12.62 C 5.61667 km/h
1627 28-10-2020 19:00:00 12.65 C 8.42 g/m*3 12.65 C 7.10833 km/h
1628 28-10-2020 20:00:00 13.08333 C 8.54 g/m*3 13.08 C 10.60833 km/h
1629 28-10-2020 21:00:00 12.94167 C 8.7 g/m*3 12.94 C 8.05833 km/h
1630 28-10-2020 22:00:00 12.825 C 8.91 g/m*3 12.83 C 8.70833 km/h
1631 28-10-2020 23:00:00 12.99167 C 9.11 g/m*3 12.99 C 17.44167 km/h
1632 29-10-2020 00:00:00 12.46667 C 9.24 g/m*3 12.47 C 15.03333 km/h
1633 29-10-2020 01:00:00 10.63333 C 8.8 g/m*3 8.92 C 13.15 km/h
1634 29-10-2020 02:00:00 9.80833 C 8.58 g/m*3 9.07 C 6.71667 km/h
1635 29-10-2020 03:00:00 10.175 C 8.84 g/m*3 8.97 C 9.275 km/h
1636 29-10-2020 04:00:00 10.05833 C 8.72 g/m*3 8.9 C 8.86667 km/h
1637 29-10-2020 05:00:00 9.88333 C 8.57 g/m*3 8.5 C 9.94167 km/h
1638 29-10-2020 06:00:00 9.95833 C 8.4 g/m*3 8.61 C 9.80833 km/h
1639 29-10-2020 07:00:00 9.24167 C 7.92 g/m*3 8.48 C 6.43333 km/h
1640 29-10-2020 08:00:00 9.05833 C 7.89 g/m*3 8.04 C 7.375 km/h
1641 29-10-2020 09:00:00 9.75833 C 8.11 g/m*3 9.15 C 6.16667 km/h
1642 29-10-2020 10:00:00 11.16667 C 8.62 g/m*3 11.17 C 6.175 km/h
1643 29-10-2020 11:00:00 11.58333 C 8.77 g/m*3 11.58 C 6.96667 km/h
1644 29-10-2020 12:00:00 10.7 C 8.87 g/m*3 10.27 C 6.01667 km/h
1645 29-10-2020 13:00:00 10.94167 C 9.31 g/m*3 10.94 C 3.475 km/h
1646 29-10-2020 14:00:00 11.61667 C 9.76 g/m*3 11.62 C 5.61667 km/h
1647 29-10-2020 15:00:00 11.33333 C 9.64 g/m*3 11.33 C 4.94167 km/h
1648 29-10-2020 16:00:00 11.15 C 9.57 g/m*3 11.15 C 6.575 km/h
1649 29-10-2020 17:00:00 10.76667 C 9.37 g/m*3 10.77 C 4.55 km/h
1650 29-10-2020 18:00:00 10.59167 C 9.27 g/m*3 10.59 C 0.66667 km/h
Sensor: Nr:Datum:Temp:Abs-Feuchte:Windchill:Wind:
Aussen-T/F 1651 29-10-2020 19:00:00 10.475 C 9.29 g/m*3 10.48 C 0.13333 km/h
1652 29-10-2020 20:00:00 10.64167 C 9.39 g/m*3 10.64 C 4.7 km/h
1653 29-10-2020 21:00:00 10.88333 C 9.54 g/m*3 10.32 C 6.70833 km/h
1654 29-10-2020 22:00:00 11.225 C 9.75 g/m*3 11.23 C 7.10833 km/h
1655 29-10-2020 23:00:00 11.56667 C 9.96 g/m*3 11.57 C 5.90833 km/h
1656 30-10-2020 00:00:00 11.89167 C 10.16 g/m*3 11.89 C 4.81667 km/h
1657 30-10-2020 01:00:00 12.16667 C 10.34 g/m*3 12.17 C 5.35 km/h
1658 30-10-2020 02:00:00 12.39167 C 10.5 g/m*3 12.39 C 5.63333 km/h
1659 30-10-2020 03:00:00 12.75 C 10.68 g/m*3 12.75 C 7.375 km/h
1660 30-10-2020 04:00:00 12.74167 C 10.63 g/m*3 12.74 C 3.48333 km/h
1661 30-10-2020 05:00:00 12.68333 C 10.65 g/m*3 12.68 C 4.14167 km/h
1662 30-10-2020 06:00:00 12.9 C 10.71 g/m*3 12.9 C 3.74167 km/h
1663 30-10-2020 07:00:00 13.10833 C 10.67 g/m*3 13.11 C 7.11667 km/h
1664 30-10-2020 08:00:00 13.3 C 10.71 g/m*3 13.3 C 4.83333 km/h
1665 30-10-2020 09:00:00 13.79167 C 10.86 g/m*3 13.79 C 9.01667 km/h
1666 30-10-2020 10:00:00 14.525 C 11.09 g/m*3 14.53 C 13.03333 km/h
1667 30-10-2020 11:00:00 15.03333 C 11.21 g/m*3 15.03 C 16.23333 km/h
1668 30-10-2020 12:00:00 15.14167 C 11.25 g/m*3 15.14 C 13.3 km/h
1669 30-10-2020 13:00:00 15.33333 C 11.34 g/m*3 15.33 C 13.03333 km/h
1670 30-10-2020 14:00:00 15.30833 C 11.28 g/m*3 15.31 C 6.43333 km/h
1671 30-10-2020 15:00:00 15.35833 C 11.15 g/m*3 15.36 C 9 km/h
1672 30-10-2020 16:00:00 14.94167 C 11.04 g/m*3 14.94 C 8.05833 km/h
1673 30-10-2020 17:00:00 14.29167 C 11.01 g/m*3 14.29 C 5.21667 km/h
1674 30-10-2020 18:00:00 13.98333 C 10.97 g/m*3 13.98 C 2 km/h
1675 30-10-2020 19:00:00 14.05833 C 10.83 g/m*3 14.06 C 5.76667 km/h
Sensor: Nr:Datum:Temp:Abs-Feuchte:Windchill:Wind:
Aussen-T/F 1676 30-10-2020 20:00:00 14.26667 C 10.72 g/m*3 14.27 C 10.625 km/h
1677 30-10-2020 21:00:00 14.175 C 10.65 g/m*3 14.18 C 9.95833 km/h
1678 30-10-2020 22:00:00 13.76667 C 10.42 g/m*3 13.77 C 9.68333 km/h
1679 30-10-2020 23:00:00 13.69167 C 10.34 g/m*3 13.69 C 10.21667 km/h
1680 31-10-2020 00:00:00 13.70833 C 10.2 g/m*3 13.71 C 9.69167 km/h
1681 31-10-2020 01:00:00 13.625 C 10.22 g/m*3 13.63 C 6.69167 km/h
1682 31-10-2020 02:00:00 13.58333 C 10.17 g/m*3 13.58 C 6.03333 km/h
1683 31-10-2020 03:00:00 13.43333 C 10.13 g/m*3 13.43 C 1.6 km/h
1684 31-10-2020 04:00:00 12.75833 C 10.03 g/m*3 12.76 C 0.13333 km/h
1685 31-10-2020 05:00:00 12.375 C 9.95 g/m*3 12.38 C 0 km/h
1686 31-10-2020 06:00:00 12.15833 C 9.9 g/m*3 12.16 C 0 km/h
1687 31-10-2020 07:00:00 12.04167 C 9.88 g/m*3 12.04 C 0 km/h
1688 31-10-2020 08:00:00 12.31667 C 10.08 g/m*3 12.32 C 0.4 km/h
1689 31-10-2020 09:00:00 13.25833 C 9.79 g/m*3 13.26 C 3.075 km/h
1690 31-10-2020 10:00:00 13.79167 C 9.48 g/m*3 13.79 C 4.69167 km/h
1691 31-10-2020 11:00:00 13.66667 C 9.66 g/m*3 13.67 C 3.60833 km/h
1692 31-10-2020 12:00:00 14.28333 C 9.8 g/m*3 14.28 C 5.61667 km/h
1693 31-10-2020 13:00:00 15.39167 C 10.01 g/m*3 15.39 C 4.68333 km/h
1694 31-10-2020 14:00:00 15.73333 C 10.32 g/m*3 15.73 C 4.54167 km/h
1695 31-10-2020 15:00:00 14.64167 C 10.29 g/m*3 14.64 C 4.675 km/h
1696 31-10-2020 16:00:00 13.46667 C 10.08 g/m*3 13.47 C 4.40833 km/h
1697 31-10-2020 17:00:00 12.26667 C 9.59 g/m*3 12.27 C 4.93333 km/h
1698 31-10-2020 18:00:00 11.28333 C 9.3 g/m*3 11.28 C 4.26667 km/h
1699 31-10-2020 19:00:00 11.4 C 9.44 g/m*3 11.4 C 3.2 km/h
1700 31-10-2020 20:00:00 11.98333 C 9.71 g/m*3 11.98 C 1.6 km/h
Sensor: Nr:Datum:Temp:Abs-Feuchte:Windchill:Wind:
Aussen-T/F 1701 31-10-2020 21:00:00 12.51667 C 9.96 g/m*3 12.52 C 1.2 km/h
1702 31-10-2020 22:00:00 12.7 C 10.34 g/m*3 12.7 C 1.73333 km/h
1703 31-10-2020 23:00:00 13.05833 C 10.72 g/m*3 13.06 C 6.025 km/h
1704 01-11-2020 00:00:00 13.1 C 10.84 g/m*3 13.1 C 2.26667 km/h
1705 01-11-2020 01:00:00 13.13333 C 10.91 g/m*3 13.13 C 0.93333 km/h
1706 01-11-2020 02:00:00 13.175 C 11.01 g/m*3 13.18 C 1.2 km/h
1707 01-11-2020 03:00:00 13.1 C 10.95 g/m*3 13.1 C 0 km/h
1708 01-11-2020 04:00:00 13.04167 C 10.92 g/m*3 13.04 C 0 km/h
1709 01-11-2020 05:00:00 12.76667 C 10.73 g/m*3 12.77 C 0 km/h
1710 01-11-2020 06:00:00 12.51667 C 10.61 g/m*3 12.52 C 0 km/h
1711 01-11-2020 07:00:00 12.55 C 10.69 g/m*3 12.55 C 0 km/h
1712 01-11-2020 08:00:00 13.10833 C 11.07 g/m*3 13.11 C 0 km/h
1713 01-11-2020 09:00:00 13.875 C 11.62 g/m*3 13.88 C 2.275 km/h
1714 01-11-2020 10:00:00 15.05 C 12.19 g/m*3 15.05 C 10.75833 km/h
1715 01-11-2020 11:00:00 16.35 C 12.38 g/m*3 16.35 C 4.55833 km/h
1716 01-11-2020 12:00:00 16.775 C 12.44 g/m*3 16.77 C 3.48333 km/h
1717 01-11-2020 13:00:00 16.94167 C 12.6 g/m*3 16.94 C 8.6 km/h
1718 01-11-2020 14:00:00 16.83333 C 12.68 g/m*3 16.83 C 12.23333 km/h
1719 01-11-2020 15:00:00 16.71667 C 12.48 g/m*3 16.72 C 16.76667 km/h
1720 01-11-2020 16:00:00 16.74167 C 12.48 g/m*3 16.74 C 14.36667 km/h
1721 01-11-2020 17:00:00 16.6 C 12.51 g/m*3 16.6 C 10.49167 km/h
1722 01-11-2020 18:00:00 16.71667 C 12.6 g/m*3 16.72 C 9.00833 km/h
1723 01-11-2020 19:00:00 16.86667 C 12.63 g/m*3 16.87 C 11.025 km/h
1724 01-11-2020 20:00:00 16.975 C 12.71 g/m*3 16.98 C 12.48333 km/h
1725 01-11-2020 21:00:00 17.125 C 12.77 g/m*3 17.13 C 12.89167 km/h
Sensor: Nr:Datum:Temp:Abs-Feuchte:Windchill:Wind:
Aussen-T/F 1726 01-11-2020 22:00:00 17.175 C 12.86 g/m*3 17.18 C 8.06667 km/h
1727 01-11-2020 23:00:00 17.25833 C 12.93 g/m*3 17.26 C 4.68333 km/h
1728 02-11-2020 00:00:00 17.56667 C 13.16 g/m*3 17.57 C 7.65833 km/h
1729 02-11-2020 01:00:00 17.90833 C 13.35 g/m*3 17.91 C 13.15833 km/h
1730 02-11-2020 02:00:00 18.19167 C 13.45 g/m*3 18.19 C 14.76667 km/h
1731 02-11-2020 03:00:00 18.575 C 13.36 g/m*3 18.58 C 13.16667 km/h
1732 02-11-2020 04:00:00 18.7 C 13.42 g/m*3 18.7 C 9.95 km/h
1733 02-11-2020 05:00:00 18.38333 C 13.6 g/m*3 18.38 C 10.89167 km/h
1734 02-11-2020 06:00:00 18.60833 C 13.46 g/m*3 18.61 C 14.23333 km/h
1735 02-11-2020 07:00:00 19.01667 C 13.25 g/m*3 19.02 C 18.90833 km/h
1736 02-11-2020 08:00:00 19.21667 C 13.14 g/m*3 19.22 C 20.24167 km/h
1737 02-11-2020 09:00:00 19.46667 C 13.05 g/m*3 19.47 C 21.04167 km/h
1738 02-11-2020 10:00:00 19.35 C 13.06 g/m*3 19.35 C 14.5 km/h
1739 02-11-2020 11:00:00 19.59167 C 13.02 g/m*3 19.59 C 11.83333 km/h
1740 02-11-2020 12:00:00 20.23333 C 13.05 g/m*3 20.23 C 13.7 km/h
1741 02-11-2020 13:00:00 20.46667 C 12.93 g/m*3 20.47 C 14.9 km/h
1742 02-11-2020 14:00:00 20.7 C 12.89 g/m*3 20.7 C 15.96667 km/h
1743 02-11-2020 15:00:00 20.93333 C 12.86 g/m*3 20.93 C 15.96667 km/h
1744 02-11-2020 16:00:00 20.69167 C 12.7 g/m*3 20.69 C 17.43333 km/h
1745 02-11-2020 17:00:00 19.75 C 12.69 g/m*3 19.75 C 12.48333 km/h
1746 02-11-2020 18:00:00 19.625 C 12.82 g/m*3 19.63 C 12.35 km/h
1747 02-11-2020 19:00:00 19.70833 C 12.91 g/m*3 19.71 C 16.91667 km/h
1748 02-11-2020 20:00:00 18.83333 C 12.8 g/m*3 18.83 C 13.55833 km/h
1749 02-11-2020 21:00:00 14.275 C 11.17 g/m*3 14.28 C 4.56667 km/h
1750 02-11-2020 22:00:00 13.01667 C 10.49 g/m*3 13.02 C 5.9 km/h
Sensor: Nr:Datum:Temp:Abs-Feuchte:Windchill:Wind:
Aussen-T/F 1751 02-11-2020 23:00:00 11.94167 C 9.89 g/m*3 11.94 C 4.80833 km/h
1752 03-11-2020 00:00:00 11.48333 C 9.53 g/m*3 11.48 C 6.43333 km/h
1753 03-11-2020 01:00:00 11.38333 C 8.97 g/m*3 11.38 C 6.56667 km/h
1754 03-11-2020 02:00:00 11.275 C 8.83 g/m*3 11.28 C 4.68333 km/h
1755 03-11-2020 03:00:00 11.48333 C 8.75 g/m*3 11.48 C 6.30833 km/h
1756 03-11-2020 04:00:00 11.31667 C 8.71 g/m*3 11.32 C 6.15833 km/h
1757 03-11-2020 05:00:00 11 C 8.59 g/m*3 11 C 3.475 km/h
1758 03-11-2020 06:00:00 10.71667 C 8.41 g/m*3 10.72 C 3.46667 km/h
1759 03-11-2020 07:00:00 10.24167 C 8.25 g/m*3 9.74 C 6.025 km/h
1760 03-11-2020 08:00:00 9.46667 C 8.1 g/m*3 9.47 C 2.8 km/h
1761 03-11-2020 09:00:00 9.13333 C 8.14 g/m*3 9.13 C 2.26667 km/h
1762 03-11-2020 10:00:00 9.56667 C 8.38 g/m*3 9.57 C 4.68333 km/h
1763 03-11-2020 11:00:00 11.00833 C 8.55 g/m*3 11.01 C 8.19167 km/h
1764 03-11-2020 12:00:00 12.09167 C 8.54 g/m*3 12.09 C 11.16667 km/h
1765 03-11-2020 13:00:00 12.61667 C 8.42 g/m*3 12.62 C 8.74167 km/h
1766 03-11-2020 14:00:00 12.65833 C 8.18 g/m*3 12.66 C 6.71667 km/h
1767 03-11-2020 15:00:00 12.78333 C 8.08 g/m*3 12.78 C 8.73333 km/h
1768 03-11-2020 16:00:00 12.33333 C 7.95 g/m*3 12.33 C 4.01667 km/h
1769 03-11-2020 17:00:00 11.59167 C 8.12 g/m*3 11.59 C 4.14167 km/h
1770 03-11-2020 18:00:00 10.71667 C 8.47 g/m*3 10.33 C 5.88333 km/h
1771 03-11-2020 19:00:00 9.01667 C 8 g/m*3 9.02 C 4.7 km/h
1772 03-11-2020 20:00:00 7.69167 C 7.5 g/m*3 7.69 C 2.53333 km/h
1773 03-11-2020 21:00:00 6.85 C 7.19 g/m*3 6.85 C 2.66667 km/h
1774 03-11-2020 22:00:00 6.24167 C 6.95 g/m*3 6.24 C 2.26667 km/h
1775 03-11-2020 23:00:00 5.875 C 6.84 g/m*3 5.88 C 1.06667 km/h
Sensor: Nr:Datum:Temp:Abs-Feuchte:Windchill:Wind:
Aussen-T/F 1776 04-11-2020 00:00:00 5.08333 C 6.49 g/m*3 5.08 C 1.46667 km/h
1777 04-11-2020 01:00:00 5.03333 C 6.5 g/m*3 5.03 C 1.46667 km/h
1778 04-11-2020 02:00:00 4.99167 C 6.48 g/m*3 4.99 C 2.4 km/h
1779 04-11-2020 03:00:00 4.325 C 6.2 g/m*3 4.33 C 1.33333 km/h
1780 04-11-2020 04:00:00 3.74167 C 5.98 g/m*3 3.74 C 0.26667 km/h
1781 04-11-2020 05:00:00 3.14167 C 5.75 g/m*3 3.14 C 0.4 km/h
1782 04-11-2020 06:00:00 2.8 C 5.63 g/m*3 2.8 C 1.2 km/h
1783 04-11-2020 07:00:00 2.54167 C 5.53 g/m*3 2.54 C 0 km/h
1784 04-11-2020 08:00:00 2.50833 C 5.53 g/m*3 2.51 C 0 km/h
1785 04-11-2020 09:00:00 3.13333 C 5.79 g/m*3 3.13 C 0 km/h
1786 04-11-2020 10:00:00 3.525 C 5.95 g/m*3 3.53 C 0 km/h
1787 04-11-2020 11:00:00 4.80833 C 6.51 g/m*3 4.81 C 0 km/h
1788 04-11-2020 12:00:00 5.91667 C 7 g/m*3 5.92 C 0.4 km/h
1789 04-11-2020 13:00:00 6.68333 C 7.36 g/m*3 6.68 C 3.33333 km/h
1790 04-11-2020 14:00:00 7.64167 C 7.82 g/m*3 7.64 C 1.86667 km/h
1791 04-11-2020 15:00:00 8.16667 C 7.8 g/m*3 8.17 C 2.4 km/h
1792 04-11-2020 16:00:00 7.58333 C 7.37 g/m*3 7.58 C 3.33333 km/h
1793 04-11-2020 17:00:00 6.375 C 6.83 g/m*3 6.38 C 0.66667 km/h
1794 04-11-2020 18:00:00 5.28333 C 6.41 g/m*3 5.28 C 0.26667 km/h
1795 04-11-2020 19:00:00 4.45 C 6.14 g/m*3 4.45 C 0 km/h
1796 04-11-2020 20:00:00 3.575 C 5.82 g/m*3 3.58 C 0 km/h
1797 04-11-2020 21:00:00 3.04167 C 5.66 g/m*3 3.04 C 0 km/h
1798 04-11-2020 22:00:00 2.56667 C 5.49 g/m*3 2.57 C 0 km/h
1799 04-11-2020 23:00:00 2.15 C 5.36 g/m*3 2.15 C 0 km/h
1800 05-11-2020 00:00:00 1.775 C 5.24 g/m*3 1.78 C 0 km/h
Sensor: Nr:Datum:Temp:Abs-Feuchte:Windchill:Wind:
Aussen-T/F 1801 05-11-2020 01:00:00 1.75833 C 5.25 g/m*3 1.76 C 0.53333 km/h
1802 05-11-2020 02:00:00 2.2 C 5.41 g/m*3 2.2 C 0.4 km/h
1803 05-11-2020 03:00:00 2.10833 C 5.37 g/m*3 2.11 C 0.26667 km/h
1804 05-11-2020 04:00:00 2.09167 C 5.4 g/m*3 2.09 C 0 km/h
1805 05-11-2020 05:00:00 2.24167 C 5.48 g/m*3 2.24 C 0 km/h
1806 05-11-2020 06:00:00 2.3 C 5.5 g/m*3 2.3 C 0 km/h
1807 05-11-2020 07:00:00 2.38 C 5.53 g/m*3 2.38 C 0.48 km/h
1808 05-11-2020 12:00:00 3.76 C 6.07 g/m*3 3.76 C 3.36 km/h
1809 05-11-2020 13:00:00 4.19167 C 6.25 g/m*3 4.19 C 2.66667 km/h
1810 05-11-2020 14:00:00 4.2 C 6.25 g/m*3 4.2 C 2.93333 km/h
1811 05-11-2020 15:00:00 4.43333 C 6.37 g/m*3 4.43 C 2 km/h
1812 05-11-2020 16:00:00 4.39167 C 6.33 g/m*3 4.39 C 0 km/h
1813 05-11-2020 17:00:00 4.18333 C 6.24 g/m*3 4.18 C 0.4 km/h
1814 05-11-2020 18:00:00 3.79167 C 6.08 g/m*3 3.79 C 0.4 km/h
1815 05-11-2020 19:00:00 3.39167 C 5.92 g/m*3 3.39 C 0 km/h
1816 05-11-2020 20:00:00 3.325 C 5.89 g/m*3 3.33 C 0 km/h
1817 05-11-2020 21:00:00 3.26667 C 5.87 g/m*3 3.27 C 0.93333 km/h
1818 05-11-2020 22:00:00 3.23333 C 5.87 g/m*3 3.23 C 0 km/h
1819 05-11-2020 23:00:00 3.31667 C 5.9 g/m*3 3.32 C 0.8 km/h
1820 06-11-2020 00:00:00 3.075 C 5.8 g/m*3 3.08 C 0.66667 km/h
1821 06-11-2020 01:00:00 2.675 C 5.65 g/m*3 2.68 C 1.6 km/h
1822 06-11-2020 02:00:00 2.56667 C 5.63 g/m*3 2.57 C 1.46667 km/h
1823 06-11-2020 03:00:00 2.65833 C 5.64 g/m*3 2.66 C 0.53333 km/h
1824 06-11-2020 04:00:00 2.5 C 5.62 g/m*3 2.5 C 0.8 km/h
1825 06-11-2020 05:00:00 2.48333 C 5.59 g/m*3 2.48 C 0.66667 km/h
Sensor: Nr:Datum:Temp:Abs-Feuchte:Windchill:Wind:
Aussen-T/F 1826 06-11-2020 06:00:00 2.61667 C 5.66 g/m*3 2.62 C 0.26667 km/h
1827 06-11-2020 07:00:00 2.54167 C 5.65 g/m*3 2.54 C 0.4 km/h
1828 06-11-2020 08:00:00 2.54167 C 5.65 g/m*3 2.54 C 0.26667 km/h
1829 06-11-2020 09:00:00 3.03333 C 5.84 g/m*3 3.03 C 0 km/h
1830 06-11-2020 10:00:00 3.61667 C 6.07 g/m*3 3.62 C 0.53333 km/h
1831 06-11-2020 11:00:00 4.11667 C 6.28 g/m*3 4.12 C 1.46667 km/h
1832 06-11-2020 12:00:00 4.35 C 6.38 g/m*3 4.35 C 1.6 km/h
1833 06-11-2020 13:00:00 5.11667 C 6.71 g/m*3 5.12 C 1.73333 km/h
1834 06-11-2020 14:00:00 6.00833 C 7.12 g/m*3 6.01 C 3.86667 km/h
1835 06-11-2020 15:00:00 6.35 C 7.28 g/m*3 6.35 C 3.73333 km/h
1836 06-11-2020 16:00:00 5.65 C 6.95 g/m*3 5.65 C 3.6 km/h
1837 06-11-2020 17:00:00 4.5 C 6.39 g/m*3 4.5 C 4.13333 km/h
1838 06-11-2020 18:00:00 3.39167 C 5.91 g/m*3 3.39 C 1.06667 km/h
1839 06-11-2020 19:00:00 2.425 C 5.49 g/m*3 2.42 C 0 km/h
1840 06-11-2020 20:00:00 1.875 C 5.29 g/m*3 1.88 C 0 km/h
1841 06-11-2020 21:00:00 1.45833 C 5.14 g/m*3 1.46 C 0 km/h
1842 06-11-2020 22:00:00 1.24167 C 5.07 g/m*3 1.24 C 0 km/h
1843 06-11-2020 23:00:00 0.89167 C 4.95 g/m*3 0.89 C 0 km/h
1844 07-11-2020 00:00:00 0.79167 C 4.91 g/m*3 0.79 C 0 km/h
1845 07-11-2020 01:00:00 0.64167 C 4.89 g/m*3 0.64 C 0 km/h
1846 07-11-2020 02:00:00 0.50833 C 4.85 g/m*3 0.51 C 0 km/h
1847 07-11-2020 03:00:00 0.39167 C 4.83 g/m*3 0.39 C 0 km/h
1848 07-11-2020 04:00:00 0.36667 C 4.82 g/m*3 0.37 C 0 km/h
1849 07-11-2020 05:00:00 0.3 C 4.8 g/m*3 0.3 C 0 km/h
1850 07-11-2020 06:00:00 0.3 C 4.8 g/m*3 0.3 C 0 km/h
Sensor: Nr:Datum:Temp:Abs-Feuchte:Windchill:Wind:
Aussen-T/F 1851 07-11-2020 07:00:00 0.30833 C 4.8 g/m*3 0.31 C 0 km/h
1852 07-11-2020 08:00:00 0.71667 C 4.94 g/m*3 0.72 C 0 km/h
1853 07-11-2020 09:00:00 1.48 C 5.2 g/m*3 1.48 C 0 km/h
1854 07-11-2020 10:00:00 2.775 C 5.72 g/m*3 2.78 C 0.26667 km/h
1855 07-11-2020 11:00:00 4.875 C 6.6 g/m*3 4.88 C 1.6 km/h
1856 07-11-2020 12:00:00 6.59167 C 7.39 g/m*3 6.59 C 3.73333 km/h
1857 07-11-2020 13:00:00 7.81667 C 8.01 g/m*3 7.82 C 3.6 km/h
1858 07-11-2020 14:00:00 8.89167 C 8.58 g/m*3 8.89 C 4.8 km/h
1859 07-11-2020 15:00:00 9.68333 C 8.87 g/m*3 9.68 C 4 km/h
1860 07-11-2020 16:00:00 9.475 C 8.41 g/m*3 9.48 C 2.13333 km/h
1861 07-11-2020 17:00:00 8.09167 C 7.62 g/m*3 8.09 C 2.13333 km/h
1862 07-11-2020 18:00:00 7.41667 C 7.4 g/m*3 7.42 C 4.13333 km/h
1863 07-11-2020 19:00:00 6.80833 C 7.12 g/m*3 6.81 C 1.6 km/h
1864 07-11-2020 20:00:00 6.3 C 6.91 g/m*3 6.3 C 0 km/h
1865 07-11-2020 21:00:00 5.6 C 6.65 g/m*3 5.6 C 0 km/h
1866 07-11-2020 22:00:00 4.925 C 6.39 g/m*3 4.93 C 0 km/h
1867 07-11-2020 23:00:00 4.225 C 6.13 g/m*3 4.22 C 0 km/h
1868 08-11-2020 00:00:00 3.95 C 6.07 g/m*3 3.95 C 0 km/h
1869 08-11-2020 01:00:00 3.45833 C 5.88 g/m*3 3.46 C 0 km/h
1870 08-11-2020 02:00:00 3.20833 C 5.79 g/m*3 3.21 C 0 km/h
1871 08-11-2020 03:00:00 2.84167 C 5.65 g/m*3 2.84 C 0 km/h
1872 08-11-2020 04:00:00 2.625 C 5.57 g/m*3 2.63 C 0 km/h
1873 08-11-2020 05:00:00 2.59167 C 5.59 g/m*3 2.59 C 0 km/h
1874 08-11-2020 06:00:00 2.51667 C 5.56 g/m*3 2.52 C 0 km/h
1875 08-11-2020 07:00:00 2.425 C 5.55 g/m*3 2.42 C 0 km/h
Sensor: Nr:Datum:Temp:Abs-Feuchte:Windchill:Wind:
Aussen-T/F 1876 08-11-2020 08:00:00 2.775 C 5.68 g/m*3 2.78 C 0 km/h
1877 08-11-2020 09:00:00 3.93333 C 6.15 g/m*3 3.93 C 0 km/h
1878 08-11-2020 10:00:00 5.31667 C 6.79 g/m*3 5.32 C 0 km/h
1879 08-11-2020 11:00:00 7.00833 C 7.59 g/m*3 7.01 C 0 km/h
1880 08-11-2020 12:00:00 8.80833 C 8.46 g/m*3 8.81 C 0 km/h
1881 08-11-2020 13:00:00 10.29167 C 9.07 g/m*3 10.29 C 0 km/h
1882 08-11-2020 14:00:00 11.88333 C 9.5 g/m*3 11.88 C 0 km/h
1883 08-11-2020 15:00:00 12.73333 C 9.76 g/m*3 12.73 C 0 km/h
1884 08-11-2020 16:00:00 12.11667 C 9.5 g/m*3 12.12 C 0 km/h
1885 08-11-2020 17:00:00 11.05 C 9.15 g/m*3 11.05 C 0 km/h
1886 08-11-2020 18:00:00 10.68333 C 9.11 g/m*3 10.68 C 0 km/h
1887 08-11-2020 19:00:00 10.56667 C 9.16 g/m*3 10.57 C 0 km/h
1888 08-11-2020 20:00:00 10.25 C 9.05 g/m*3 10.25 C 0 km/h
1889 08-11-2020 21:00:00 9.975 C 8.91 g/m*3 9.98 C 0 km/h
1890 08-11-2020 22:00:00 9.61667 C 8.71 g/m*3 9.62 C 0 km/h
1891 08-11-2020 23:00:00 9.40833 C 8.61 g/m*3 9.41 C 0 km/h
1892 09-11-2020 00:00:00 9.45 C 8.71 g/m*3 9.45 C 0 km/h
1893 09-11-2020 01:00:00 9.4 C 8.68 g/m*3 9.4 C 0 km/h
1894 09-11-2020 02:00:00 9.35833 C 8.66 g/m*3 9.36 C 0 km/h
1895 09-11-2020 03:00:00 9.325 C 8.65 g/m*3 9.32 C 1.34167 km/h
1896 09-11-2020 04:00:00 9.19167 C 8.61 g/m*3 9.19 C 0 km/h
1897 09-11-2020 05:00:00 8.425 C 8.19 g/m*3 8.43 C 0 km/h
1898 09-11-2020 06:00:00 8.3 C 8.15 g/m*3 8.3 C 0 km/h
1899 09-11-2020 07:00:00 8.075 C 8.05 g/m*3 8.07 C 0 km/h
1900 09-11-2020 08:00:00 8.35 C 8.2 g/m*3 8.35 C 0 km/h
Sensor: Nr:Datum:Temp:Abs-Feuchte:Windchill:Wind:
Aussen-T/F 1901 09-11-2020 09:00:00 8.96667 C 8.53 g/m*3 8.97 C 0 km/h
1902 09-11-2020 10:00:00 9.76667 C 9 g/m*3 9.77 C 0 km/h
1903 09-11-2020 11:00:00 11.00833 C 9.81 g/m*3 11.01 C 0 km/h
1904 09-11-2020 12:00:00 11.8 C 10.29 g/m*3 11.8 C 0 km/h
1905 09-11-2020 13:00:00 13.08333 C 11.07 g/m*3 13.08 C 0 km/h
1906 09-11-2020 14:00:00 13.675 C 10.94 g/m*3 13.68 C 0.53333 km/h
1907 09-11-2020 15:00:00 13.21667 C 10.69 g/m*3 13.22 C 0.26667 km/h
1908 09-11-2020 16:00:00 12.48333 C 10.29 g/m*3 12.48 C 0.26667 km/h
1909 09-11-2020 17:00:00 11.51667 C 9.74 g/m*3 11.52 C 2.8 km/h
1910 09-11-2020 18:00:00 10.46667 C 9.19 g/m*3 10.47 C 0.8 km/h
1911 09-11-2020 19:00:00 9.66667 C 8.79 g/m*3 9.67 C 0 km/h
1912 09-11-2020 20:00:00 9.08333 C 8.51 g/m*3 9.08 C 0.4 km/h
1913 09-11-2020 21:00:00 8.16667 C 8.02 g/m*3 8.17 C 0 km/h
1914 09-11-2020 22:00:00 7.225 C 7.55 g/m*3 7.23 C 0 km/h
1915 09-11-2020 23:00:00 6.63333 C 7.26 g/m*3 6.63 C 0 km/h
1916 10-11-2020 00:00:00 6.11667 C 7.05 g/m*3 6.12 C 0 km/h
1917 10-11-2020 01:00:00 6.175 C 7.12 g/m*3 6.18 C 0 km/h
1918 10-11-2020 02:00:00 6.06667 C 7.07 g/m*3 6.07 C 0 km/h
1919 10-11-2020 03:00:00 6.1 C 7.09 g/m*3 6.1 C 0 km/h
1920 10-11-2020 04:00:00 6.00833 C 7.04 g/m*3 6.01 C 0 km/h
1921 10-11-2020 05:00:00 5.74167 C 6.92 g/m*3 5.74 C 0 km/h
1922 10-11-2020 06:00:00 5.71667 C 6.91 g/m*3 5.72 C 0 km/h
1923 10-11-2020 07:00:00 5.7 C 6.9 g/m*3 5.7 C 0 km/h
1924 10-11-2020 08:00:00 5.70833 C 6.91 g/m*3 5.71 C 0.13333 km/h
1925 10-11-2020 09:00:00 5.98333 C 7.08 g/m*3 5.98 C 0.13333 km/h
Sensor: Nr:Datum:Temp:Abs-Feuchte:Windchill:Wind:
Aussen-T/F 1926 10-11-2020 10:00:00 6.49167 C 7.33 g/m*3 6.49 C 0 km/h
1927 10-11-2020 11:00:00 7.49167 C 7.84 g/m*3 7.49 C 0 km/h
1928 10-11-2020 12:00:00 8.10833 C 8.16 g/m*3 8.11 C 0 km/h
1929 10-11-2020 13:00:00 8.65 C 8.45 g/m*3 8.65 C 0.13333 km/h
1930 10-11-2020 14:00:00 9.78333 C 9.08 g/m*3 9.78 C 0 km/h
1931 10-11-2020 15:00:00 10.25833 C 9.27 g/m*3 10.26 C 0 km/h
1932 10-11-2020 16:00:00 9.625 C 8.84 g/m*3 9.63 C 0 km/h
1933 10-11-2020 17:00:00 7.84167 C 7.84 g/m*3 7.84 C 0 km/h
1934 10-11-2020 18:00:00 6.75 C 7.32 g/m*3 6.75 C 0 km/h
1935 10-11-2020 19:00:00 6.66667 C 7.33 g/m*3 6.67 C 0 km/h
1936 10-11-2020 20:00:00 6.58333 C 7.31 g/m*3 6.58 C 0 km/h
1937 10-11-2020 21:00:00 7.16667 C 7.6 g/m*3 7.17 C 0 km/h
1938 10-11-2020 22:00:00 7.54167 C 7.79 g/m*3 7.54 C 0 km/h
1939 10-11-2020 23:00:00 7.725 C 7.88 g/m*3 7.73 C 0 km/h
1940 11-11-2020 00:00:00 7.7 C 7.87 g/m*3 7.7 C 0 km/h
1941 11-11-2020 01:00:00 7.76667 C 7.9 g/m*3 7.77 C 0 km/h
1942 11-11-2020 02:00:00 7.76667 C 7.9 g/m*3 7.77 C 0 km/h
1943 11-11-2020 03:00:00 7.79167 C 7.91 g/m*3 7.79 C 0 km/h
1944 11-11-2020 04:00:00 7.825 C 7.93 g/m*3 7.83 C 0 km/h
1945 11-11-2020 05:00:00 7.89167 C 7.96 g/m*3 7.89 C 0 km/h
1946 11-11-2020 06:00:00 7.9 C 7.97 g/m*3 7.9 C 0 km/h
1947 11-11-2020 07:00:00 7.91667 C 7.98 g/m*3 7.92 C 0 km/h
1948 11-11-2020 08:00:00 8.08333 C 8.06 g/m*3 8.08 C 0 km/h
1949 11-11-2020 09:00:00 8.40833 C 8.23 g/m*3 8.41 C 0 km/h
1950 11-11-2020 10:00:00 9.05 C 8.54 g/m*3 9.05 C 0.53333 km/h
Sensor: Nr:Datum:Temp:Abs-Feuchte:Windchill:Wind:
Aussen-T/F 1951 11-11-2020 11:00:00 9.9 C 8.8 g/m*3 8.97 C 7.64167 km/h
1952 11-11-2020 12:00:00 10 C 8.74 g/m*3 10 C 1.46667 km/h
1953 11-11-2020 13:00:00 10.69167 C 9.05 g/m*3 10.69 C 2.675 km/h
1954 11-11-2020 14:00:00 11.29167 C 9.24 g/m*3 11.29 C 2.66667 km/h
1955 11-11-2020 15:00:00 11.28333 C 9.16 g/m*3 11.28 C 5.89167 km/h
1956 11-11-2020 16:00:00 10.95833 C 9.08 g/m*3 10.96 C 4.69167 km/h
1957 11-11-2020 17:00:00 10.45833 C 8.8 g/m*3 10.46 C 4.15833 km/h
1958 11-11-2020 18:00:00 9.675 C 8.47 g/m*3 8.5 C 8.59167 km/h
1959 11-11-2020 19:00:00 9.05 C 8.23 g/m*3 7.41 C 10.46667 km/h
1960 11-11-2020 20:00:00 8.775 C 8.08 g/m*3 8.78 C 3.6 km/h
1961 11-11-2020 21:00:00 8.7 C 8.09 g/m*3 8.7 C 1.06667 km/h
1962 11-11-2020 22:00:00 8.76667 C 8.16 g/m*3 8.77 C 0.13333 km/h
1963 11-11-2020 23:00:00 8.8 C 8.18 g/m*3 8.8 C 0 km/h
1964 12-11-2020 00:00:00 8.81667 C 8.19 g/m*3 8.82 C 0.8 km/h
1965 12-11-2020 01:00:00 8.89167 C 8.23 g/m*3 8.89 C 0.26667 km/h
1966 12-11-2020 02:00:00 8.9 C 8.23 g/m*3 8.9 C 0 km/h
1967 12-11-2020 03:00:00 8.9 C 8.23 g/m*3 8.9 C 0 km/h
1968 12-11-2020 04:00:00 8.925 C 8.32 g/m*3 8.93 C 0 km/h
1969 12-11-2020 05:00:00 8.88333 C 8.31 g/m*3 8.88 C 0 km/h
1970 12-11-2020 06:00:00 9.19167 C 8.39 g/m*3 9.19 C 3.33333 km/h
1971 12-11-2020 07:00:00 9.6 C 8.44 g/m*3 9.6 C 4.54167 km/h
1972 12-11-2020 08:00:00 9.975 C 8.54 g/m*3 9.98 C 2.4 km/h
1973 12-11-2020 09:00:00 10.49167 C 8.76 g/m*3 10.49 C 3.46667 km/h
1974 12-11-2020 10:00:00 11.175 C 9.08 g/m*3 11.18 C 1.86667 km/h
1975 12-11-2020 11:00:00 11.86667 C 9.4 g/m*3 11.87 C 2.68333 km/h
Sensor: Nr:Datum:Temp:Abs-Feuchte:Windchill:Wind:
Aussen-T/F 1976 12-11-2020 12:00:00 12.00833 C 9.22 g/m*3 12.01 C 10.625 km/h
1977 12-11-2020 13:00:00 12.30833 C 8.97 g/m*3 12.31 C 11.69167 km/h
1978 12-11-2020 14:00:00 12.475 C 8.93 g/m*3 12.48 C 6.98333 km/h
1979 12-11-2020 15:00:00 12.11667 C 8.93 g/m*3 12.12 C 4.275 km/h
1980 12-11-2020 16:00:00 11.525 C 8.34 g/m*3 11.53 C 6.55833 km/h
1981 12-11-2020 17:00:00 9.48333 C 7.89 g/m*3 9.07 C 5.33333 km/h
1982 12-11-2020 18:00:00 8.26667 C 7.57 g/m*3 8.27 C 4.8 km/h
1983 12-11-2020 19:00:00 7.40833 C 7.24 g/m*3 7.41 C 1.06667 km/h
1984 12-11-2020 20:00:00 6.775 C 7.12 g/m*3 6.78 C 2.26667 km/h
1985 12-11-2020 21:00:00 5.9 C 6.72 g/m*3 5.9 C 0.4 km/h
1986 12-11-2020 22:00:00 4.61667 C 6.22 g/m*3 4.62 C 0 km/h
1987 12-11-2020 23:00:00 3.85 C 5.96 g/m*3 3.85 C 0 km/h
1988 13-11-2020 00:00:00 3.35 C 5.78 g/m*3 3.35 C 0 km/h
1989 13-11-2020 01:00:00 2.89167 C 5.63 g/m*3 2.89 C 0 km/h
1990 13-11-2020 02:00:00 2.375 C 5.45 g/m*3 2.38 C 0.13333 km/h
1991 13-11-2020 03:00:00 2.46667 C 5.51 g/m*3 2.47 C 0 km/h
1992 13-11-2020 04:00:00 2.75833 C 5.63 g/m*3 2.76 C 0.4 km/h
1993 13-11-2020 05:00:00 2.68333 C 5.59 g/m*3 2.68 C 0.53333 km/h
1994 13-11-2020 06:00:00 2.6 C 5.61 g/m*3 2.6 C 0.26667 km/h
1995 13-11-2020 07:00:00 2.63333 C 5.63 g/m*3 2.63 C 0.4 km/h
1996 13-11-2020 08:00:00 2.7 C 5.65 g/m*3 2.7 C 0.53333 km/h
1997 13-11-2020 09:00:00 2.875 C 5.72 g/m*3 2.88 C 1.46667 km/h
1998 13-11-2020 10:00:00 3.38333 C 5.92 g/m*3 3.38 C 0.4 km/h
1999 13-11-2020 11:00:00 4.525 C 6.41 g/m*3 4.53 C 0.53333 km/h
2000 13-11-2020 12:00:00 5.60833 C 6.93 g/m*3 5.61 C 0 km/h
Sensor: Nr:Datum:Temp:Abs-Feuchte:Windchill:Wind:
Aussen-T/F 2001 13-11-2020 13:00:00 8.175 C 8.19 g/m*3 8.18 C 0.8 km/h
2002 13-11-2020 14:00:00 9.525 C 8.91 g/m*3 9.53 C 0.26667 km/h
2003 13-11-2020 15:00:00 10.39167 C 9.3 g/m*3 10.39 C 0.4 km/h
2004 13-11-2020 16:00:00 10.68333 C 9.33 g/m*3 10.68 C 0.13333 km/h
2005 13-11-2020 17:00:00 10.775 C 9.38 g/m*3 10.78 C 0.26667 km/h
2006 13-11-2020 18:00:00 11.18333 C 9.57 g/m*3 11.18 C 0.66667 km/h
2007 13-11-2020 19:00:00 11.63333 C 9.81 g/m*3 11.63 C 2.13333 km/h
2008 13-11-2020 20:00:00 11.875 C 9.83 g/m*3 11.88 C 1.33333 km/h
2009 13-11-2020 21:00:00 11.54167 C 9.64 g/m*3 11.54 C 0.4 km/h
2010 13-11-2020 22:00:00 11.30833 C 9.58 g/m*3 11.31 C 0.66667 km/h
2011 13-11-2020 23:00:00 10.91667 C 9.36 g/m*3 10.92 C 0 km/h
2012 14-11-2020 00:00:00 10.45833 C 9.17 g/m*3 10.46 C 0.53333 km/h
2013 14-11-2020 01:00:00 10.38333 C 9.18 g/m*3 10.38 C 1.06667 km/h
2014 14-11-2020 02:00:00 10.81667 C 9.42 g/m*3 10.82 C 2 km/h
2015 14-11-2020 03:00:00 10.55 C 9.15 g/m*3 10.55 C 2.13333 km/h
2016 14-11-2020 04:00:00 10.01667 C 8.84 g/m*3 10.02 C 3.06667 km/h
2017 14-11-2020 05:00:00 8.975 C 8.24 g/m*3 8.98 C 1.6 km/h
2018 14-11-2020 06:00:00 7.79167 C 7.72 g/m*3 7.79 C 0 km/h
2019 14-11-2020 07:00:00 7.18333 C 7.5 g/m*3 7.18 C 0.26667 km/h
2020 14-11-2020 08:00:00 7.05833 C 7.47 g/m*3 7.06 C 0 km/h
2021 14-11-2020 09:00:00 7.43333 C 7.7 g/m*3 7.43 C 0 km/h
2022 14-11-2020 10:00:00 8.775 C 8.45 g/m*3 8.78 C 0.13333 km/h
2023 14-11-2020 11:00:00 11.16667 C 9.84 g/m*3 11.17 C 0.26667 km/h
2024 14-11-2020 12:00:00 13.025 C 10.51 g/m*3 13.03 C 0.26667 km/h
2025 14-11-2020 13:00:00 14.58333 C 10.54 g/m*3 14.58 C 6.05 km/h
Sensor: Nr:Datum:Temp:Abs-Feuchte:Windchill:Wind:
Aussen-T/F 2026 14-11-2020 14:00:00 14.99167 C 10.34 g/m*3 14.99 C 4.00833 km/h
2027 14-11-2020 15:00:00 14.1 C 10.23 g/m*3 14.1 C 3.6 km/h
2028 14-11-2020 16:00:00 13.08333 C 9.94 g/m*3 13.08 C 5.06667 km/h
2029 14-11-2020 17:00:00 11.71667 C 9.41 g/m*3 11.72 C 2.4 km/h
2030 14-11-2020 18:00:00 10.75 C 9.11 g/m*3 10.75 C 0 km/h
2031 14-11-2020 19:00:00 10.19167 C 8.9 g/m*3 10.19 C 2.13333 km/h
2032 14-11-2020 20:00:00 9.41667 C 8.53 g/m*3 9.42 C 0 km/h
2033 14-11-2020 21:00:00 9.50833 C 8.72 g/m*3 9.51 C 0 km/h
2034 14-11-2020 22:00:00 9.48333 C 8.73 g/m*3 9.48 C 0.26667 km/h
2035 14-11-2020 23:00:00 9.64167 C 8.84 g/m*3 9.64 C 1.46667 km/h
2036 15-11-2020 00:00:00 10.375 C 9.28 g/m*3 10.38 C 0.66667 km/h
2037 15-11-2020 01:00:00 10.325 C 9.21 g/m*3 10.33 C 0.93333 km/h
2038 15-11-2020 02:00:00 10.775 C 9.47 g/m*3 10.78 C 1.2 km/h
2039 15-11-2020 03:00:00 11.08333 C 9.49 g/m*3 11.08 C 0.4 km/h
2040 15-11-2020 04:00:00 10.84167 C 9.32 g/m*3 10.84 C 1.2 km/h
2041 15-11-2020 05:00:00 11.31667 C 9.51 g/m*3 11.32 C 1.875 km/h
2042 15-11-2020 06:00:00 12.19167 C 9.7 g/m*3 12.19 C 3.21667 km/h
2043 15-11-2020 07:00:00 12.20833 C 9.55 g/m*3 12.21 C 2.4 km/h
2044 15-11-2020 08:00:00 11.31667 C 9.29 g/m*3 11.32 C 0 km/h
2045 15-11-2020 09:00:00 11.43333 C 9.51 g/m*3 11.43 C 1.6 km/h
2046 15-11-2020 10:00:00 13.2 C 10.1 g/m*3 13.2 C 2 km/h
2047 15-11-2020 11:00:00 14.93333 C 10.38 g/m*3 14.93 C 6.84167 km/h
2048 15-11-2020 12:00:00 16.325 C 10.57 g/m*3 16.33 C 8.475 km/h
2049 15-11-2020 13:00:00 17.43333 C 10.58 g/m*3 17.43 C 6.98333 km/h
2050 15-11-2020 14:00:00 17.85833 C 10.31 g/m*3 17.86 C 6.43333 km/h
Sensor: Nr:Datum:Temp:Abs-Feuchte:Windchill:Wind:
Aussen-T/F 2051 15-11-2020 15:00:00 17.325 C 10.19 g/m*3 17.33 C 4.54167 km/h
2052 15-11-2020 16:00:00 16.125 C 9.96 g/m*3 16.13 C 3.60833 km/h
2053 15-11-2020 17:00:00 15.74167 C 10.04 g/m*3 15.74 C 4.15 km/h
2054 15-11-2020 18:00:00 14.60833 C 10.83 g/m*3 14.61 C 5.21667 km/h
2055 15-11-2020 19:00:00 13.56667 C 10.73 g/m*3 13.57 C 6.15833 km/h
2056 15-11-2020 20:00:00 13.59167 C 10.71 g/m*3 13.59 C 10.05 km/h
2057 15-11-2020 21:00:00 11.79167 C 9.55 g/m*3 11.79 C 6.43333 km/h
2058 15-11-2020 22:00:00 10.93333 C 9.37 g/m*3 10.93 C 2.13333 km/h
2059 15-11-2020 23:00:00 11.21667 C 9.1 g/m*3 11.22 C 9.54167 km/h
2060 16-11-2020 00:00:00 10.75833 C 8.77 g/m*3 10.48 C 5.49167 km/h
2061 16-11-2020 01:00:00 10.78333 C 8.29 g/m*3 9.72 C 9.125 km/h
2062 16-11-2020 02:00:00 10.53333 C 8.12 g/m*3 9.79 C 7.25833 km/h
2063 16-11-2020 03:00:00 10.81667 C 8.13 g/m*3 9.8 C 8.85833 km/h
2064 16-11-2020 04:00:00 10.85 C 8.24 g/m*3 9.29 C 12.35833 km/h
2065 16-11-2020 05:00:00 10.125 C 8.19 g/m*3 8.2 C 13.96667 km/h
2066 16-11-2020 06:00:00 10.025 C 8.09 g/m*3 8.74 C 9.55 km/h
2067 16-11-2020 07:00:00 9.79167 C 8.06 g/m*3 8.39 C 9.95 km/h
2068 16-11-2020 08:00:00 10.15833 C 8.33 g/m*3 8.65 C 11.01667 km/h
2069 16-11-2020 09:00:00 10.60833 C 8.41 g/m*3 9.21 C 10.9 km/h
2070 16-11-2020 10:00:00 10.78333 C 8.36 g/m*3 8.94 C 14.5 km/h
2071 16-11-2020 11:00:00 11.78333 C 8.62 g/m*3 11.78 C 14.23333 km/h
2072 16-11-2020 12:00:00 12.25 C 9.01 g/m*3 12.25 C 15.3 km/h
2073 16-11-2020 13:00:00 12.525 C 9.28 g/m*3 12.53 C 17.56667 km/h
2074 16-11-2020 14:00:00 12.4 C 9.21 g/m*3 12.4 C 13.43333 km/h
2075 16-11-2020 15:00:00 12.30833 C 9.21 g/m*3 12.31 C 15.03333 km/h
Sensor: Nr:Datum:Temp:Abs-Feuchte:Windchill:Wind:
Aussen-T/F 2076 16-11-2020 16:00:00 11.63333 C 9 g/m*3 11.63 C 15.03333 km/h
2077 16-11-2020 17:00:00 11.1 C 8.88 g/m*3 11.1 C 11.01667 km/h
2078 16-11-2020 18:00:00 10.90833 C 8.83 g/m*3 9.33 C 12.63333 km/h
2079 16-11-2020 19:00:00 11.15 C 8.83 g/m*3 11.15 C 9.28333 km/h
2080 16-11-2020 20:00:00 10.78333 C 8.68 g/m*3 10.33 C 6.175 km/h
2081 16-11-2020 21:00:00 9.60833 C 8.15 g/m*3 9.61 C 3.88333 km/h
2082 16-11-2020 22:00:00 8.79167 C 7.88 g/m*3 8.36 C 5.075 km/h
2083 16-11-2020 23:00:00 9.14167 C 8.04 g/m*3 8.14 C 7.38333 km/h
2084 17-11-2020 00:00:00 9.375 C 8.11 g/m*3 8.41 C 7.39167 km/h
2085 17-11-2020 01:00:00 10.025 C 8.27 g/m*3 9.29 C 6.85 km/h
2086 17-11-2020 02:00:00 10.44167 C 8.41 g/m*3 9.1 C 10.35833 km/h
2087 17-11-2020 03:00:00 10.59167 C 8.42 g/m*3 9.18 C 11.025 km/h
2088 17-11-2020 04:00:00 10.68333 C 8.47 g/m*3 9.22 C 11.43333 km/h
2089 17-11-2020 05:00:00 10.73333 C 8.51 g/m*3 9.35 C 11.01667 km/h
2090 17-11-2020 06:00:00 10.45 C 8.49 g/m*3 9.16 C 10.08333 km/h
2091 17-11-2020 07:00:00 10.60833 C 8.4 g/m*3 10.23 C 5.76667 km/h
2092 17-11-2020 08:00:00 10.7 C 8.45 g/m*3 10.2 C 6.31667 km/h
2093 17-11-2020 09:00:00 11 C 8.59 g/m*3 9.9 C 9.54167 km/h
2094 17-11-2020 10:00:00 11.40833 C 8.71 g/m*3 11.41 C 16.9 km/h
2095 17-11-2020 11:00:00 11.99167 C 8.87 g/m*3 11.99 C 18.76667 km/h
2096 17-11-2020 12:00:00 12.64167 C 9.05 g/m*3 12.64 C 13.7 km/h
2097 17-11-2020 13:00:00 12.825 C 9.09 g/m*3 12.83 C 12.89167 km/h
2098 17-11-2020 14:00:00 13.04167 C 9.11 g/m*3 13.04 C 9.825 km/h
2099 17-11-2020 15:00:00 12.8 C 9.07 g/m*3 12.8 C 8.59167 km/h
2100 17-11-2020 16:00:00 12.65833 C 9.04 g/m*3 12.66 C 9.15 km/h
Sensor: Nr:Datum:Temp:Abs-Feuchte:Windchill:Wind:
Aussen-T/F 2101 17-11-2020 17:00:00 12.36667 C 9 g/m*3 12.37 C 5.48333 km/h
2102 17-11-2020 18:00:00 12.25 C 9.01 g/m*3 12.25 C 3.475 km/h
2103 17-11-2020 19:00:00 11.95 C 8.99 g/m*3 11.95 C 1.06667 km/h
2104 17-11-2020 20:00:00 11.85 C 9.08 g/m*3 11.85 C 5.21667 km/h
2105 17-11-2020 21:00:00 11.825 C 9.07 g/m*3 11.83 C 3.88333 km/h
2106 17-11-2020 22:00:00 11.66667 C 9.04 g/m*3 11.67 C 1.875 km/h
2107 17-11-2020 23:00:00 11.58333 C 8.89 g/m*3 11.58 C 3.86667 km/h
2108 18-11-2020 00:00:00 11.53333 C 8.8 g/m*3 11.53 C 2 km/h
2109 18-11-2020 01:00:00 11.35 C 8.78 g/m*3 11.35 C 0 km/h
2110 18-11-2020 02:00:00 11.3 C 8.77 g/m*3 11.3 C 2.66667 km/h
2111 18-11-2020 03:00:00 11.175 C 8.75 g/m*3 11.18 C 1.46667 km/h
2112 18-11-2020 04:00:00 10.95 C 8.68 g/m*3 10.95 C 0.4 km/h
2113 18-11-2020 05:00:00 10.8 C 8.63 g/m*3 10.8 C 0.26667 km/h
2114 18-11-2020 06:00:00 10.7 C 8.64 g/m*3 10.7 C 0.13333 km/h
2115 18-11-2020 07:00:00 10.7 C 8.67 g/m*3 10.7 C 0 km/h
2116 18-11-2020 08:00:00 10.775 C 8.63 g/m*3 10.78 C 2.66667 km/h
2117 18-11-2020 09:00:00 10.6 C 8.46 g/m*3 10.6 C 1.2 km/h
2118 18-11-2020 10:00:00 9.43333 C 8.13 g/m*3 9.43 C 2.13333 km/h
2119 18-11-2020 11:00:00 9.6 C 8.48 g/m*3 9.6 C 4 km/h
2120 18-11-2020 12:00:00 10.35 C 8.83 g/m*3 10.35 C 2.8 km/h
2121 18-11-2020 13:00:00 10.975 C 9.09 g/m*3 10.98 C 0 km/h
2122 18-11-2020 14:00:00 11.54167 C 9.3 g/m*3 11.54 C 2.13333 km/h
2123 18-11-2020 15:00:00 12.15 C 9.42 g/m*3 12.15 C 4.4 km/h
2124 18-11-2020 16:00:00 11.23333 C 8.95 g/m*3 11.23 C 5.06667 km/h
2125 18-11-2020 17:00:00 9.60833 C 8.25 g/m*3 9.61 C 3.86667 km/h
Sensor: Nr:Datum:Temp:Abs-Feuchte:Windchill:Wind:
Aussen-T/F 2126 18-11-2020 18:00:00 8.64167 C 7.93 g/m*3 8.64 C 4.66667 km/h
2127 18-11-2020 19:00:00 8.00833 C 7.69 g/m*3 8.01 C 2.8 km/h
2128 18-11-2020 20:00:00 7.3 C 7.37 g/m*3 7.3 C 0.4 km/h
2129 18-11-2020 21:00:00 6.66667 C 7.13 g/m*3 6.67 C 0.66667 km/h
2130 18-11-2020 22:00:00 6.35 C 7.02 g/m*3 6.35 C 0.4 km/h
2131 18-11-2020 23:00:00 6.00833 C 6.9 g/m*3 6.01 C 0.26667 km/h
2132 19-11-2020 00:00:00 6.94167 C 7.41 g/m*3 6.07 C 5.64167 km/h
2133 19-11-2020 01:00:00 11.14167 C 8.55 g/m*3 11.14 C 13.83333 km/h
2134 19-11-2020 02:00:00 11.925 C 8.76 g/m*3 11.93 C 12.75833 km/h
2135 19-11-2020 03:00:00 10.675 C 8.92 g/m*3 9.32 C 10.75833 km/h
2136 19-11-2020 04:00:00 10.7 C 8.96 g/m*3 9.82 C 8.05 km/h
2137 19-11-2020 05:00:00 10.61667 C 9 g/m*3 9.4 C 9.80833 km/h
2138 19-11-2020 06:00:00 8.975 C 8.28 g/m*3 8.04 C 6.99167 km/h
2139 19-11-2020 07:00:00 8.475 C 8.05 g/m*3 8.48 C 4.93333 km/h
2140 19-11-2020 08:00:00 7.95 C 7.75 g/m*3 6.92 C 6.69167 km/h
2141 19-11-2020 09:00:00 7.65833 C 7.43 g/m*3 6.21 C 8.19167 km/h
2142 19-11-2020 10:00:00 8.51667 C 7.66 g/m*3 7.38 C 7.51667 km/h
2143 19-11-2020 11:00:00 9.68333 C 7.96 g/m*3 8.49 C 8.73333 km/h
2144 19-11-2020 12:00:00 9.56667 C 8.24 g/m*3 8.7 C 7.10833 km/h
2145 19-11-2020 13:00:00 9.95 C 7.7 g/m*3 8 C 13.825 km/h
2146 19-11-2020 14:00:00 10.55833 C 7.33 g/m*3 8.61 C 14.9 km/h
2147 19-11-2020 15:00:00 10.89167 C 7.14 g/m*3 9.48 C 11.425 km/h
2148 19-11-2020 16:00:00 10.28333 C 7.34 g/m*3 8.76 C 11.3 km/h
2149 19-11-2020 17:00:00 9.43333 C 7.56 g/m*3 9.43 C 2.93333 km/h
2150 19-11-2020 18:00:00 8.63333 C 7.7 g/m*3 8.63 C 4.14167 km/h
Sensor: Nr:Datum:Temp:Abs-Feuchte:Windchill:Wind:
Aussen-T/F 2151 19-11-2020 19:00:00 8.01667 C 7.58 g/m*3 7.18 C 6.025 km/h
2152 19-11-2020 20:00:00 7.7 C 7.52 g/m*3 7.7 C 2.4 km/h
2153 19-11-2020 21:00:00 6.65 C 7.08 g/m*3 6.65 C 2.8 km/h
2154 19-11-2020 22:00:00 5.56667 C 6.62 g/m*3 5.57 C 3.73333 km/h
2155 19-11-2020 23:00:00 5.41667 C 6.64 g/m*3 5.42 C 1.33333 km/h
2156 20-11-2020 00:00:00 5.25833 C 6.56 g/m*3 5.26 C 4 km/h
2157 20-11-2020 01:00:00 5.01667 C 6.36 g/m*3 5.02 C 2.80833 km/h
2158 20-11-2020 02:00:00 4.475 C 6.15 g/m*3 4.47 C 2.93333 km/h
2159 20-11-2020 03:00:00 3.00833 C 5.56 g/m*3 3.01 C 0.93333 km/h
2160 20-11-2020 04:00:00 2.49167 C 5.42 g/m*3 2.49 C 0.53333 km/h
2161 20-11-2020 05:00:00 2.825 C 5.61 g/m*3 2.83 C 2.93333 km/h
2162 20-11-2020 06:00:00 3.21667 C 5.79 g/m*3 3.22 C 3.73333 km/h
2163 20-11-2020 07:00:00 3.65 C 5.96 g/m*3 3.65 C 3.46667 km/h
2164 20-11-2020 08:00:00 3.89167 C 6.06 g/m*3 3.89 C 4.4 km/h
2165 20-11-2020 09:00:00 4.34167 C 6.24 g/m*3 4.34 C 4.4 km/h
2166 20-11-2020 10:00:00 5.06667 C 6.49 g/m*3 3.83 C 5.9 km/h
2167 20-11-2020 11:00:00 5.875 C 6.69 g/m*3 4.68 C 6.14167 km/h
2168 20-11-2020 12:00:00 6.45833 C 6.81 g/m*3 6.46 C 4.26667 km/h
2169 20-11-2020 13:00:00 6.75833 C 6.86 g/m*3 6.76 C 3.60833 km/h
2170 20-11-2020 14:00:00 6.625 C 6.52 g/m*3 5.9 C 5.08333 km/h
2171 20-11-2020 15:00:00 6.78333 C 6.43 g/m*3 6.78 C 1.46667 km/h
2172 20-11-2020 16:00:00 6.825 C 6.56 g/m*3 6.83 C 0 km/h
2173 20-11-2020 17:00:00 5.68333 C 6.25 g/m*3 5.68 C 0.26667 km/h
2174 20-11-2020 18:00:00 3.74167 C 5.61 g/m*3 3.74 C 0.53333 km/h
2175 20-11-2020 19:00:00 2.35 C 5.25 g/m*3 2.35 C 0 km/h
Sensor: Nr:Datum:Temp:Abs-Feuchte:Windchill:Wind:
Aussen-T/F 2176 20-11-2020 20:00:00 1.31667 C 4.96 g/m*3 1.32 C 0 km/h
2177 20-11-2020 21:00:00 0.76667 C 4.82 g/m*3 0.77 C 0 km/h
2178 20-11-2020 22:00:00 0.3 C 4.7 g/m*3 0.3 C 0 km/h
2179 20-11-2020 23:00:00 0.275 C 4.7 g/m*3 0.28 C 0.26667 km/h
2180 21-11-2020 00:00:00 0.25 C 4.72 g/m*3 0.25 C 0.66667 km/h
2181 21-11-2020 01:00:00 0.25833 C 4.73 g/m*3 0.26 C 0.66667 km/h
2182 21-11-2020 02:00:00 0.2 C 4.72 g/m*3 0.2 C 0.26667 km/h
2183 21-11-2020 03:00:00 0.24167 C 4.73 g/m*3 0.24 C 0.93333 km/h
2184 21-11-2020 04:00:00 0.14167 C 4.7 g/m*3 0.14 C 1.6 km/h
2185 21-11-2020 05:00:00 0.175 C 4.71 g/m*3 0.18 C 1.2 km/h
2186 21-11-2020 06:00:00 0.24167 C 4.75 g/m*3 0.24 C 0.53333 km/h
2187 21-11-2020 07:00:00 0.31667 C 4.8 g/m*3 0.32 C 0 km/h
2188 21-11-2020 08:00:00 0.525 C 4.87 g/m*3 0.53 C 0.13333 km/h
2189 21-11-2020 09:00:00 1.14167 C 5.08 g/m*3 1.14 C 0 km/h
2190 21-11-2020 10:00:00 2.175 C 5.45 g/m*3 2.17 C 0.4 km/h
2191 21-11-2020 11:00:00 3.41667 C 5.93 g/m*3 3.42 C 0.4 km/h
2192 21-11-2020 12:00:00 5.40833 C 6.34 g/m*3 3.6 C 8.05833 km/h
2193 21-11-2020 13:00:00 7.15 C 6.14 g/m*3 5.58 C 8.34167 km/h
2194 21-11-2020 14:00:00 7.85 C 6.11 g/m*3 5.97 C 10.5 km/h
2195 21-11-2020 15:00:00 7.99167 C 6 g/m*3 6.35 C 9.39167 km/h
2196 21-11-2020 16:00:00 7.89167 C 6.08 g/m*3 7.89 C 2.94167 km/h
2197 21-11-2020 17:00:00 7.21667 C 6.29 g/m*3 7.22 C 0 km/h
2198 21-11-2020 18:00:00 5.65 C 5.98 g/m*3 5.65 C 2.8 km/h
2199 21-11-2020 19:00:00 4.89167 C 5.91 g/m*3 4.89 C 0.66667 km/h
2200 21-11-2020 20:00:00 4.14167 C 5.68 g/m*3 4.14 C 3.89167 km/h
Sensor: Nr:Datum:Temp:Abs-Feuchte:Windchill:Wind:
Aussen-T/F 2201 21-11-2020 21:00:00 4.10833 C 5.65 g/m*3 2.88 C 5.49167 km/h
2202 21-11-2020 22:00:00 4.60833 C 5.84 g/m*3 3.17 C 6.3 km/h
2203 21-11-2020 23:00:00 5.53333 C 6.04 g/m*3 2.72 C 13.03333 km/h
2204 22-11-2020 00:00:00 5.78333 C 6.08 g/m*3 3 C 13.16667 km/h
2205 22-11-2020 01:00:00 5.98333 C 6.16 g/m*3 3.5 C 11.7 km/h
2206 22-11-2020 02:00:00 6.3 C 6.22 g/m*3 3.93 C 11.43333 km/h
2207 22-11-2020 03:00:00 6.30833 C 6.22 g/m*3 3.76 C 12.5 km/h
2208 22-11-2020 04:00:00 6.50833 C 6.23 g/m*3 3.47 C 15.96667 km/h
2209 22-11-2020 05:00:00 6.6 C 6.3 g/m*3 3.85 C 14.1 km/h
2210 22-11-2020 06:00:00 6.80833 C 6.41 g/m*3 4.17 C 13.7 km/h
2211 22-11-2020 07:00:00 6.88333 C 6.44 g/m*3 4.2 C 14.1 km/h
2212 22-11-2020 08:00:00 6.875 C 6.51 g/m*3 4.15 C 14.36667 km/h
2213 22-11-2020 09:00:00 7.275 C 6.7 g/m*3 4.72 C 13.83333 km/h
2214 22-11-2020 10:00:00 7.625 C 6.81 g/m*3 4.82 C 16.23333 km/h
2215 22-11-2020 11:00:00 8.1 C 6.98 g/m*3 5.7 C 14.1 km/h
2216 22-11-2020 12:00:00 8.45 C 7.09 g/m*3 6.11 C 14.23333 km/h
2217 22-11-2020 13:00:00 8.78333 C 7.22 g/m*3 6.59 C 13.7 km/h
2218 22-11-2020 14:00:00 8.95 C 7.29 g/m*3 7.24 C 10.75833 km/h
2219 22-11-2020 15:00:00 8.975 C 7.32 g/m*3 7.04 C 12.225 km/h
2220 22-11-2020 16:00:00 8.875 C 7.38 g/m*3 7.58 C 8.48333 km/h
2221 22-11-2020 17:00:00 8.73333 C 7.37 g/m*3 7.36 C 8.75 km/h
2222 22-11-2020 18:00:00 8.53333 C 7.27 g/m*3 7.02 C 9.28333 km/h
2223 22-11-2020 19:00:00 8.41667 C 7.25 g/m*3 7.64 C 6.025 km/h
2224 22-11-2020 20:00:00 8.34167 C 7.24 g/m*3 7.48 C 6.29167 km/h
2225 22-11-2020 21:00:00 8.3 C 7.31 g/m*3 7.51 C 6.025 km/h
Sensor: Nr:Datum:Temp:Abs-Feuchte:Windchill:Wind:
Aussen-T/F 2226 22-11-2020 22:00:00 8.3 C 7.34 g/m*3 7 C 8.06667 km/h
2227 22-11-2020 23:00:00 8.3 C 7.42 g/m*3 7.55 C 5.9 km/h
2228 23-11-2020 00:00:00 8.21667 C 7.41 g/m*3 6.99 C 7.66667 km/h
2229 23-11-2020 01:00:00 8.1 C 7.43 g/m*3 7.44 C 5.49167 km/h
2230 23-11-2020 02:00:00 8.025 C 7.37 g/m*3 6.93 C 6.98333 km/h
2231 23-11-2020 03:00:00 7.99167 C 7.35 g/m*3 6.69 C 7.8 km/h
2232 23-11-2020 04:00:00 7.83333 C 7.4 g/m*3 6.98 C 6.01667 km/h
2233 23-11-2020 05:00:00 7.81667 C 7.39 g/m*3 7.82 C 4.01667 km/h
2234 23-11-2020 06:00:00 7.79167 C 7.42 g/m*3 6.85 C 6.29167 km/h
2235 23-11-2020 07:00:00 7.69167 C 7.38 g/m*3 6.19 C 8.475 km/h
2236 23-11-2020 08:00:00 7.75833 C 7.44 g/m*3 6.66 C 6.83333 km/h
2237 23-11-2020 09:00:00 7.875 C 7.61 g/m*3 6.87 C 6.55833 km/h
2238 23-11-2020 10:00:00 8.28333 C 7.74 g/m*3 7.57 C 5.76667 km/h
2239 23-11-2020 11:00:00 8.84167 C 7.86 g/m*3 8.84 C 4.8 km/h
2240 23-11-2020 12:00:00 9.20833 C 7.94 g/m*3 9.21 C 3.73333 km/h
2241 23-11-2020 13:00:00 9.46667 C 7.96 g/m*3 9.47 C 1.46667 km/h
2242 23-11-2020 14:00:00 9.75833 C 7.96 g/m*3 9.76 C 3.86667 km/h
2243 23-11-2020 15:00:00 9.76667 C 7.96 g/m*3 9.77 C 0.26667 km/h
2244 23-11-2020 16:00:00 9.23333 C 7.82 g/m*3 9.23 C 0.13333 km/h
2245 23-11-2020 17:00:00 7.48333 C 7.12 g/m*3 7.48 C 2.66667 km/h
2246 23-11-2020 18:00:00 5.45 C 6.45 g/m*3 5.45 C 0.13333 km/h
2247 23-11-2020 19:00:00 4.73333 C 6.28 g/m*3 4.73 C 0.53333 km/h
2248 23-11-2020 20:00:00 4.69167 C 6.35 g/m*3 4.69 C 0 km/h
2249 23-11-2020 21:00:00 6.075 C 7 g/m*3 6.08 C 0.4 km/h
2250 23-11-2020 22:00:00 6.75833 C 7.32 g/m*3 6.76 C 0.8 km/h
Sensor: Nr:Datum:Temp:Abs-Feuchte:Windchill:Wind:
Aussen-T/F 2251 23-11-2020 23:00:00 6.95833 C 7.42 g/m*3 6.96 C 0 km/h
2252 24-11-2020 00:00:00 6.93333 C 7.32 g/m*3 6.93 C 1.33333 km/h
2253 24-11-2020 01:00:00 6.65 C 7.12 g/m*3 6.65 C 0.4 km/h
2254 24-11-2020 02:00:00 6.45 C 6.98 g/m*3 6.45 C 2.40833 km/h
2255 24-11-2020 03:00:00 6.3 C 6.88 g/m*3 6.3 C 1.46667 km/h
2256 24-11-2020 04:00:00 6.05 C 6.81 g/m*3 6.05 C 1.73333 km/h
2257 24-11-2020 05:00:00 5.86667 C 6.76 g/m*3 5.87 C 0.66667 km/h
2258 24-11-2020 06:00:00 5.775 C 6.72 g/m*3 5.78 C 0.4 km/h
2259 24-11-2020 07:00:00 5.6 C 6.65 g/m*3 5.6 C 3.86667 km/h
2260 24-11-2020 08:00:00 5.30833 C 6.52 g/m*3 5.31 C 3.46667 km/h
2261 24-11-2020 09:00:00 5.24167 C 6.49 g/m*3 5.24 C 2.66667 km/h
2262 24-11-2020 10:00:00 5.99167 C 6.78 g/m*3 5.99 C 1.06667 km/h
2263 24-11-2020 11:00:00 6.675 C 6.93 g/m*3 6.68 C 2.675 km/h
2264 24-11-2020 12:00:00 7.19167 C 6.98 g/m*3 7.19 C 2.93333 km/h
2265 24-11-2020 13:00:00 7.275 C 6.97 g/m*3 7.28 C 4.81667 km/h
2266 24-11-2020 14:00:00 6.93333 C 6.86 g/m*3 6.93 C 4.275 km/h
2267 24-11-2020 15:00:00 6.525 C 6.75 g/m*3 6.53 C 4.00833 km/h
2268 24-11-2020 16:00:00 6.46667 C 6.74 g/m*3 6.47 C 1.06667 km/h
2269 24-11-2020 17:00:00 6.51667 C 6.76 g/m*3 6.52 C 1.06667 km/h
2270 24-11-2020 18:00:00 6.4 C 6.71 g/m*3 6.4 C 1.33333 km/h
2271 24-11-2020 19:00:00 6.4 C 6.73 g/m*3 6.4 C 0.53333 km/h
2272 24-11-2020 20:00:00 6.4 C 6.78 g/m*3 6.4 C 0.26667 km/h
2273 24-11-2020 21:00:00 6.375 C 6.77 g/m*3 6.38 C 0 km/h
2274 24-11-2020 22:00:00 6.3 C 6.75 g/m*3 6.3 C 0 km/h
2275 24-11-2020 23:00:00 6.275 C 6.72 g/m*3 6.28 C 0.26667 km/h
Sensor: Nr:Datum:Temp:Abs-Feuchte:Windchill:Wind:
Aussen-T/F 2276 25-11-2020 00:00:00 6.28333 C 6.65 g/m*3 6.28 C 0.4 km/h
2277 25-11-2020 01:00:00 6.175 C 6.61 g/m*3 6.18 C 0 km/h
2278 25-11-2020 02:00:00 6.05833 C 6.56 g/m*3 6.06 C 0.26667 km/h
2279 25-11-2020 03:00:00 5.85 C 6.52 g/m*3 5.85 C 0.53333 km/h
2280 25-11-2020 04:00:00 5.53333 C 6.41 g/m*3 5.53 C 0.4 km/h
2281 25-11-2020 05:00:00 4.4 C 5.99 g/m*3 4.4 C 0.66667 km/h
2282 25-11-2020 06:00:00 3.43333 C 5.72 g/m*3 3.43 C 1.46667 km/h
2283 25-11-2020 07:00:00 2.78333 C 5.53 g/m*3 2.78 C 0.66667 km/h
2284 25-11-2020 08:00:00 2.54167 C 5.48 g/m*3 2.54 C 0 km/h
2285 25-11-2020 09:00:00 2.93333 C 5.66 g/m*3 2.93 C 0 km/h
2286 25-11-2020 10:00:00 4.025 C 6.14 g/m*3 4.03 C 0 km/h
2287 25-11-2020 11:00:00 5.58333 C 6.8 g/m*3 5.58 C 0.4 km/h
2288 25-11-2020 12:00:00 5.75 C 6.78 g/m*3 5.75 C 0.26667 km/h
2289 25-11-2020 13:00:00 6.20833 C 6.98 g/m*3 6.21 C 1.06667 km/h
2290 25-11-2020 14:00:00 6.625 C 7.08 g/m*3 6.63 C 0.13333 km/h
2291 25-11-2020 15:00:00 6.38333 C 6.92 g/m*3 6.38 C 1.33333 km/h
2292 25-11-2020 16:00:00 5.975 C 6.65 g/m*3 4.88 C 5.9 km/h
2293 25-11-2020 17:00:00 5.01667 C 6.25 g/m*3 5.02 C 1.6 km/h
2294 25-11-2020 18:00:00 4.1 C 5.96 g/m*3 4.1 C 0 km/h
2295 25-11-2020 19:00:00 3.48333 C 5.78 g/m*3 3.48 C 0.13333 km/h
2296 25-11-2020 20:00:00 3.13333 C 5.7 g/m*3 3.13 C 0.53333 km/h
2297 25-11-2020 21:00:00 2.475 C 5.45 g/m*3 2.48 C 0.66667 km/h
2298 25-11-2020 22:00:00 2.13333 C 5.33 g/m*3 2.13 C 0 km/h
2299 25-11-2020 23:00:00 1.86667 C 5.27 g/m*3 1.87 C 0.4 km/h
2300 26-11-2020 00:00:00 1.63333 C 5.2 g/m*3 1.63 C 0 km/h
Sensor: Nr:Datum:Temp:Abs-Feuchte:Windchill:Wind:
Aussen-T/F 2301 26-11-2020 01:00:00 1.95 C 5.32 g/m*3 1.95 C 0 km/h
2302 26-11-2020 02:00:00 2.6 C 5.59 g/m*3 2.6 C 0.13333 km/h
2303 26-11-2020 03:00:00 2.81667 C 5.7 g/m*3 2.82 C 0 km/h
2304 26-11-2020 04:00:00 3.06667 C 5.79 g/m*3 3.07 C 0.26667 km/h
2305 26-11-2020 05:00:00 3.3 C 5.88 g/m*3 3.3 C 0.66667 km/h
2306 26-11-2020 06:00:00 3.025 C 5.75 g/m*3 3.03 C 0.93333 km/h
2307 26-11-2020 07:00:00 2.81667 C 5.68 g/m*3 2.82 C 0.93333 km/h
2308 26-11-2020 08:00:00 2.59167 C 5.55 g/m*3 2.59 C 2.53333 km/h
2309 26-11-2020 09:00:00 2.55833 C 5.57 g/m*3 2.56 C 1.86667 km/h
2310 26-11-2020 10:00:00 2.81667 C 5.67 g/m*3 2.82 C 1.06667 km/h
2311 26-11-2020 11:00:00 3.55 C 5.96 g/m*3 3.55 C 2 km/h
2312 26-11-2020 12:00:00 4.25 C 6.15 g/m*3 4.25 C 2.13333 km/h
2313 26-11-2020 13:00:00 4.74167 C 6.23 g/m*3 4.74 C 3.2 km/h
2314 26-11-2020 14:00:00 5.09167 C 6.28 g/m*3 5.09 C 3.88333 km/h
2315 26-11-2020 15:00:00 5.13333 C 6.25 g/m*3 5.13 C 2.4 km/h
2316 26-11-2020 16:00:00 4.81667 C 6.16 g/m*3 4.82 C 1.60833 km/h
2317 26-11-2020 17:00:00 4.38333 C 6.03 g/m*3 4.38 C 1.86667 km/h
2318 26-11-2020 18:00:00 4.16667 C 5.98 g/m*3 4.17 C 1.6 km/h
2319 26-11-2020 19:00:00 4.1 C 5.95 g/m*3 4.1 C 0.13333 km/h
2320 26-11-2020 20:00:00 3.85 C 5.83 g/m*3 3.85 C 0.93333 km/h
2321 26-11-2020 21:00:00 2.8 C 5.45 g/m*3 2.8 C 1.2 km/h
2322 26-11-2020 22:00:00 2.86667 C 5.54 g/m*3 2.87 C 0.53333 km/h
2323 26-11-2020 23:00:00 2.59167 C 5.44 g/m*3 2.59 C 0 km/h
2324 27-11-2020 00:00:00 2.25833 C 5.35 g/m*3 2.26 C 0 km/h
2325 27-11-2020 01:00:00 2.84167 C 5.59 g/m*3 2.84 C 0 km/h
Sensor: Nr:Datum:Temp:Abs-Feuchte:Windchill:Wind:
Aussen-T/F 2326 27-11-2020 02:00:00 3 C 5.65 g/m*3 3 C 0 km/h
2327 27-11-2020 03:00:00 2.91667 C 5.62 g/m*3 2.92 C 0 km/h
2328 27-11-2020 04:00:00 2.85833 C 5.59 g/m*3 2.86 C 0.26667 km/h
2329 27-11-2020 05:00:00 2.75833 C 5.56 g/m*3 2.76 C 0.4 km/h
2330 27-11-2020 06:00:00 2.7 C 5.54 g/m*3 2.7 C 0.4 km/h
2331 27-11-2020 07:00:00 2.68333 C 5.53 g/m*3 2.68 C 0.13333 km/h
2332 27-11-2020 08:00:00 2.8 C 5.6 g/m*3 2.8 C 0.13333 km/h
2333 27-11-2020 09:00:00 2.96667 C 5.69 g/m*3 2.97 C 0 km/h
2334 27-11-2020 10:00:00 3.45833 C 5.83 g/m*3 3.46 C 3.6 km/h
2335 27-11-2020 11:00:00 3.85 C 5.91 g/m*3 3.85 C 2.4 km/h
2336 27-11-2020 12:00:00 4.01667 C 5.89 g/m*3 2.94 C 5.075 km/h
2337 27-11-2020 13:00:00 4.15 C 5.9 g/m*3 4.15 C 3.06667 km/h
2338 27-11-2020 14:00:00 4.425 C 6.02 g/m*3 4.43 C 2.53333 km/h
2339 27-11-2020 15:00:00 4.675 C 6.11 g/m*3 4.68 C 2.8 km/h
2340 27-11-2020 16:00:00 4.6 C 6.09 g/m*3 4.6 C 1.6 km/h
2341 27-11-2020 17:00:00 4.6 C 6.12 g/m*3 4.6 C 1.33333 km/h
2342 27-11-2020 18:00:00 4.51667 C 6.12 g/m*3 4.52 C 1.33333 km/h
2343 27-11-2020 19:00:00 4.45 C 6.09 g/m*3 4.45 C 0.53333 km/h
2344 27-11-2020 20:00:00 4.38333 C 6.08 g/m*3 4.38 C 0.53333 km/h
2345 27-11-2020 21:00:00 4.39167 C 6.07 g/m*3 4.39 C 0.26667 km/h
2346 27-11-2020 22:00:00 4.30833 C 6.04 g/m*3 4.31 C 0 km/h
2347 27-11-2020 23:00:00 4.05833 C 5.93 g/m*3 4.06 C 2.4 km/h
2348 28-11-2020 00:00:00 3.75833 C 5.81 g/m*3 3.76 C 0.93333 km/h
2349 28-11-2020 01:00:00 3.59167 C 5.75 g/m*3 3.59 C 2.66667 km/h
2350 28-11-2020 02:00:00 3.425 C 5.7 g/m*3 3.43 C 1.86667 km/h
Sensor: Nr:Datum:Temp:Abs-Feuchte:Windchill:Wind:
Aussen-T/F 2351 28-11-2020 03:00:00 3.24167 C 5.66 g/m*3 3.24 C 0.8 km/h
2352 28-11-2020 04:00:00 2.95 C 5.57 g/m*3 2.95 C 2.26667 km/h
2353 28-11-2020 05:00:00 2.88333 C 5.55 g/m*3 2.88 C 1.2 km/h
2354 28-11-2020 06:00:00 2.73333 C 5.49 g/m*3 2.73 C 1.46667 km/h
2355 28-11-2020 07:00:00 2.56667 C 5.43 g/m*3 2.57 C 0.66667 km/h
2356 28-11-2020 08:00:00 2.41667 C 5.37 g/m*3 2.42 C 0.53333 km/h
2357 28-11-2020 09:00:00 2.55833 C 5.42 g/m*3 2.56 C 1.73333 km/h
2358 28-11-2020 10:00:00 2.925 C 5.49 g/m*3 2.93 C 2.8 km/h
2359 28-11-2020 11:00:00 3.43333 C 5.59 g/m*3 3.43 C 3.2 km/h
2360 28-11-2020 12:00:00 3.80833 C 5.62 g/m*3 3.81 C 4 km/h
2361 28-11-2020 13:00:00 4.04167 C 5.67 g/m*3 2.96 C 5.08333 km/h
2362 28-11-2020 14:00:00 4.15 C 5.73 g/m*3 4.15 C 4.80833 km/h
2363 28-11-2020 15:00:00 3.875 C 5.67 g/m*3 3.88 C 1.33333 km/h
2364 28-11-2020 16:00:00 3.59167 C 5.61 g/m*3 3.59 C 1.06667 km/h
2365 28-11-2020 17:00:00 3.33333 C 5.55 g/m*3 3.33 C 3.34167 km/h
2366 28-11-2020 18:00:00 3.2 C 5.53 g/m*3 3.2 C 2.66667 km/h
2367 28-11-2020 19:00:00 3.00833 C 5.48 g/m*3 3.01 C 3.74167 km/h
2368 28-11-2020 20:00:00 3.075 C 5.56 g/m*3 3.08 C 1.33333 km/h
2369 28-11-2020 21:00:00 3.35833 C 5.66 g/m*3 3.36 C 1.33333 km/h
2370 28-11-2020 22:00:00 3.63333 C 5.77 g/m*3 3.63 C 0.4 km/h
2371 28-11-2020 23:00:00 3.76667 C 5.8 g/m*3 3.77 C 1.06667 km/h
2372 29-11-2020 00:00:00 3.85833 C 5.75 g/m*3 3.86 C 4 km/h
2373 29-11-2020 01:00:00 3.54167 C 5.51 g/m*3 1.56 C 7.51667 km/h
2374 29-11-2020 02:00:00 2.86667 C 5.16 g/m*3 2.87 C 4.40833 km/h
2375 29-11-2020 03:00:00 2.7 C 5.07 g/m*3 2.7 C 4.425 km/h
Sensor: Nr:Datum:Temp:Abs-Feuchte:Windchill:Wind:
Aussen-T/F 2376 29-11-2020 04:00:00 2.48333 C 4.94 g/m*3 2.48 C 4.15 km/h
2377 29-11-2020 05:00:00 2.3 C 4.87 g/m*3 2.3 C 2.94167 km/h
2378 29-11-2020 06:00:00 2.18333 C 4.8 g/m*3 2.18 C 2.66667 km/h
2379 29-11-2020 07:00:00 1.91667 C 4.67 g/m*3 1.92 C 3.34167 km/h
2380 29-11-2020 08:00:00 1.71667 C 4.56 g/m*3 1.72 C 4.29167 km/h
2381 29-11-2020 09:00:00 1.58333 C 4.47 g/m*3 0.11 C 5.225 km/h
2382 29-11-2020 10:00:00 1.775 C 4.48 g/m*3 0.11 C 5.75833 km/h
2383 29-11-2020 11:00:00 2.09167 C 4.47 g/m*3 -0.14 C 7.51667 km/h
2384 29-11-2020 12:00:00 2.3 C 4.48 g/m*3 0.61 C 6.03333 km/h
2385 29-11-2020 13:00:00 2.58333 C 4.48 g/m*3 0.05 C 8.88333 km/h
2386 29-11-2020 14:00:00 2.59167 C 4.44 g/m*3 1 C 5.88333 km/h
2387 29-11-2020 15:00:00 2.3 C 4.37 g/m*3 2.3 C 3.20833 km/h
2388 29-11-2020 16:00:00 0.56667 C 4.11 g/m*3 0.57 C 2.8 km/h
2389 29-11-2020 17:00:00 -0.85833 C 3.96 g/m*3 -0.86 C 1.2 km/h
2390 29-11-2020 18:00:00 -1.75 C 3.84 g/m*3 -1.75 C 0 km/h
2391 29-11-2020 19:00:00 -2.34167 C 3.75 g/m*3 -2.34 C 0 km/h
2392 29-11-2020 20:00:00 -2.71667 C 3.69 g/m*3 -2.72 C 0.26667 km/h
2393 29-11-2020 21:00:00 -3.19167 C 3.59 g/m*3 -3.19 C 0 km/h
2394 29-11-2020 22:00:00 -3.46667 C 3.54 g/m*3 -3.47 C 0.53333 km/h
2395 29-11-2020 23:00:00 -3.55833 C 3.55 g/m*3 -3.56 C 0 km/h
2396 30-11-2020 00:00:00 -3.9 C 3.46 g/m*3 -3.9 C 0 km/h
2397 30-11-2020 01:00:00 -4.30833 C 3.36 g/m*3 -4.31 C 0 km/h
2398 30-11-2020 02:00:00 -4.55 C 3.31 g/m*3 -4.55 C 0 km/h
2399 30-11-2020 03:00:00 -4.9 C 3.22 g/m*3 -4.9 C 0 km/h
2400 30-11-2020 04:00:00 -5.24167 C 3.15 g/m*3 -5.24 C 0 km/h
Sensor: Nr:Datum:Temp:Abs-Feuchte:Windchill:Wind:
Aussen-T/F 2401 30-11-2020 05:00:00 -5.35833 C 3.13 g/m*3 -5.36 C 0 km/h
2402 30-11-2020 06:00:00 -5.21667 C 3.17 g/m*3 -5.22 C 0.26667 km/h
2403 30-11-2020 07:00:00 -5.125 C 3.19 g/m*3 -5.13 C 0.13333 km/h
2404 30-11-2020 08:00:00 -5.76667 C 3.03 g/m*3 -5.77 C 0.4 km/h
2405 30-11-2020 09:00:00 -5.45833 C 3.12 g/m*3 -5.46 C 0.13333 km/h
2406 30-11-2020 10:00:00 -4.81667 C 3.28 g/m*3 -4.82 C 0.53333 km/h
2407 30-11-2020 11:00:00 -3.65833 C 3.56 g/m*3 -3.66 C 1.2 km/h
2408 30-11-2020 12:00:00 -2.33333 C 3.94 g/m*3 -2.33 C 1.73333 km/h
2409 30-11-2020 13:00:00 0.00833 C 4.66 g/m*3 0.01 C 3.475 km/h
2410 30-11-2020 14:00:00 2.01667 C 5.22 g/m*3 2.02 C 3.88333 km/h
2411 30-11-2020 15:00:00 2.25833 C 4.99 g/m*3 2.26 C 3.88333 km/h
2412 30-11-2020 16:00:00 2.9 C 4.91 g/m*3 0.23 C 9.675 km/h
2413 30-11-2020 17:00:00 2.825 C 4.88 g/m*3 0.38 C 8.74167 km/h
2414 30-11-2020 18:00:00 3.075 C 4.93 g/m*3 -0.54 C 14.49167 km/h
2415 30-11-2020 19:00:00 2.575 C 5.09 g/m*3 -0.53 C 11.29167 km/h
2416 30-11-2020 20:00:00 2.10833 C 5.15 g/m*3 -1.51 C 13.29167 km/h
2417 30-11-2020 21:00:00 1.90833 C 5.18 g/m*3 -0.23 C 7.125 km/h
2418 30-11-2020 22:00:00 1.89167 C 5.22 g/m*3 1.89 C 4.825 km/h
2419 30-11-2020 23:00:00 1.575 C 5.11 g/m*3 -1.94 C 12.21667 km/h
2420 01-12-2020 00:00:00 1.25833 C 5.02 g/m*3 -2.12 C 11.29167 km/h
2421 01-12-2020 01:00:00 1.375 C 5.06 g/m*3 -1.59 C 9.675 km/h
2422 01-12-2020 02:00:00 1.49167 C 5.1 g/m*3 -1.08 C 8.30833 km/h
2423 01-12-2020 03:00:00 1.61667 C 5.14 g/m*3 -1.78 C 11.7 km/h
2424 01-12-2020 04:00:00 1.73333 C 5.18 g/m*3 -1.33 C 10.35833 km/h
2425 01-12-2020 05:00:00 1.81667 C 5.21 g/m*3 -0.37 C 7.24167 km/h
Sensor: Nr:Datum:Temp:Abs-Feuchte:Windchill:Wind:
Aussen-T/F 2426 01-12-2020 06:00:00 1.99167 C 5.28 g/m*3 -0.33 C 7.78333 km/h
2427 01-12-2020 07:00:00 2.11667 C 5.33 g/m*3 2.12 C 3.075 km/h
2428 01-12-2020 08:00:00 2.125 C 5.38 g/m*3 2.13 C 1.875 km/h
2429 01-12-2020 09:00:00 2.325 C 5.45 g/m*3 2.33 C 1.06667 km/h
2430 01-12-2020 10:00:00 2.70833 C 5.6 g/m*3 2.71 C 0.4 km/h
2431 01-12-2020 11:00:00 3.06667 C 5.73 g/m*3 3.07 C 0.13333 km/h
2432 01-12-2020 12:00:00 3.46667 C 5.92 g/m*3 3.47 C 0.4 km/h
2433 01-12-2020 13:00:00 4.00833 C 6.14 g/m*3 4.01 C 0 km/h
2434 01-12-2020 14:00:00 4.26667 C 6.21 g/m*3 4.27 C 0.4 km/h
2435 01-12-2020 15:00:00 3.91667 C 6.07 g/m*3 3.92 C 0 km/h
2436 01-12-2020 16:00:00 3.60833 C 5.95 g/m*3 3.61 C 0 km/h
2437 01-12-2020 17:00:00 3.54167 C 5.92 g/m*3 3.54 C 0.13333 km/h
2438 01-12-2020 18:00:00 3.575 C 5.93 g/m*3 3.58 C 0.13333 km/h
2439 01-12-2020 19:00:00 3.6 C 5.94 g/m*3 3.6 C 0 km/h
2440 01-12-2020 20:00:00 3.675 C 5.97 g/m*3 3.68 C 0 km/h
2441 01-12-2020 21:00:00 3.55 C 5.97 g/m*3 3.55 C 0.4 km/h
2442 01-12-2020 22:00:00 3.39167 C 5.89 g/m*3 3.39 C 0.4 km/h
2443 01-12-2020 23:00:00 3.24167 C 5.84 g/m*3 3.24 C 0 km/h
2444 02-12-2020 00:00:00 3.2 C 5.85 g/m*3 3.2 C 0 km/h
2445 02-12-2020 01:00:00 3.10833 C 5.81 g/m*3 3.11 C 0 km/h
2446 02-12-2020 02:00:00 2.89167 C 5.73 g/m*3 2.89 C 0 km/h
2447 02-12-2020 03:00:00 2.75 C 5.67 g/m*3 2.75 C 1.06667 km/h
2448 02-12-2020 04:00:00 2.65 C 5.63 g/m*3 2.65 C 0 km/h
2449 02-12-2020 05:00:00 2.55 C 5.59 g/m*3 2.55 C 0 km/h
2450 02-12-2020 06:00:00 2.4 C 5.54 g/m*3 2.4 C 0 km/h
Sensor: Nr:Datum:Temp:Abs-Feuchte:Windchill:Wind:
Aussen-T/F 2451 02-12-2020 07:00:00 2.4 C 5.54 g/m*3 2.4 C 0 km/h
2452 02-12-2020 08:00:00 2.46667 C 5.56 g/m*3 2.47 C 0 km/h
2453 02-12-2020 09:00:00 2.7 C 5.65 g/m*3 2.7 C 0.26667 km/h
2454 02-12-2020 10:00:00 2.925 C 5.74 g/m*3 2.93 C 0.66667 km/h
2455 02-12-2020 11:00:00 3.075 C 5.77 g/m*3 3.08 C 3.06667 km/h
2456 02-12-2020 12:00:00 3.23333 C 5.8 g/m*3 3.23 C 1.46667 km/h
2457 02-12-2020 13:00:00 3.53333 C 5.9 g/m*3 3.53 C 1.06667 km/h
2458 02-12-2020 14:00:00 3.83333 C 5.95 g/m*3 3.83 C 2.55 km/h
2459 02-12-2020 15:00:00 3.65833 C 5.8 g/m*3 3.66 C 0.26667 km/h
2460 02-12-2020 16:00:00 3.375 C 5.68 g/m*3 3.38 C 0.13333 km/h
2461 02-12-2020 17:00:00 2.94167 C 5.55 g/m*3 2.94 C 0.66667 km/h
2462 02-12-2020 18:00:00 2.6 C 5.44 g/m*3 2.6 C 0.26667 km/h
2463 02-12-2020 19:00:00 2.425 C 5.4 g/m*3 2.42 C 0.13333 km/h
2464 02-12-2020 20:00:00 2.4 C 5.42 g/m*3 2.4 C 0 km/h
2465 02-12-2020 21:00:00 2.38333 C 5.42 g/m*3 2.38 C 0.4 km/h
2466 02-12-2020 22:00:00 2.36667 C 5.41 g/m*3 2.37 C 0 km/h
2467 02-12-2020 23:00:00 2.26667 C 5.38 g/m*3 2.27 C 0 km/h
2468 03-12-2020 00:00:00 2.28333 C 5.38 g/m*3 2.28 C 1.33333 km/h
2469 03-12-2020 01:00:00 2.33333 C 5.4 g/m*3 2.33 C 2.13333 km/h
2470 03-12-2020 02:00:00 2.575 C 5.49 g/m*3 2.58 C 3.33333 km/h
2471 03-12-2020 03:00:00 2.6 C 5.5 g/m*3 2.6 C 1.33333 km/h
2472 03-12-2020 04:00:00 2.51667 C 5.47 g/m*3 2.52 C 3.73333 km/h
2473 03-12-2020 05:00:00 2.44167 C 5.49 g/m*3 2.44 C 0.26667 km/h
2474 03-12-2020 06:00:00 2.575 C 5.55 g/m*3 2.58 C 0 km/h
2475 03-12-2020 07:00:00 2.7 C 5.59 g/m*3 2.7 C 0.26667 km/h
Sensor: Nr:Datum:Temp:Abs-Feuchte:Windchill:Wind:
Aussen-T/F 2476 03-12-2020 08:00:00 2.74167 C 5.61 g/m*3 2.74 C 0.66667 km/h
2477 03-12-2020 09:00:00 3.18333 C 5.77 g/m*3 3.18 C 2 km/h
2478 03-12-2020 10:00:00 4.05 C 5.97 g/m*3 4.05 C 3.475 km/h
2479 03-12-2020 11:00:00 4.43333 C 6 g/m*3 3.41 C 5.08333 km/h
2480 03-12-2020 12:00:00 4.79167 C 6.04 g/m*3 3.66 C 5.49167 km/h
2481 03-12-2020 13:00:00 5.14167 C 6.08 g/m*3 3.75 C 6.425 km/h
2482 03-12-2020 14:00:00 5.05833 C 5.99 g/m*3 3.83 C 5.89167 km/h
2483 03-12-2020 15:00:00 4.7 C 5.91 g/m*3 4.7 C 1.86667 km/h
2484 03-12-2020 16:00:00 4.46667 C 5.87 g/m*3 4.47 C 1.2 km/h
2485 03-12-2020 17:00:00 4.28333 C 5.85 g/m*3 4.28 C 4.69167 km/h
2486 03-12-2020 18:00:00 4.3 C 5.81 g/m*3 2.91 C 6.025 km/h
2487 03-12-2020 19:00:00 4.25 C 5.74 g/m*3 2.95 C 5.75 km/h
2488 03-12-2020 20:00:00 4.00833 C 5.6 g/m*3 2.57 C 6.03333 km/h
2489 03-12-2020 21:00:00 3.825 C 5.53 g/m*3 1.93 C 7.375 km/h
2490 03-12-2020 22:00:00 3.55833 C 5.45 g/m*3 1.58 C 7.525 km/h
2491 03-12-2020 23:00:00 3.375 C 5.5 g/m*3 1.8 C 6.16667 km/h
2492 04-12-2020 00:00:00 3.2 C 5.48 g/m*3 1.08 C 7.775 km/h
2493 04-12-2020 01:00:00 3.00833 C 5.41 g/m*3 -0.09 C 11.69167 km/h
2494 04-12-2020 02:00:00 2.875 C 5.39 g/m*3 -0.17 C 11.29167 km/h
2495 04-12-2020 03:00:00 3.05833 C 5.54 g/m*3 0.61 C 8.88333 km/h
2496 04-12-2020 04:00:00 3.23333 C 5.62 g/m*3 0.04 C 12.36667 km/h
2497 04-12-2020 05:00:00 3.40833 C 5.7 g/m*3 2.02 C 5.64167 km/h
2498 04-12-2020 06:00:00 3.675 C 5.89 g/m*3 3.68 C 4.00833 km/h
2499 04-12-2020 07:00:00 3.775 C 5.95 g/m*3 3.78 C 2.675 km/h
2500 04-12-2020 08:00:00 4.10833 C 6.14 g/m*3 4.11 C 3.35 km/h
Sensor: Nr:Datum:Temp:Abs-Feuchte:Windchill:Wind:
Aussen-T/F 2501 04-12-2020 09:00:00 4.63333 C 6.37 g/m*3 4.63 C 3.6 km/h
2502 04-12-2020 10:00:00 5.36667 C 6.68 g/m*3 5.37 C 3.475 km/h
2503 04-12-2020 11:00:00 6.05 C 6.98 g/m*3 6.05 C 2.675 km/h
2504 04-12-2020 12:00:00 6.975 C 7.25 g/m*3 6.98 C 1.6 km/h
2505 04-12-2020 13:00:00 7.325 C 7.29 g/m*3 7.33 C 2.26667 km/h
2506 04-12-2020 14:00:00 7.64167 C 7.39 g/m*3 7.64 C 0.13333 km/h
2507 04-12-2020 15:00:00 7.05 C 7.16 g/m*3 7.05 C 0.93333 km/h
2508 04-12-2020 16:00:00 6.11667 C 6.8 g/m*3 6.12 C 2 km/h
2509 04-12-2020 17:00:00 5.19167 C 6.46 g/m*3 5.19 C 3.2 km/h
2510 04-12-2020 18:00:00 4.5 C 6.22 g/m*3 4.5 C 4.53333 km/h
2511 04-12-2020 19:00:00 3.68333 C 5.92 g/m*3 3.68 C 3.33333 km/h
2512 04-12-2020 20:00:00 3.84167 C 6.03 g/m*3 3.84 C 0 km/h
2513 04-12-2020 21:00:00 3.34167 C 5.84 g/m*3 3.34 C 0 km/h
2514 04-12-2020 22:00:00 3.35833 C 5.85 g/m*3 3.36 C 0 km/h
2515 04-12-2020 23:00:00 4.35 C 6.31 g/m*3 4.35 C 1.60833 km/h
2516 05-12-2020 00:00:00 4.50833 C 6.38 g/m*3 4.51 C 0 km/h
2517 05-12-2020 01:00:00 4.41667 C 6.34 g/m*3 4.42 C 0 km/h
2518 05-12-2020 02:00:00 4.40833 C 6.34 g/m*3 4.41 C 0 km/h
2519 05-12-2020 03:00:00 4.49167 C 6.37 g/m*3 4.49 C 0 km/h
2520 05-12-2020 04:00:00 4.29167 C 6.28 g/m*3 4.29 C 0 km/h
2521 05-12-2020 05:00:00 3.8 C 6.05 g/m*3 3.8 C 0 km/h
2522 05-12-2020 06:00:00 3.75833 C 6.07 g/m*3 3.76 C 0 km/h
2523 05-12-2020 07:00:00 3.74167 C 6.06 g/m*3 3.74 C 0 km/h
2524 05-12-2020 08:00:00 3.73333 C 6.06 g/m*3 3.73 C 0 km/h
2525 05-12-2020 09:00:00 4.46667 C 6.36 g/m*3 4.47 C 0 km/h
Sensor: Nr:Datum:Temp:Abs-Feuchte:Windchill:Wind:
Aussen-T/F 2526 05-12-2020 10:00:00 4.575 C 6.41 g/m*3 4.58 C 0 km/h
2527 05-12-2020 11:00:00 4.45833 C 6.36 g/m*3 4.46 C 2.93333 km/h
2528 05-12-2020 12:00:00 5.35833 C 6.77 g/m*3 5.36 C 1.46667 km/h
2529 05-12-2020 13:00:00 5.45 C 6.44 g/m*3 5.45 C 4.81667 km/h
2530 05-12-2020 14:00:00 5.69167 C 6.46 g/m*3 5.69 C 1.06667 km/h
2531 05-12-2020 15:00:00 4.29167 C 5.96 g/m*3 4.29 C 3.46667 km/h
2532 05-12-2020 16:00:00 3.075 C 5.59 g/m*3 3.08 C 0.53333 km/h
2533 05-12-2020 17:00:00 2.70833 C 5.52 g/m*3 2.71 C 2.93333 km/h
2534 05-12-2020 18:00:00 2.86667 C 5.62 g/m*3 2.87 C 0.13333 km/h
2535 05-12-2020 19:00:00 3.63333 C 5.96 g/m*3 3.63 C 0 km/h
2536 05-12-2020 20:00:00 3.88333 C 6.06 g/m*3 3.88 C 0 km/h
2537 05-12-2020 21:00:00 4.075 C 6.13 g/m*3 4.08 C 0 km/h
2538 05-12-2020 22:00:00 3.94167 C 6.08 g/m*3 3.94 C 0.53333 km/h
2539 05-12-2020 23:00:00 3.44167 C 5.82 g/m*3 3.44 C 1.34167 km/h
2540 06-12-2020 00:00:00 2.53333 C 5.47 g/m*3 2.53 C 0.53333 km/h
2541 06-12-2020 01:00:00 2.24167 C 5.4 g/m*3 2.24 C 0.13333 km/h
2542 06-12-2020 02:00:00 2.3 C 5.44 g/m*3 2.3 C 0 km/h
2543 06-12-2020 03:00:00 2.81667 C 5.64 g/m*3 2.82 C 0.26667 km/h
2544 06-12-2020 04:00:00 3.15833 C 5.77 g/m*3 3.16 C 0 km/h
2545 06-12-2020 05:00:00 3.2 C 5.8 g/m*3 3.2 C 0 km/h
2546 06-12-2020 06:00:00 3.29167 C 5.84 g/m*3 3.29 C 0 km/h
2547 06-12-2020 07:00:00 3.3 C 5.82 g/m*3 3.3 C 0 km/h
2548 06-12-2020 08:00:00 3.31667 C 5.85 g/m*3 3.32 C 0 km/h
2549 06-12-2020 09:00:00 3.59167 C 6 g/m*3 3.59 C 0 km/h
2550 06-12-2020 10:00:00 3.91667 C 6.13 g/m*3 3.92 C 1.06667 km/h
Sensor: Nr:Datum:Temp:Abs-Feuchte:Windchill:Wind:
Aussen-T/F 2551 06-12-2020 11:00:00 4.18333 C 6.24 g/m*3 4.18 C 0.8 km/h
2552 06-12-2020 12:00:00 4.45833 C 6.36 g/m*3 4.46 C 1.46667 km/h
2553 06-12-2020 13:00:00 4.775 C 6.47 g/m*3 4.78 C 1.6 km/h
2554 06-12-2020 14:00:00 4.9 C 6.48 g/m*3 4.9 C 0.4 km/h
2555 06-12-2020 15:00:00 5.00833 C 6.54 g/m*3 5.01 C 0 km/h
2556 06-12-2020 16:00:00 4.94167 C 6.5 g/m*3 4.94 C 0 km/h
2557 06-12-2020 17:00:00 4.8 C 6.47 g/m*3 4.8 C 1.73333 km/h
2558 06-12-2020 18:00:00 4.75 C 6.42 g/m*3 4.75 C 2.13333 km/h
2559 06-12-2020 19:00:00 4.7 C 6.44 g/m*3 4.7 C 0.66667 km/h
2560 06-12-2020 20:00:00 4.625 C 6.4 g/m*3 4.63 C 1.6 km/h
2561 06-12-2020 21:00:00 4.575 C 6.41 g/m*3 4.58 C 2 km/h
2562 06-12-2020 22:00:00 4.5 C 6.38 g/m*3 4.5 C 0 km/h
2563 06-12-2020 23:00:00 4.41667 C 6.34 g/m*3 4.42 C 0 km/h
2564 07-12-2020 00:00:00 4.325 C 6.29 g/m*3 4.33 C 0.8 km/h
2565 07-12-2020 01:00:00 4.3 C 6.29 g/m*3 4.3 C 0.8 km/h
2566 07-12-2020 02:00:00 4.20833 C 6.25 g/m*3 4.21 C 0.66667 km/h
2567 07-12-2020 03:00:00 4.1 C 6.21 g/m*3 4.1 C 1.73333 km/h
2568 07-12-2020 04:00:00 4 C 6.17 g/m*3 4 C 0.93333 km/h
2569 07-12-2020 05:00:00 3.875 C 6.12 g/m*3 3.88 C 0.66667 km/h
2570 07-12-2020 06:00:00 3.9 C 6.13 g/m*3 3.9 C 3.2 km/h
2571 07-12-2020 07:00:00 3.81667 C 6.09 g/m*3 3.82 C 1.46667 km/h
2572 07-12-2020 08:00:00 3.825 C 6.1 g/m*3 3.83 C 4.80833 km/h
2573 07-12-2020 09:00:00 3.94167 C 6.14 g/m*3 2.85 C 5.08333 km/h
2574 07-12-2020 10:00:00 4.46667 C 6.36 g/m*3 4.47 C 4.13333 km/h
2575 07-12-2020 11:00:00 5.05 C 6.58 g/m*3 3.18 C 8.05 km/h
Sensor: Nr:Datum:Temp:Abs-Feuchte:Windchill:Wind:
Aussen-T/F 2576 07-12-2020 12:00:00 5.55833 C 6.63 g/m*3 3.55 C 9 km/h
2577 07-12-2020 13:00:00 6.125 C 6.58 g/m*3 4.15 C 9.29167 km/h
2578 07-12-2020 14:00:00 6.28333 C 6.56 g/m*3 6.28 C 3.60833 km/h
2579 07-12-2020 15:00:00 5.9 C 6.49 g/m*3 5.9 C 2.26667 km/h
2580 07-12-2020 16:00:00 5.325 C 6.37 g/m*3 5.33 C 1.06667 km/h
2581 07-12-2020 17:00:00 4.86667 C 6.29 g/m*3 4.87 C 1.06667 km/h
2582 07-12-2020 18:00:00 4.44167 C 6.15 g/m*3 4.44 C 0.8 km/h
2583 07-12-2020 19:00:00 3.15833 C 5.64 g/m*3 3.16 C 3.2 km/h
2584 07-12-2020 20:00:00 1.88333 C 5.21 g/m*3 1.88 C 4.4 km/h
2585 07-12-2020 21:00:00 1.85 C 5.27 g/m*3 1.85 C 1.46667 km/h
2586 07-12-2020 22:00:00 2.51667 C 5.52 g/m*3 2.52 C 0 km/h
2587 07-12-2020 23:00:00 2.80833 C 5.63 g/m*3 2.81 C 0 km/h
2588 08-12-2020 00:00:00 3.075 C 5.74 g/m*3 3.08 C 0 km/h
2589 08-12-2020 01:00:00 3.10833 C 5.75 g/m*3 3.11 C 0 km/h
2590 08-12-2020 02:00:00 3.00833 C 5.72 g/m*3 3.01 C 0 km/h
2591 08-12-2020 03:00:00 2.875 C 5.69 g/m*3 2.88 C 0.26667 km/h
2592 08-12-2020 04:00:00 3.225 C 5.86 g/m*3 3.23 C 0 km/h
2593 08-12-2020 05:00:00 3.11667 C 5.76 g/m*3 3.12 C 0.8 km/h
2594 08-12-2020 06:00:00 2.93333 C 5.67 g/m*3 2.93 C 0.66667 km/h
2595 08-12-2020 07:00:00 2.9 C 5.61 g/m*3 2.9 C 0 km/h
2596 08-12-2020 08:00:00 2.66667 C 5.49 g/m*3 2.67 C 0.4 km/h
2597 08-12-2020 09:00:00 2.75833 C 5.56 g/m*3 2.76 C 0 km/h
2598 08-12-2020 10:00:00 3.40833 C 5.71 g/m*3 3.41 C 3.75 km/h
2599 08-12-2020 11:00:00 4.35833 C 5.81 g/m*3 4.36 C 4.275 km/h
2600 08-12-2020 12:00:00 4.95 C 5.79 g/m*3 4.95 C 4.55833 km/h
Sensor: Nr:Datum:Temp:Abs-Feuchte:Windchill:Wind:
Aussen-T/F 2601 08-12-2020 13:00:00 5.35833 C 5.83 g/m*3 4.36 C 5.35833 km/h
2602 08-12-2020 14:00:00 5.71667 C 5.9 g/m*3 5.72 C 4.81667 km/h
2603 08-12-2020 15:00:00 5.78333 C 6.05 g/m*3 5.78 C 0.93333 km/h
2604 08-12-2020 16:00:00 5.175 C 6.07 g/m*3 5.18 C 0.66667 km/h
2605 08-12-2020 17:00:00 4.45 C 5.97 g/m*3 4.45 C 1.6 km/h
2606 08-12-2020 18:00:00 3.625 C 5.73 g/m*3 3.63 C 1.2 km/h
2607 08-12-2020 19:00:00 2.8 C 5.46 g/m*3 2.8 C 0.26667 km/h
2608 08-12-2020 20:00:00 2.3 C 5.33 g/m*3 2.3 C 0 km/h
2609 08-12-2020 21:00:00 1.79167 C 5.17 g/m*3 1.79 C 0 km/h
2610 08-12-2020 22:00:00 0.94167 C 4.91 g/m*3 0.94 C 0 km/h
2611 08-12-2020 23:00:00 0.475 C 4.76 g/m*3 0.48 C 0 km/h
2612 09-12-2020 00:00:00 0.175 C 4.68 g/m*3 0.18 C 0 km/h
2613 09-12-2020 01:00:00 0.84167 C 4.93 g/m*3 0.84 C 0 km/h
2614 09-12-2020 02:00:00 1.35833 C 5.11 g/m*3 1.36 C 0 km/h
2615 09-12-2020 03:00:00 1.69167 C 5.26 g/m*3 1.69 C 0 km/h
2616 09-12-2020 04:00:00 2.31667 C 5.51 g/m*3 2.32 C 1.73333 km/h
2617 09-12-2020 05:00:00 2.80833 C 5.68 g/m*3 2.81 C 3.20833 km/h
2618 09-12-2020 06:00:00 3 C 5.66 g/m*3 3 C 3.34167 km/h
2619 09-12-2020 07:00:00 3.175 C 5.57 g/m*3 1.66 C 5.90833 km/h
2620 09-12-2020 08:00:00 3.24167 C 5.54 g/m*3 3.24 C 3.20833 km/h
2621 09-12-2020 09:00:00 3.21667 C 5.55 g/m*3 3.22 C 0.26667 km/h
2622 09-12-2020 10:00:00 3.425 C 5.62 g/m*3 3.43 C 0.13333 km/h
2623 09-12-2020 11:00:00 3.75 C 5.66 g/m*3 3.75 C 0.66667 km/h
2624 09-12-2020 12:00:00 4.16667 C 5.74 g/m*3 4.17 C 0.8 km/h
2625 09-12-2020 13:00:00 4.59167 C 5.78 g/m*3 3.34 C 5.75833 km/h
Sensor: Nr:Datum:Temp:Abs-Feuchte:Windchill:Wind:
Aussen-T/F 2626 09-12-2020 14:00:00 4.525 C 5.53 g/m*3 2.42 C 8.6 km/h
2627 09-12-2020 15:00:00 3.775 C 5.32 g/m*3 2.4 C 5.75833 km/h
2628 09-12-2020 16:00:00 2.30833 C 5 g/m*3 2.31 C 4.13333 km/h
2629 09-12-2020 17:00:00 0.85833 C 4.69 g/m*3 0.86 C 2.13333 km/h
2630 09-12-2020 18:00:00 -0.05833 C 4.47 g/m*3 -0.06 C 1.2 km/h
2631 09-12-2020 19:00:00 -0.25833 C 4.49 g/m*3 -0.26 C 3.33333 km/h
2632 09-12-2020 20:00:00 0.31667 C 4.7 g/m*3 0.32 C 1.6 km/h
2633 09-12-2020 21:00:00 0.70833 C 4.8 g/m*3 0.71 C 1.06667 km/h
2634 09-12-2020 22:00:00 1.03333 C 4.86 g/m*3 1.03 C 1.2 km/h
2635 09-12-2020 23:00:00 1.19167 C 4.87 g/m*3 1.19 C 1.6 km/h
2636 10-12-2020 00:00:00 1.36667 C 4.88 g/m*3 1.37 C 1.06667 km/h
2637 10-12-2020 01:00:00 1.41667 C 4.9 g/m*3 1.42 C 0.53333 km/h
2638 10-12-2020 02:00:00 1.55833 C 4.95 g/m*3 1.56 C 0.66667 km/h
2639 10-12-2020 03:00:00 1.59167 C 4.94 g/m*3 1.59 C 1.33333 km/h
2640 10-12-2020 04:00:00 0.81667 C 4.67 g/m*3 0.82 C 1.2 km/h
2641 10-12-2020 05:00:00 -0.3 C 4.39 g/m*3 -0.3 C 0.26667 km/h
2642 10-12-2020 06:00:00 -0.875 C 4.28 g/m*3 -0.88 C 0 km/h
2643 10-12-2020 07:00:00 -1.375 C 4.14 g/m*3 -1.38 C 0 km/h
2644 10-12-2020 08:00:00 -1.78333 C 4.06 g/m*3 -1.78 C 0 km/h
2645 10-12-2020 09:00:00 -1.85 C 4.05 g/m*3 -1.85 C 0 km/h
2646 10-12-2020 10:00:00 -1.39167 C 4.22 g/m*3 -1.39 C 0 km/h
2647 10-12-2020 11:00:00 -0.50833 C 4.49 g/m*3 -0.51 C 2.4 km/h
2648 10-12-2020 12:00:00 0.05 C 4.67 g/m*3 0.05 C 1.06667 km/h
2649 10-12-2020 13:00:00 0.46667 C 4.82 g/m*3 0.47 C 0.26667 km/h
2650 10-12-2020 14:00:00 1.175 C 5.05 g/m*3 1.18 C 0.8 km/h
Sensor: Nr:Datum:Temp:Abs-Feuchte:Windchill:Wind:
Aussen-T/F 2651 10-12-2020 15:00:00 1.1 C 4.9 g/m*3 1.1 C 1.46667 km/h
2652 10-12-2020 16:00:00 1.175 C 4.84 g/m*3 1.18 C 0.26667 km/h
2653 10-12-2020 17:00:00 0.925 C 4.74 g/m*3 0.93 C 0 km/h
2654 10-12-2020 18:00:00 0.74167 C 4.67 g/m*3 0.74 C 0 km/h
2655 10-12-2020 19:00:00 0.63333 C 4.67 g/m*3 0.63 C 0 km/h
2656 10-12-2020 20:00:00 0.81667 C 4.77 g/m*3 0.82 C 0 km/h
2657 10-12-2020 21:00:00 0.99167 C 4.82 g/m*3 0.99 C 0.26667 km/h
2658 10-12-2020 22:00:00 1.175 C 4.89 g/m*3 1.18 C 0.13333 km/h
2659 10-12-2020 23:00:00 1.23333 C 4.87 g/m*3 1.23 C 0.8 km/h
2660 11-12-2020 00:00:00 1.39167 C 4.9 g/m*3 1.39 C 0.26667 km/h
2661 11-12-2020 01:00:00 1.2 C 4.82 g/m*3 1.2 C 0 km/h
2662 11-12-2020 02:00:00 0.325 C 4.59 g/m*3 0.33 C 0.66667 km/h
2663 11-12-2020 03:00:00 0.925 C 4.82 g/m*3 0.93 C 2.54167 km/h
2664 11-12-2020 04:00:00 0.65833 C 4.69 g/m*3 0.66 C 1.2 km/h
2665 11-12-2020 05:00:00 0.15833 C 4.57 g/m*3 0.16 C 1.86667 km/h
2666 11-12-2020 06:00:00 0.54167 C 4.74 g/m*3 0.54 C 4.55 km/h
2667 11-12-2020 07:00:00 1.64167 C 4.93 g/m*3 1.64 C 3.34167 km/h
2668 11-12-2020 08:00:00 2.14167 C 4.96 g/m*3 2.14 C 4.825 km/h
2669 11-12-2020 09:00:00 2.575 C 5.07 g/m*3 0.97 C 5.9 km/h
2670 11-12-2020 10:00:00 3.125 C 5.21 g/m*3 3.13 C 4.00833 km/h
2671 11-12-2020 11:00:00 3.44167 C 5.38 g/m*3 1.83 C 6.29167 km/h
2672 11-12-2020 12:00:00 3.7 C 5.54 g/m*3 2.47 C 5.34167 km/h
2673 11-12-2020 13:00:00 4.44167 C 5.66 g/m*3 2.85 C 6.71667 km/h
2674 11-12-2020 14:00:00 4.49167 C 5.58 g/m*3 2.28 C 9.025 km/h
2675 11-12-2020 15:00:00 4.05833 C 5.56 g/m*3 2.16 C 7.51667 km/h
Sensor: Nr:Datum:Temp:Abs-Feuchte:Windchill:Wind:
Aussen-T/F 2676 11-12-2020 16:00:00 3.63333 C 5.58 g/m*3 1.91 C 6.71667 km/h
2677 11-12-2020 17:00:00 3.71667 C 5.66 g/m*3 1.47 C 8.58333 km/h
2678 11-12-2020 18:00:00 3.68333 C 5.71 g/m*3 2.15 C 6.16667 km/h
2679 11-12-2020 19:00:00 3.79167 C 5.76 g/m*3 2.01 C 6.98333 km/h
2680 11-12-2020 20:00:00 3.94167 C 5.83 g/m*3 3.94 C 1.6 km/h
2681 11-12-2020 21:00:00 3.925 C 5.86 g/m*3 3.93 C 0 km/h
2682 11-12-2020 22:00:00 3.825 C 5.85 g/m*3 3.83 C 0 km/h
2683 11-12-2020 23:00:00 3.85 C 5.92 g/m*3 3.85 C 0 km/h
2684 12-12-2020 00:00:00 3.81667 C 5.94 g/m*3 3.82 C 0.4 km/h
2685 12-12-2020 01:00:00 4.05 C 6.06 g/m*3 4.05 C 0.66667 km/h
2686 12-12-2020 02:00:00 4.40833 C 6.22 g/m*3 4.41 C 1.2 km/h
2687 12-12-2020 03:00:00 4.80833 C 6.38 g/m*3 4.81 C 0 km/h
2688 12-12-2020 04:00:00 4.9 C 6.41 g/m*3 4.9 C 0 km/h
2689 12-12-2020 05:00:00 4.90833 C 6.42 g/m*3 4.91 C 0 km/h
2690 12-12-2020 06:00:00 5.05833 C 6.48 g/m*3 5.06 C 0 km/h
2691 12-12-2020 07:00:00 5.15 C 6.58 g/m*3 5.15 C 0.4 km/h
2692 12-12-2020 08:00:00 5.28333 C 6.65 g/m*3 5.28 C 0 km/h
2693 12-12-2020 09:00:00 5.625 C 6.8 g/m*3 5.63 C 0 km/h
2694 12-12-2020 10:00:00 6.16667 C 7.03 g/m*3 6.17 C 0 km/h
2695 12-12-2020 11:00:00 6.80833 C 7.18 g/m*3 6.81 C 0 km/h
2696 12-12-2020 12:00:00 7.4 C 7.31 g/m*3 7.4 C 0.4 km/h
2697 12-12-2020 13:00:00 7.7 C 7.38 g/m*3 7.7 C 0.66667 km/h
2698 12-12-2020 14:00:00 7.68333 C 7.44 g/m*3 7.68 C 0.26667 km/h
2699 12-12-2020 15:00:00 7.475 C 7.53 g/m*3 7.48 C 0 km/h
2700 12-12-2020 16:00:00 7.2 C 7.43 g/m*3 7.2 C 0 km/h
Sensor: Nr:Datum:Temp:Abs-Feuchte:Windchill:Wind:
Aussen-T/F 2701 12-12-2020 17:00:00 6.7 C 7.21 g/m*3 6.7 C 0 km/h
2702 12-12-2020 18:00:00 6.66667 C 7.23 g/m*3 6.67 C 0 km/h
2703 12-12-2020 19:00:00 6.36667 C 7.12 g/m*3 6.37 C 0 km/h
2704 12-12-2020 20:00:00 6.66667 C 7.28 g/m*3 6.67 C 0.13333 km/h
2705 12-12-2020 21:00:00 6.675 C 7.29 g/m*3 6.68 C 0 km/h
2706 12-12-2020 22:00:00 6.55 C 7.27 g/m*3 6.55 C 0 km/h
2707 12-12-2020 23:00:00 6.2 C 7.1 g/m*3 6.2 C 0 km/h
2708 13-12-2020 00:00:00 6.35833 C 7.21 g/m*3 6.36 C 0 km/h
2709 13-12-2020 01:00:00 6.18333 C 7.13 g/m*3 6.18 C 0 km/h
2710 13-12-2020 02:00:00 6.40833 C 7.23 g/m*3 6.41 C 0 km/h
2711 13-12-2020 03:00:00 6.83333 C 7.43 g/m*3 6.83 C 0.13333 km/h
2712 13-12-2020 04:00:00 7.23333 C 7.63 g/m*3 7.23 C 2.8 km/h
2713 13-12-2020 05:00:00 7.3 C 7.66 g/m*3 7.3 C 0 km/h
2714 13-12-2020 06:00:00 7.275 C 7.65 g/m*3 7.28 C 1.46667 km/h
2715 13-12-2020 07:00:00 7.30833 C 7.67 g/m*3 7.31 C 2.53333 km/h
2716 13-12-2020 08:00:00 7.21667 C 7.62 g/m*3 7.22 C 2.4 km/h
2717 13-12-2020 09:00:00 7.24167 C 7.64 g/m*3 7.24 C 1.2 km/h
2718 13-12-2020 10:00:00 6.45833 C 7.25 g/m*3 6.46 C 2.53333 km/h
2719 13-12-2020 11:00:00 6.39167 C 7.22 g/m*3 5.31 C 6.03333 km/h
2720 13-12-2020 12:00:00 6.6 C 7.2 g/m*3 5.47 C 6.31667 km/h
2721 13-12-2020 13:00:00 7.825 C 7.25 g/m*3 7.09 C 5.61667 km/h
2722 13-12-2020 14:00:00 7.675 C 7.03 g/m*3 7.68 C 4.28333 km/h
2723 13-12-2020 15:00:00 6.46667 C 6.66 g/m*3 6.47 C 4.26667 km/h
2724 13-12-2020 16:00:00 5.325 C 6.31 g/m*3 5.33 C 4.93333 km/h
2725 13-12-2020 17:00:00 4.04167 C 5.9 g/m*3 4.04 C 4.8 km/h
Sensor: Nr:Datum:Temp:Abs-Feuchte:Windchill:Wind:
Aussen-T/F 2726 13-12-2020 18:00:00 3.5 C 5.79 g/m*3 3.5 C 0 km/h
2727 13-12-2020 19:00:00 3.6 C 5.88 g/m*3 3.6 C 0 km/h
2728 13-12-2020 20:00:00 3.66667 C 5.93 g/m*3 3.67 C 0.4 km/h
2729 13-12-2020 21:00:00 4.24167 C 6.16 g/m*3 4.24 C 1.06667 km/h
2730 13-12-2020 22:00:00 3.49167 C 5.78 g/m*3 3.49 C 1.73333 km/h
2731 13-12-2020 23:00:00 3.15 C 5.69 g/m*3 3.15 C 2.80833 km/h
2732 14-12-2020 00:00:00 3.3 C 5.78 g/m*3 3.3 C 2.8 km/h
2733 14-12-2020 01:00:00 3.90833 C 6.02 g/m*3 3.91 C 0 km/h
2734 14-12-2020 02:00:00 4.44167 C 6.15 g/m*3 4.44 C 2 km/h
2735 14-12-2020 03:00:00 4.04167 C 6 g/m*3 4.04 C 1.33333 km/h
2736 14-12-2020 04:00:00 4.78333 C 6.36 g/m*3 4.78 C 0.26667 km/h
2737 14-12-2020 05:00:00 5.15833 C 6.52 g/m*3 5.16 C 0 km/h
2738 14-12-2020 06:00:00 5.3 C 6.52 g/m*3 5.3 C 0 km/h
2739 14-12-2020 07:00:00 5.50833 C 6.59 g/m*3 5.51 C 0.13333 km/h
2740 14-12-2020 08:00:00 5.675 C 6.6 g/m*3 5.68 C 1.06667 km/h
2741 14-12-2020 09:00:00 6.21667 C 6.66 g/m*3 6.22 C 1.46667 km/h
2742 14-12-2020 10:00:00 7.025 C 6.78 g/m*3 7.03 C 0.53333 km/h
2743 14-12-2020 11:00:00 6.55833 C 6.71 g/m*3 6.56 C 0.93333 km/h
2744 14-12-2020 12:00:00 6.48333 C 6.79 g/m*3 6.48 C 3.34167 km/h
2745 14-12-2020 13:00:00 7.775 C 7.24 g/m*3 7.78 C 1.2 km/h
2746 14-12-2020 14:00:00 9.05 C 7.22 g/m*3 9.05 C 2.26667 km/h
2747 14-12-2020 15:00:00 8.89167 C 7.22 g/m*3 8.89 C 1.075 km/h
2748 14-12-2020 16:00:00 7.40833 C 6.8 g/m*3 7.41 C 2.66667 km/h
2749 14-12-2020 17:00:00 6.05 C 6.49 g/m*3 6.05 C 1.06667 km/h
2750 14-12-2020 18:00:00 5.85833 C 6.51 g/m*3 5.86 C 0.8 km/h
Sensor: Nr:Datum:Temp:Abs-Feuchte:Windchill:Wind:
Aussen-T/F 2751 14-12-2020 19:00:00 6.05 C 6.6 g/m*3 6.05 C 2.26667 km/h
2752 14-12-2020 20:00:00 6.10833 C 6.65 g/m*3 6.11 C 0.13333 km/h
2753 14-12-2020 21:00:00 6.28333 C 6.67 g/m*3 6.28 C 0.4 km/h
2754 14-12-2020 22:00:00 7.24167 C 6.76 g/m*3 7.24 C 3.61667 km/h
2755 14-12-2020 23:00:00 6.94167 C 6.71 g/m*3 6.94 C 0.26667 km/h
2756 15-12-2020 00:00:00 6.70833 C 6.76 g/m*3 6.71 C 0.53333 km/h
2757 15-12-2020 01:00:00 6.75 C 6.94 g/m*3 6.75 C 2 km/h
2758 15-12-2020 02:00:00 6.775 C 7.11 g/m*3 6.78 C 1.2 km/h
2759 15-12-2020 03:00:00 6.8 C 7.22 g/m*3 6.8 C 2.4 km/h
2760 15-12-2020 04:00:00 6.8 C 7.27 g/m*3 6.8 C 0.8 km/h
2761 15-12-2020 05:00:00 6.78333 C 7.33 g/m*3 6.78 C 0 km/h
2762 15-12-2020 06:00:00 6.775 C 7.33 g/m*3 6.78 C 0 km/h
2763 15-12-2020 07:00:00 6.73333 C 7.31 g/m*3 6.73 C 0.13333 km/h
2764 15-12-2020 08:00:00 6.56667 C 7.26 g/m*3 6.57 C 0 km/h
2765 15-12-2020 09:00:00 6.96667 C 7.5 g/m*3 6.97 C 0 km/h
2766 15-12-2020 10:00:00 7.66667 C 7.85 g/m*3 7.67 C 0.66667 km/h
2767 15-12-2020 11:00:00 8.45 C 8.26 g/m*3 8.45 C 1.06667 km/h
2768 15-12-2020 12:00:00 9.00833 C 8.56 g/m*3 9.01 C 0.93333 km/h
2769 15-12-2020 13:00:00 9.7 C 8.94 g/m*3 9.7 C 0 km/h
2770 15-12-2020 14:00:00 9.80833 C 9 g/m*3 9.81 C 0 km/h
2771 15-12-2020 15:00:00 9.91667 C 9.07 g/m*3 9.92 C 0 km/h
2772 15-12-2020 16:00:00 9.86667 C 9.04 g/m*3 9.87 C 0.26667 km/h
2773 15-12-2020 17:00:00 9.75833 C 8.98 g/m*3 9.76 C 0 km/h
2774 15-12-2020 18:00:00 9.79167 C 8.99 g/m*3 9.79 C 2.8 km/h
2775 15-12-2020 19:00:00 8.9 C 8.5 g/m*3 8.9 C 3.33333 km/h
Sensor: Nr:Datum:Temp:Abs-Feuchte:Windchill:Wind:
Aussen-T/F 2776 15-12-2020 20:00:00 7.90833 C 7.97 g/m*3 7.91 C 2.675 km/h
2777 15-12-2020 21:00:00 7.10833 C 7.56 g/m*3 7.11 C 1.86667 km/h
2778 15-12-2020 22:00:00 6.225 C 7.14 g/m*3 6.23 C 0.13333 km/h
2779 15-12-2020 23:00:00 5.91667 C 7.01 g/m*3 5.92 C 0.13333 km/h
2780 16-12-2020 00:00:00 6.625 C 7.37 g/m*3 6.63 C 0.13333 km/h
2781 16-12-2020 01:00:00 6.325 C 7.19 g/m*3 6.33 C 0.13333 km/h
2782 16-12-2020 02:00:00 6.41667 C 7.3 g/m*3 6.42 C 0.26667 km/h
2783 16-12-2020 03:00:00 6.73333 C 7.46 g/m*3 6.73 C 0.13333 km/h
2784 16-12-2020 04:00:00 6.70833 C 7.45 g/m*3 6.71 C 0 km/h
2785 16-12-2020 05:00:00 6.3 C 7.19 g/m*3 6.3 C 0 km/h
2786 16-12-2020 06:00:00 6.425 C 7.3 g/m*3 6.43 C 0 km/h
2787 16-12-2020 07:00:00 6.50833 C 7.35 g/m*3 6.51 C 0.13333 km/h
2788 16-12-2020 08:00:00 7.15833 C 7.67 g/m*3 7.16 C 0 km/h
2789 16-12-2020 09:00:00 7.44167 C 7.81 g/m*3 7.44 C 0 km/h
2790 16-12-2020 10:00:00 8.43333 C 8.33 g/m*3 8.43 C 0.13333 km/h
2791 16-12-2020 11:00:00 9.43333 C 8.88 g/m*3 9.43 C 0.4 km/h
2792 16-12-2020 12:00:00 9.89167 C 9.15 g/m*3 9.89 C 4.275 km/h
2793 16-12-2020 13:00:00 9.91667 C 9.06 g/m*3 9.92 C 4.41667 km/h
2794 16-12-2020 14:00:00 9.76667 C 8.85 g/m*3 9.77 C 2.93333 km/h
2795 16-12-2020 15:00:00 9.46667 C 8.65 g/m*3 9.47 C 0.4 km/h
2796 16-12-2020 16:00:00 7.875 C 7.79 g/m*3 7.88 C 1.6 km/h
2797 16-12-2020 17:00:00 7.125 C 7.51 g/m*3 7.13 C 2.93333 km/h
2798 16-12-2020 18:00:00 6.875 C 7.41 g/m*3 6.88 C 3.06667 km/h
2799 16-12-2020 19:00:00 7 C 7.52 g/m*3 7 C 2.13333 km/h
2800 16-12-2020 20:00:00 6.71667 C 7.38 g/m*3 6.72 C 2 km/h
Sensor: Nr:Datum:Temp:Abs-Feuchte:Windchill:Wind:
Aussen-T/F 2801 16-12-2020 21:00:00 6.31667 C 7.19 g/m*3 6.32 C 2.4 km/h
2802 16-12-2020 22:00:00 6.85833 C 7.47 g/m*3 6.86 C 2.8 km/h
2803 16-12-2020 23:00:00 7.23333 C 7.67 g/m*3 7.23 C 1.73333 km/h
2804 17-12-2020 00:00:00 7.04167 C 7.54 g/m*3 7.04 C 2 km/h
2805 17-12-2020 01:00:00 6.53333 C 7.29 g/m*3 6.53 C 2.13333 km/h
2806 17-12-2020 02:00:00 6.225 C 7.16 g/m*3 6.23 C 0.66667 km/h
2807 17-12-2020 03:00:00 7.05833 C 7.62 g/m*3 7.06 C 3.33333 km/h
2808 17-12-2020 04:00:00 7.25 C 7.72 g/m*3 7.25 C 0.8 km/h
2809 17-12-2020 05:00:00 7.2 C 7.69 g/m*3 7.2 C 1.86667 km/h
2810 17-12-2020 06:00:00 7.25 C 7.7 g/m*3 7.25 C 2 km/h
2811 17-12-2020 07:00:00 6.79167 C 7.45 g/m*3 6.79 C 1.2 km/h
2812 17-12-2020 08:00:00 7.03333 C 7.61 g/m*3 7.03 C 0.66667 km/h
2813 17-12-2020 09:00:00 7.79167 C 7.99 g/m*3 7.79 C 0.53333 km/h
2814 17-12-2020 10:00:00 8.94167 C 8.61 g/m*3 8.94 C 2.80833 km/h
2815 17-12-2020 11:00:00 9.04167 C 8.66 g/m*3 9.04 C 4.00833 km/h
2816 17-12-2020 12:00:00 8.85833 C 8.4 g/m*3 7.71 C 7.8 km/h
2817 17-12-2020 13:00:00 9.70833 C 8.36 g/m*3 8.34 C 9.65833 km/h
2818 17-12-2020 14:00:00 10.175 C 8.27 g/m*3 9.2 C 8.05833 km/h
2819 17-12-2020 15:00:00 9.58333 C 7.92 g/m*3 8.48 C 8.19167 km/h
2820 17-12-2020 16:00:00 8.56667 C 7.57 g/m*3 7.57 C 6.95833 km/h
2821 17-12-2020 17:00:00 7.29167 C 7.21 g/m*3 6.4 C 5.86667 km/h
2822 17-12-2020 18:00:00 6.69167 C 7.11 g/m*3 6.69 C 3.86667 km/h
2823 17-12-2020 19:00:00 5.05833 C 6.37 g/m*3 5.06 C 0.53333 km/h
2824 17-12-2020 20:00:00 4.93333 C 6.46 g/m*3 4.93 C 3.2 km/h
2825 17-12-2020 21:00:00 5.03333 C 6.54 g/m*3 5.03 C 0.8 km/h
Sensor: Nr:Datum:Temp:Abs-Feuchte:Windchill:Wind:
Aussen-T/F 2826 17-12-2020 22:00:00 4.85 C 6.46 g/m*3 4.85 C 0.26667 km/h
2827 17-12-2020 23:00:00 4.63333 C 6.39 g/m*3 4.63 C 0 km/h
2828 18-12-2020 00:00:00 4.14167 C 6.18 g/m*3 4.14 C 0 km/h
2829 18-12-2020 01:00:00 4.53333 C 6.39 g/m*3 4.53 C 0.53333 km/h
2830 18-12-2020 02:00:00 4.24167 C 6.26 g/m*3 4.24 C 0 km/h
2831 18-12-2020 03:00:00 3.4 C 5.9 g/m*3 3.4 C 0.13333 km/h
2832 18-12-2020 04:00:00 4.05 C 6.19 g/m*3 4.05 C 0.26667 km/h
2833 18-12-2020 05:00:00 3.79167 C 6.07 g/m*3 3.79 C 0.13333 km/h
2834 18-12-2020 06:00:00 3.025 C 5.78 g/m*3 3.03 C 0 km/h
2835 18-12-2020 07:00:00 2.59167 C 5.61 g/m*3 2.59 C 0.13333 km/h
2836 18-12-2020 08:00:00 2.35 C 5.52 g/m*3 2.35 C 0 km/h
2837 18-12-2020 09:00:00 2.45 C 5.56 g/m*3 2.45 C 0 km/h
2838 18-12-2020 10:00:00 2.36667 C 5.53 g/m*3 2.37 C 0 km/h
2839 18-12-2020 11:00:00 2.875 C 5.73 g/m*3 2.88 C 0.26667 km/h
2840 18-12-2020 12:00:00 4.3 C 6.36 g/m*3 4.3 C 2.53333 km/h
2841 18-12-2020 13:00:00 6.65833 C 7.43 g/m*3 6.66 C 0 km/h
2842 18-12-2020 14:00:00 6.8 C 7.5 g/m*3 6.8 C 1.73333 km/h
2843 18-12-2020 15:00:00 5.925 C 7.03 g/m*3 5.93 C 3.2 km/h
2844 18-12-2020 16:00:00 5.38333 C 6.78 g/m*3 5.38 C 3.49167 km/h
2845 18-12-2020 17:00:00 5.66667 C 6.92 g/m*3 5.67 C 3.34167 km/h
2846 18-12-2020 18:00:00 4.95833 C 6.57 g/m*3 4.96 C 1.6 km/h
2847 18-12-2020 19:00:00 4.88333 C 6.55 g/m*3 4.88 C 0.26667 km/h
2848 18-12-2020 20:00:00 3.94167 C 6.14 g/m*3 3.94 C 0.4 km/h
2849 18-12-2020 21:00:00 3.85 C 6.12 g/m*3 3.85 C 1.2 km/h
2850 18-12-2020 22:00:00 5.53333 C 6.9 g/m*3 5.53 C 1.88333 km/h
Sensor: Nr:Datum:Temp:Abs-Feuchte:Windchill:Wind:
Aussen-T/F 2851 18-12-2020 23:00:00 5.90833 C 7.07 g/m*3 5.91 C 0.93333 km/h
2852 19-12-2020 00:00:00 4.98333 C 6.6 g/m*3 4.98 C 1.33333 km/h
2853 19-12-2020 01:00:00 3.89167 C 6.12 g/m*3 3.89 C 2.26667 km/h
2854 19-12-2020 02:00:00 3.79167 C 6.08 g/m*3 3.79 C 2.26667 km/h
2855 19-12-2020 03:00:00 4.425 C 6.39 g/m*3 4.43 C 0.4 km/h
2856 19-12-2020 04:00:00 4.20833 C 6.26 g/m*3 4.21 C 0.53333 km/h
2857 19-12-2020 05:00:00 4.05 C 6.24 g/m*3 4.05 C 0.93333 km/h
2858 19-12-2020 06:00:00 3.65833 C 6.04 g/m*3 3.66 C 1.46667 km/h
2859 19-12-2020 07:00:00 3.3 C 5.88 g/m*3 3.3 C 1.06667 km/h
2860 19-12-2020 08:00:00 2.99167 C 5.78 g/m*3 2.99 C 0 km/h
2861 19-12-2020 09:00:00 2.5 C 5.59 g/m*3 2.5 C 0.26667 km/h
2862 19-12-2020 10:00:00 2.94167 C 5.78 g/m*3 2.94 C 0.93333 km/h
2863 19-12-2020 11:00:00 5.43333 C 6.85 g/m*3 5.43 C 3.46667 km/h
2864 19-12-2020 12:00:00 7.04167 C 7.61 g/m*3 7.04 C 3.86667 km/h
2865 19-12-2020 13:00:00 8.13333 C 8.19 g/m*3 8.13 C 3.86667 km/h
2866 19-12-2020 14:00:00 9.1 C 8.7 g/m*3 9.1 C 3.33333 km/h
2867 19-12-2020 15:00:00 9.36667 C 8.78 g/m*3 9.37 C 3.75 km/h
2868 19-12-2020 16:00:00 8.89167 C 8.16 g/m*3 8.89 C 2.26667 km/h
2869 19-12-2020 17:00:00 8.525 C 7.89 g/m*3 8.53 C 3.20833 km/h
2870 19-12-2020 18:00:00 8.8 C 7.73 g/m*3 8.8 C 4.95833 km/h
2871 19-12-2020 19:00:00 8.8 C 7.66 g/m*3 8.8 C 4.275 km/h
2872 19-12-2020 20:00:00 8.825 C 7.71 g/m*3 8.82 C 4.68333 km/h
2873 19-12-2020 21:00:00 8.75833 C 7.67 g/m*3 8.76 C 4.275 km/h
2874 19-12-2020 22:00:00 8.6 C 7.67 g/m*3 8.6 C 1.6 km/h
2875 19-12-2020 23:00:00 8.33333 C 7.71 g/m*3 8.33 C 0.93333 km/h
Sensor: Nr:Datum:Temp:Abs-Feuchte:Windchill:Wind:
Aussen-T/F 2876 20-12-2020 00:00:00 8.25 C 7.69 g/m*3 8.25 C 4.69167 km/h
2877 20-12-2020 01:00:00 8.125 C 7.57 g/m*3 8.13 C 1.74167 km/h
2878 20-12-2020 02:00:00 8.125 C 7.61 g/m*3 8.13 C 1.06667 km/h
2879 20-12-2020 03:00:00 7.89167 C 7.51 g/m*3 7.89 C 2.13333 km/h
2880 20-12-2020 04:00:00 8.09167 C 7.65 g/m*3 8.09 C 1.86667 km/h
2881 20-12-2020 05:00:00 7.71667 C 7.62 g/m*3 7.72 C 0.26667 km/h
2882 20-12-2020 06:00:00 7.5 C 7.6 g/m*3 7.5 C 0 km/h
2883 20-12-2020 07:00:00 7.46667 C 7.65 g/m*3 7.47 C 0.13333 km/h
2884 20-12-2020 08:00:00 7.25833 C 7.56 g/m*3 7.26 C 1.06667 km/h
2885 20-12-2020 09:00:00 7.13333 C 7.5 g/m*3 7.13 C 0 km/h
2886 20-12-2020 10:00:00 7.55 C 7.78 g/m*3 7.55 C 0 km/h
2887 20-12-2020 11:00:00 8.58333 C 8.33 g/m*3 8.58 C 3.2 km/h
2888 20-12-2020 12:00:00 9.65 C 8.85 g/m*3 9.65 C 3.46667 km/h
2889 20-12-2020 13:00:00 10.01667 C 8.85 g/m*3 10.02 C 4.95 km/h
2890 20-12-2020 14:00:00 10.15833 C 8.83 g/m*3 10.16 C 0.93333 km/h
2891 20-12-2020 15:00:00 9.74167 C 8.6 g/m*3 9.74 C 0.13333 km/h
2892 20-12-2020 16:00:00 9.21667 C 8.31 g/m*3 9.22 C 1.86667 km/h
2893 20-12-2020 17:00:00 8.66667 C 7.98 g/m*3 8.67 C 3.2 km/h
2894 20-12-2020 18:00:00 8.23333 C 7.77 g/m*3 8.23 C 4.4 km/h
2895 20-12-2020 19:00:00 7.175 C 7.24 g/m*3 7.18 C 0.93333 km/h
2896 20-12-2020 20:00:00 5.85 C 6.76 g/m*3 5.85 C 0.13333 km/h
2897 20-12-2020 21:00:00 6.05 C 6.98 g/m*3 6.05 C 0.4 km/h
2898 20-12-2020 22:00:00 6.26667 C 7.12 g/m*3 6.27 C 2.675 km/h
2899 20-12-2020 23:00:00 7.01667 C 7.48 g/m*3 6.03 C 6.025 km/h
2900 21-12-2020 00:00:00 7.05 C 7.38 g/m*3 7.05 C 3.33333 km/h
Sensor: Nr:Datum:Temp:Abs-Feuchte:Windchill:Wind:
Aussen-T/F 2901 21-12-2020 01:00:00 5.825 C 6.74 g/m*3 5.83 C 0 km/h
2902 21-12-2020 02:00:00 4.99167 C 6.47 g/m*3 4.99 C 0 km/h
2903 21-12-2020 03:00:00 4.29167 C 6.2 g/m*3 4.29 C 0 km/h
2904 21-12-2020 04:00:00 4.7 C 6.43 g/m*3 4.7 C 0 km/h
2905 21-12-2020 05:00:00 4.725 C 6.43 g/m*3 4.72 C 0 km/h
2906 21-12-2020 06:00:00 4.25 C 6.24 g/m*3 4.25 C 1.2 km/h
2907 21-12-2020 07:00:00 5.8 C 6.97 g/m*3 5.8 C 2.26667 km/h
2908 21-12-2020 08:00:00 5.26667 C 6.7 g/m*3 5.27 C 0 km/h
2909 21-12-2020 09:00:00 5.26667 C 6.71 g/m*3 5.27 C 0.26667 km/h
2910 21-12-2020 10:00:00 6.13333 C 7.1 g/m*3 6.13 C 0.66667 km/h
2911 21-12-2020 11:00:00 7.39167 C 7.71 g/m*3 7.39 C 1.86667 km/h
2912 21-12-2020 12:00:00 8.575 C 8.16 g/m*3 8.57 C 3.33333 km/h
2913 21-12-2020 13:00:00 9.71667 C 8.17 g/m*3 9.72 C 4.95 km/h
2914 21-12-2020 14:00:00 9.8 C 8.05 g/m*3 9.8 C 0.93333 km/h
2915 21-12-2020 15:00:00 8.90833 C 8.06 g/m*3 8.91 C 0.4 km/h
2916 21-12-2020 16:00:00 8.23333 C 7.88 g/m*3 8.23 C 0.13333 km/h
2917 21-12-2020 17:00:00 7.86667 C 7.81 g/m*3 7.87 C 0.66667 km/h
2918 21-12-2020 18:00:00 7.99167 C 7.93 g/m*3 7.99 C 2.13333 km/h
2919 21-12-2020 19:00:00 8.18333 C 8.05 g/m*3 8.18 C 1.2 km/h
2920 21-12-2020 20:00:00 8.35833 C 8.21 g/m*3 8.36 C 1.46667 km/h
2921 21-12-2020 21:00:00 8.75 C 8.42 g/m*3 8.1 C 5.76667 km/h
2922 21-12-2020 22:00:00 9.26667 C 8.69 g/m*3 7.97 C 8.86667 km/h
2923 21-12-2020 23:00:00 9.69167 C 8.85 g/m*3 9.69 C 4.14167 km/h
2924 22-12-2020 00:00:00 10.33333 C 9.18 g/m*3 8.83 C 11.275 km/h
2925 22-12-2020 01:00:00 11.35 C 9.56 g/m*3 11.35 C 15.43333 km/h
Sensor: Nr:Datum:Temp:Abs-Feuchte:Windchill:Wind:
Aussen-T/F 2926 22-12-2020 02:00:00 11.99167 C 9.88 g/m*3 11.99 C 14.5 km/h
2927 22-12-2020 03:00:00 12.76667 C 10.2 g/m*3 12.77 C 17.30833 km/h
2928 22-12-2020 04:00:00 13.18333 C 10.39 g/m*3 13.18 C 14.63333 km/h
2929 22-12-2020 05:00:00 13.225 C 10.57 g/m*3 13.23 C 19.03333 km/h
2930 22-12-2020 06:00:00 13.41667 C 10.66 g/m*3 13.42 C 18.5 km/h
2931 22-12-2020 07:00:00 13.6 C 10.71 g/m*3 13.6 C 15.56667 km/h
2932 22-12-2020 08:00:00 13.51667 C 10.65 g/m*3 13.52 C 16.76667 km/h
2933 22-12-2020 09:00:00 13.64167 C 10.74 g/m*3 13.64 C 14.63333 km/h
2934 22-12-2020 10:00:00 13.85833 C 10.95 g/m*3 13.86 C 14.36667 km/h
2935 22-12-2020 11:00:00 14.25833 C 11.22 g/m*3 14.26 C 12.76667 km/h
2936 22-12-2020 12:00:00 14.46667 C 11.39 g/m*3 14.47 C 13.425 km/h
2937 22-12-2020 13:00:00 14.80833 C 11.39 g/m*3 14.81 C 13.3 km/h
2938 22-12-2020 14:00:00 14.81667 C 11.31 g/m*3 14.82 C 14.23333 km/h
2939 22-12-2020 15:00:00 14.48333 C 11.23 g/m*3 14.48 C 11.7 km/h
2940 22-12-2020 16:00:00 14.025 C 11.01 g/m*3 14.03 C 8.86667 km/h
2941 22-12-2020 17:00:00 13.59167 C 10.79 g/m*3 13.59 C 6.58333 km/h
2942 22-12-2020 18:00:00 13.20833 C 10.82 g/m*3 13.21 C 2.4 km/h
2943 22-12-2020 19:00:00 12.89167 C 10.76 g/m*3 12.89 C 2.26667 km/h
2944 22-12-2020 20:00:00 12.35 C 10.46 g/m*3 12.35 C 5.49167 km/h
2945 22-12-2020 21:00:00 11.83333 C 10.18 g/m*3 11.83 C 2.4 km/h
2946 22-12-2020 22:00:00 11.675 C 10.13 g/m*3 11.68 C 0 km/h
2947 22-12-2020 23:00:00 11.55833 C 10.06 g/m*3 11.56 C 0.26667 km/h
2948 23-12-2020 00:00:00 11.65833 C 10.12 g/m*3 11.66 C 0 km/h
2949 23-12-2020 01:00:00 11.76667 C 10.19 g/m*3 11.77 C 0.13333 km/h
2950 23-12-2020 02:00:00 11.65833 C 10.12 g/m*3 11.66 C 0.53333 km/h
Sensor: Nr:Datum:Temp:Abs-Feuchte:Windchill:Wind:
Aussen-T/F 2951 23-12-2020 03:00:00 11.65 C 10.11 g/m*3 11.65 C 0 km/h
2952 23-12-2020 04:00:00 11.61667 C 10.14 g/m*3 11.62 C 0.66667 km/h
2953 23-12-2020 05:00:00 11.49167 C 10.07 g/m*3 11.49 C 0.13333 km/h
2954 23-12-2020 06:00:00 11.23333 C 9.89 g/m*3 11.23 C 0 km/h
2955 23-12-2020 07:00:00 11.275 C 9.98 g/m*3 11.28 C 0.93333 km/h
2956 23-12-2020 08:00:00 11.55 C 10.15 g/m*3 11.55 C 2 km/h
2957 23-12-2020 09:00:00 11.6 C 10.19 g/m*3 11.6 C 0.4 km/h
2958 23-12-2020 10:00:00 11.875 C 10.36 g/m*3 11.88 C 1.06667 km/h
2959 23-12-2020 11:00:00 12.45 C 10.74 g/m*3 12.45 C 0.13333 km/h
2960 23-12-2020 12:00:00 12.6 C 10.84 g/m*3 12.6 C 0 km/h
2961 23-12-2020 13:00:00 12.81667 C 10.99 g/m*3 12.82 C 0.53333 km/h
2962 23-12-2020 14:00:00 12.825 C 10.99 g/m*3 12.83 C 2 km/h
2963 23-12-2020 15:00:00 12.55833 C 10.81 g/m*3 12.56 C 2.4 km/h
2964 23-12-2020 16:00:00 12.03333 C 10.47 g/m*3 12.03 C 2.8 km/h
2965 23-12-2020 17:00:00 11.59167 C 10.18 g/m*3 11.59 C 3.2 km/h
2966 23-12-2020 18:00:00 11.30833 C 10 g/m*3 11.31 C 6.3 km/h
2967 23-12-2020 19:00:00 11.44167 C 9.95 g/m*3 11.44 C 13.95833 km/h
2968 23-12-2020 20:00:00 11.61667 C 9.79 g/m*3 11.62 C 11.03333 km/h
2969 23-12-2020 21:00:00 11.71667 C 9.73 g/m*3 11.72 C 9.69167 km/h
2970 23-12-2020 22:00:00 11.575 C 9.66 g/m*3 11.58 C 8.175 km/h
2971 23-12-2020 23:00:00 11.025 C 8.76 g/m*3 11.03 C 14.36667 km/h
2972 24-12-2020 00:00:00 9.8 C 7.96 g/m*3 7.92 C 13.03333 km/h
2973 24-12-2020 01:00:00 8.88333 C 7.46 g/m*3 7.03 C 11.56667 km/h
2974 24-12-2020 02:00:00 8.60833 C 7.33 g/m*3 6.39 C 13.56667 km/h
2975 24-12-2020 03:00:00 8.13333 C 7.19 g/m*3 6.1 C 11.69167 km/h
Sensor: Nr:Datum:Temp:Abs-Feuchte:Windchill:Wind:
Aussen-T/F 2976 24-12-2020 04:00:00 8.075 C 7.08 g/m*3 6.17 C 10.89167 km/h
2977 24-12-2020 05:00:00 8.225 C 7.02 g/m*3 6.04 C 12.76667 km/h
2978 24-12-2020 06:00:00 7.94167 C 7.16 g/m*3 6.91 C 6.71667 km/h
2979 24-12-2020 07:00:00 7.975 C 7.2 g/m*3 5.68 C 13.16667 km/h
2980 24-12-2020 08:00:00 7.7 C 7.23 g/m*3 5.95 C 9.68333 km/h
2981 24-12-2020 09:00:00 7.39167 C 7.3 g/m*3 5.96 C 7.91667 km/h
2982 24-12-2020 10:00:00 7.55 C 7.46 g/m*3 6.38 C 6.975 km/h
2983 24-12-2020 11:00:00 8.225 C 7.6 g/m*3 7.1 C 7.25 km/h
2984 24-12-2020 12:00:00 8.48333 C 7.41 g/m*3 7.27 C 7.79167 km/h
2985 24-12-2020 13:00:00 8.96667 C 7.51 g/m*3 8.13 C 6.55833 km/h
2986 24-12-2020 14:00:00 6.775 C 6.91 g/m*3 3.77 C 16.23333 km/h
2987 24-12-2020 15:00:00 5.28333 C 6.42 g/m*3 3.04 C 9.81667 km/h
2988 24-12-2020 16:00:00 4.88333 C 6.32 g/m*3 4.88 C 4.825 km/h
2989 24-12-2020 17:00:00 4.525 C 6.19 g/m*3 4.53 C 4.28333 km/h
2990 24-12-2020 18:00:00 4.46667 C 6.22 g/m*3 4.47 C 3.08333 km/h
2991 24-12-2020 19:00:00 4.68333 C 6.36 g/m*3 4.68 C 3.34167 km/h
2992 24-12-2020 20:00:00 4.3 C 6.16 g/m*3 2.48 C 7.38333 km/h
2993 24-12-2020 21:00:00 4.29167 C 6.19 g/m*3 4.29 C 4.275 km/h
2994 24-12-2020 22:00:00 4.35833 C 6.22 g/m*3 4.36 C 4.69167 km/h
2995 24-12-2020 23:00:00 4.55833 C 6.28 g/m*3 3.3 C 5.75833 km/h
2996 25-12-2020 00:00:00 4.6 C 6.26 g/m*3 2.95 C 6.975 km/h
2997 25-12-2020 01:00:00 4.44167 C 6.15 g/m*3 3.36 C 5.21667 km/h
2998 25-12-2020 02:00:00 4.30833 C 6.1 g/m*3 4.31 C 4.14167 km/h
2999 25-12-2020 03:00:00 4.35 C 6.12 g/m*3 4.35 C 3.33333 km/h
3000 25-12-2020 04:00:00 4.30833 C 6.03 g/m*3 2.27 C 8.19167 km/h
Sensor: Nr:Datum:Temp:Abs-Feuchte:Windchill:Wind:
Aussen-T/F 3001 25-12-2020 05:00:00 4.19167 C 5.86 g/m*3 2.98 C 5.49167 km/h
3002 25-12-2020 06:00:00 3.89167 C 5.69 g/m*3 2.09 C 7.10833 km/h
3003 25-12-2020 07:00:00 3.74167 C 5.52 g/m*3 1.57 C 8.33333 km/h
3004 25-12-2020 08:00:00 3.275 C 5.29 g/m*3 1.05 C 8.19167 km/h
3005 25-12-2020 09:00:00 3.1 C 5.21 g/m*3 1.38 C 6.44167 km/h
3006 25-12-2020 10:00:00 2.89167 C 5.14 g/m*3 2.89 C 4.825 km/h
3007 25-12-2020 11:00:00 2.675 C 5.19 g/m*3 0.94 C 6.3 km/h
3008 25-12-2020 12:00:00 3.9 C 5.57 g/m*3 1.65 C 8.73333 km/h
3009 25-12-2020 13:00:00 4.08333 C 5.65 g/m*3 1.9 C 8.60833 km/h
3010 25-12-2020 14:00:00 4.35833 C 5.68 g/m*3 2.33 C 8.2 km/h
3011 25-12-2020 15:00:00 4.46667 C 5.76 g/m*3 4.47 C 3.49167 km/h
3012 25-12-2020 16:00:00 3.40833 C 5.52 g/m*3 3.41 C 1.2 km/h
3013 25-12-2020 17:00:00 2.11667 C 5.17 g/m*3 2.12 C 1.73333 km/h
3014 25-12-2020 18:00:00 1.625 C 5.1 g/m*3 1.63 C 3.46667 km/h
3015 25-12-2020 19:00:00 1.475 C 5.09 g/m*3 1.48 C 0.8 km/h
3016 25-12-2020 20:00:00 2.00833 C 5.33 g/m*3 2.01 C 2.26667 km/h
3017 25-12-2020 21:00:00 2.29167 C 5.43 g/m*3 2.29 C 0.8 km/h
3018 25-12-2020 22:00:00 2.23333 C 5.41 g/m*3 2.23 C 0.26667 km/h
3019 25-12-2020 23:00:00 2.575 C 5.55 g/m*3 2.58 C 0.26667 km/h
3020 26-12-2020 00:00:00 2.64167 C 5.57 g/m*3 2.64 C 0 km/h
3021 26-12-2020 01:00:00 2.48333 C 5.48 g/m*3 2.48 C 2.80833 km/h
3022 26-12-2020 02:00:00 2.3 C 5.39 g/m*3 0.19 C 7.25833 km/h
3023 26-12-2020 03:00:00 2.275 C 5.38 g/m*3 0.68 C 5.75833 km/h
3024 26-12-2020 04:00:00 2.15833 C 5.34 g/m*3 2.16 C 3.06667 km/h
3025 26-12-2020 05:00:00 1.975 C 5.27 g/m*3 1.98 C 0 km/h
Sensor: Nr:Datum:Temp:Abs-Feuchte:Windchill:Wind:
Aussen-T/F 3026 26-12-2020 06:00:00 1.39167 C 5.06 g/m*3 1.39 C 0.26667 km/h
3027 26-12-2020 07:00:00 0.95833 C 4.93 g/m*3 0.96 C 0.13333 km/h
3028 26-12-2020 08:00:00 0.83333 C 4.93 g/m*3 0.83 C 0.8 km/h
3029 26-12-2020 09:00:00 1.775 C 5.26 g/m*3 1.78 C 2.26667 km/h
3030 26-12-2020 10:00:00 2.60833 C 5.55 g/m*3 2.61 C 1.06667 km/h
3031 26-12-2020 11:00:00 3.64167 C 5.79 g/m*3 1.97 C 6.575 km/h
3032 26-12-2020 12:00:00 4.375 C 5.71 g/m*3 1.83 C 10.36667 km/h
3033 26-12-2020 13:00:00 4.575 C 5.65 g/m*3 2.22 C 9.69167 km/h
3034 26-12-2020 14:00:00 4.48333 C 5.52 g/m*3 2.08 C 9.81667 km/h
3035 26-12-2020 15:00:00 4.11667 C 5.35 g/m*3 2.12 C 7.925 km/h
3036 26-12-2020 16:00:00 3.9 C 5.24 g/m*3 1.58 C 9 km/h
3037 26-12-2020 17:00:00 3.9 C 5.25 g/m*3 2.27 C 6.56667 km/h
3038 26-12-2020 18:00:00 3.88333 C 5.24 g/m*3 1.56 C 9 km/h
3039 26-12-2020 19:00:00 3.43333 C 5.11 g/m*3 1.73 C 6.575 km/h
3040 26-12-2020 20:00:00 3.55 C 5.12 g/m*3 1.73 C 6.975 km/h
3041 26-12-2020 21:00:00 3.225 C 5.06 g/m*3 1.49 C 6.56667 km/h
3042 26-12-2020 22:00:00 3.025 C 5.06 g/m*3 0.8 C 8.05 km/h
3043 26-12-2020 23:00:00 2.9 C 4.98 g/m*3 0.36 C 9.14167 km/h
3044 27-12-2020 00:00:00 2.825 C 4.99 g/m*3 0.89 C 6.975 km/h
3045 27-12-2020 01:00:00 2.99167 C 5.05 g/m*3 0.3 C 9.81667 km/h
3046 27-12-2020 02:00:00 3.25833 C 5.08 g/m*3 1.27 C 7.375 km/h
3047 27-12-2020 03:00:00 3.15833 C 5.06 g/m*3 1.9 C 5.21667 km/h
3048 27-12-2020 04:00:00 3.24167 C 5.08 g/m*3 1.17 C 7.65833 km/h
3049 27-12-2020 05:00:00 3.4 C 5.08 g/m*3 0.83 C 9.66667 km/h
3050 27-12-2020 06:00:00 3.44167 C 5.1 g/m*3 1.21 C 8.33333 km/h
Sensor: Nr:Datum:Temp:Abs-Feuchte:Windchill:Wind:
Aussen-T/F 3051 27-12-2020 07:00:00 3.55 C 5.22 g/m*3 1.73 C 6.98333 km/h
3052 27-12-2020 08:00:00 3.83333 C 5.3 g/m*3 1.51 C 8.975 km/h
3053 27-12-2020 09:00:00 3.88333 C 5.4 g/m*3 1.28 C 10.20833 km/h
3054 27-12-2020 10:00:00 3.925 C 5.45 g/m*3 1.82 C 8.18333 km/h
3055 27-12-2020 11:00:00 4.56667 C 5.5 g/m*3 1.76 C 11.83333 km/h
3056 27-12-2020 12:00:00 4.625 C 5.68 g/m*3 2.4 C 9.15 km/h
3057 27-12-2020 13:00:00 4.16667 C 5.78 g/m*3 2.1 C 8.2 km/h
3058 27-12-2020 14:00:00 3.9 C 5.78 g/m*3 1.65 C 8.73333 km/h
3059 27-12-2020 15:00:00 3.8 C 5.83 g/m*3 1.64 C 8.325 km/h
3060 27-12-2020 16:00:00 3.8 C 5.85 g/m*3 2.34 C 6.025 km/h
3061 27-12-2020 17:00:00 3.85833 C 5.88 g/m*3 1.47 C 9.25833 km/h
3062 27-12-2020 18:00:00 3.74167 C 5.85 g/m*3 2.08 C 6.575 km/h
3063 27-12-2020 19:00:00 3.95833 C 5.95 g/m*3 1.68 C 8.875 km/h
3064 27-12-2020 20:00:00 4.1 C 6.02 g/m*3 3.03 C 5.08333 km/h
3065 27-12-2020 21:00:00 4.13333 C 6.05 g/m*3 3.01 C 5.21667 km/h
3066 27-12-2020 22:00:00 4.1 C 6.08 g/m*3 4.1 C 1.46667 km/h
3067 27-12-2020 23:00:00 4.10833 C 6.12 g/m*3 4.11 C 1.6 km/h
3068 28-12-2020 00:00:00 4.15 C 6.17 g/m*3 4.15 C 1.6 km/h
3069 28-12-2020 01:00:00 4.11667 C 6.15 g/m*3 4.12 C 0.66667 km/h
3070 28-12-2020 02:00:00 3.78333 C 6.02 g/m*3 3.78 C 0.53333 km/h
3071 28-12-2020 03:00:00 3.66667 C 5.99 g/m*3 3.67 C 1.46667 km/h
3072 28-12-2020 04:00:00 3.725 C 6.04 g/m*3 3.73 C 2.01667 km/h
3073 28-12-2020 05:00:00 3.86667 C 6.11 g/m*3 3.87 C 0.8 km/h
3074 28-12-2020 06:00:00 3.71667 C 6.03 g/m*3 3.72 C 1.06667 km/h
3075 28-12-2020 07:00:00 3.08333 C 5.74 g/m*3 3.08 C 0.8 km/h
Sensor: Nr:Datum:Temp:Abs-Feuchte:Windchill:Wind:
Aussen-T/F 3076 28-12-2020 08:00:00 2 C 5.33 g/m*3 2 C 2.4 km/h
3077 28-12-2020 09:00:00 2.55 C 5.59 g/m*3 2.55 C 0.93333 km/h
3078 28-12-2020 10:00:00 3.8 C 6.09 g/m*3 3.8 C 0 km/h
3079 28-12-2020 11:00:00 4.59167 C 6.42 g/m*3 4.59 C 0.66667 km/h
3080 28-12-2020 12:00:00 5.04167 C 6.49 g/m*3 5.04 C 3.33333 km/h
3081 28-12-2020 13:00:00 5.59167 C 6.59 g/m*3 5.59 C 0.8 km/h
3082 28-12-2020 14:00:00 5.675 C 6.68 g/m*3 5.68 C 1.06667 km/h
3083 28-12-2020 15:00:00 5.15 C 6.45 g/m*3 5.15 C 3.48333 km/h
3084 28-12-2020 16:00:00 4.68333 C 6.28 g/m*3 4.68 C 3.475 km/h
3085 28-12-2020 17:00:00 4.01667 C 6.03 g/m*3 4.02 C 0.8 km/h
3086 28-12-2020 18:00:00 3.81667 C 5.99 g/m*3 3.82 C 0.4 km/h
3087 28-12-2020 19:00:00 3.21667 C 5.76 g/m*3 3.22 C 1.73333 km/h
3088 28-12-2020 20:00:00 1.95 C 5.27 g/m*3 1.95 C 2 km/h
3089 28-12-2020 21:00:00 2.64167 C 5.58 g/m*3 2.64 C 0 km/h
3090 28-12-2020 22:00:00 1.64167 C 5.2 g/m*3 1.64 C 2.13333 km/h
3091 28-12-2020 23:00:00 1.70833 C 5.25 g/m*3 1.71 C 2.13333 km/h
3092 29-12-2020 00:00:00 2.58333 C 5.59 g/m*3 2.58 C 1.875 km/h
3093 29-12-2020 01:00:00 2.6 C 5.56 g/m*3 2.6 C 0.8 km/h
3094 29-12-2020 02:00:00 2.58333 C 5.55 g/m*3 2.58 C 3.33333 km/h
3095 29-12-2020 03:00:00 1.86667 C 5.26 g/m*3 1.87 C 2.4 km/h
3096 29-12-2020 04:00:00 2 C 5.35 g/m*3 2 C 0 km/h
3097 29-12-2020 05:00:00 2.39167 C 5.48 g/m*3 2.39 C 0 km/h
3098 29-12-2020 06:00:00 2.38333 C 5.5 g/m*3 2.38 C 1.73333 km/h
3099 29-12-2020 07:00:00 2.64167 C 5.63 g/m*3 1.26 C 5.35833 km/h
3100 29-12-2020 08:00:00 2.93333 C 5.74 g/m*3 2.93 C 4.28333 km/h
Sensor: Nr:Datum:Temp:Abs-Feuchte:Windchill:Wind:
Aussen-T/F 3101 29-12-2020 09:00:00 3.2 C 5.83 g/m*3 0.96 C 8.2 km/h
3102 29-12-2020 10:00:00 3.53333 C 5.9 g/m*3 2.08 C 5.89167 km/h
3103 29-12-2020 11:00:00 4.03333 C 5.9 g/m*3 0.75 C 13.83333 km/h
3104 29-12-2020 12:00:00 4.78333 C 5.98 g/m*3 1.42 C 15.43333 km/h
3105 29-12-2020 13:00:00 5.00833 C 5.91 g/m*3 1.88 C 14.23333 km/h
3106 29-12-2020 14:00:00 5 C 5.9 g/m*3 3.05 C 8.31667 km/h
3107 29-12-2020 15:00:00 4.90833 C 6.05 g/m*3 4.91 C 2.81667 km/h
3108 29-12-2020 16:00:00 4.35833 C 5.97 g/m*3 4.36 C 2.4 km/h
3109 29-12-2020 17:00:00 3.85 C 5.85 g/m*3 3.85 C 1.73333 km/h
3110 29-12-2020 18:00:00 3.13333 C 5.56 g/m*3 3.13 C 1.86667 km/h
3111 29-12-2020 19:00:00 2.00833 C 5.22 g/m*3 2.01 C 2.66667 km/h
3112 29-12-2020 20:00:00 1.83333 C 5.24 g/m*3 1.83 C 0 km/h
3113 29-12-2020 21:00:00 1.65833 C 5.17 g/m*3 1.66 C 0.4 km/h
3114 29-12-2020 22:00:00 1.16667 C 5.03 g/m*3 1.17 C 1.2 km/h
3115 29-12-2020 23:00:00 1.39167 C 5.12 g/m*3 1.39 C 0 km/h
3116 30-12-2020 00:00:00 1.925 C 5.32 g/m*3 1.93 C 0 km/h
3117 30-12-2020 01:00:00 2.025 C 5.34 g/m*3 2.03 C 0 km/h
3118 30-12-2020 02:00:00 2.26667 C 5.47 g/m*3 2.27 C 0 km/h
3119 30-12-2020 03:00:00 2.54167 C 5.59 g/m*3 2.54 C 0 km/h
3120 30-12-2020 04:00:00 2.61667 C 5.62 g/m*3 2.62 C 0 km/h
3121 30-12-2020 05:00:00 2.78333 C 5.68 g/m*3 2.78 C 0 km/h
3122 30-12-2020 06:00:00 2.96667 C 5.75 g/m*3 2.97 C 0 km/h
3123 30-12-2020 07:00:00 3.45833 C 5.95 g/m*3 3.46 C 1.6 km/h
3124 30-12-2020 08:00:00 3.625 C 6.01 g/m*3 3.63 C 1.2 km/h
3125 30-12-2020 09:00:00 3.78333 C 6.08 g/m*3 3.78 C 1.6 km/h
Sensor: Nr:Datum:Temp:Abs-Feuchte:Windchill:Wind:
Aussen-T/F 3126 30-12-2020 10:00:00 4.2 C 6.25 g/m*3 4.2 C 2.26667 km/h
3127 30-12-2020 11:00:00 4.45 C 6.26 g/m*3 2.95 C 6.43333 km/h
3128 30-12-2020 12:00:00 4.75 C 6.18 g/m*3 2.65 C 8.74167 km/h
3129 30-12-2020 13:00:00 5.06667 C 5.93 g/m*3 3.27 C 7.78333 km/h
3130 30-12-2020 14:00:00 5.675 C 6.07 g/m*3 5.68 C 4.54167 km/h
3131 30-12-2020 15:00:00 5.79167 C 5.95 g/m*3 4.23 C 7.375 km/h
3132 30-12-2020 16:00:00 5.475 C 5.92 g/m*3 3.68 C 8.05 km/h
3133 30-12-2020 17:00:00 4.9 C 5.72 g/m*3 3.22 C 7.24167 km/h
3134 30-12-2020 18:00:00 4.65 C 5.7 g/m*3 2.37 C 9.41667 km/h
3135 30-12-2020 19:00:00 4.34167 C 5.71 g/m*3 3.2 C 5.35 km/h
3136 30-12-2020 20:00:00 4.28333 C 5.7 g/m*3 2.89 C 6.04167 km/h
3137 30-12-2020 21:00:00 4.23333 C 5.7 g/m*3 4.23 C 4.55 km/h
3138 30-12-2020 22:00:00 4 C 5.66 g/m*3 4 C 2 km/h
3139 30-12-2020 23:00:00 4.01667 C 5.7 g/m*3 4.02 C 1.875 km/h
3140 31-12-2020 00:00:00 4.03333 C 5.68 g/m*3 4.03 C 1.46667 km/h
3141 31-12-2020 01:00:00 3.43333 C 5.53 g/m*3 3.43 C 0.66667 km/h
3142 31-12-2020 02:00:00 3.175 C 5.51 g/m*3 3.18 C 1.46667 km/h
3143 31-12-2020 03:00:00 2.84167 C 5.4 g/m*3 2.84 C 0.66667 km/h
3144 31-12-2020 04:00:00 2.78333 C 5.39 g/m*3 2.78 C 0 km/h
3145 31-12-2020 05: